Time,TemperatureF,DewpointF,PressureIn,WindDirection,WindDirectionDegrees,WindSpeedMPH,WindSpeedGustMPH,Humidity,HourlyPrecipIn,Conditions,Clouds,dailyrainin,SoftwareType,DateUTC
2013-02-27 00:00:00,31.8,31.1,28.59,West,278,5.8,9.6,97,0.00,,---,0.00,VWS V14.01,2013-02-27 05:00:00,
2013-02-27 00:01:00,31.8,31.1,28.59,SSW,204,7.8,11.6,97,0.00,,---,0.00,VWS V14.01,2013-02-27 05:01:00,
2013-02-27 00:02:00,31.8,31.1,28.59,WSW,243,7.8,8.3,97,0.00,,---,0.00,VWS V14.01,2013-02-27 05:02:00,
2013-02-27 00:03:00,31.8,31.1,28.59,West,275,8.3,10.1,97,0.00,,---,0.00,VWS V14.01,2013-02-27 05:03:00,
2013-02-27 00:04:00,31.8,31.1,28.59,WSW,252,9.2,12.5,97,0.00,,---,0.00,VWS V14.01,2013-02-27 05:04:00,
2013-02-27 00:05:00,31.8,31.1,28.58,SW,228,9.2,13.4,97,0.00,,---,0.00,VWS V14.01,2013-02-27 05:05:00,
2013-02-27 00:06:00,31.8,31.1,28.58,West,260,4.9,9.2,97,0.00,,---,0.00,VWS V14.01,2013-02-27 05:06:00,
2013-02-27 00:07:00,31.8,31.1,28.58,WSW,251,9.2,9.2,97,0.00,,---,0.00,VWS V14.01,2013-02-27 05:07:00,
2013-02-27 00:08:00,31.8,31.1,28.58,WSW,255,4.9,9.2,97,0.00,,---,0.00,VWS V14.01,2013-02-27 05:08:00,
2013-02-27 00:09:00,31.8,31.1,28.58,WSW,258,6.3,11.0,97,0.00,,---,0.00,VWS V14.01,2013-02-27 05:09:00,
2013-02-27 00:10:00,31.8,31.1,28.59,West,275,5.4,10.5,97,0.00,,---,0.00,VWS V14.01,2013-02-27 05:10:00,
2013-02-27 00:11:00,31.8,31.1,28.58,West,274,5.8,11.0,97,0.00,,---,0.00,VWS V14.01,2013-02-27 05:11:00,
2013-02-27 00:12:00,31.8,31.1,28.59,West,262,11.6,11.6,97,0.00,,---,0.00,VWS V14.01,2013-02-27 05:12:00,
2013-02-27 00:13:00,31.8,31.1,28.58,SW,225,7.4,11.6,97,0.00,,---,0.00,VWS V14.01,2013-02-27 05:13:00,
2013-02-27 00:14:00,31.8,31.1,28.59,West,275,11.2,11.2,97,0.00,,---,0.00,VWS V14.01,2013-02-27 05:14:00,
2013-02-27 00:15:00,31.8,31.1,28.59,West,278,6.7,11.2,97,0.00,,---,0.00,VWS V14.01,2013-02-27 05:15:00,
2013-02-27 00:16:00,31.8,31.1,28.58,SW,234,6.3,6.7,97,0.00,,---,0.00,VWS V14.01,2013-02-27 05:16:00,
2013-02-27 00:17:00,31.8,31.1,28.59,WSW,257,8.7,12.1,97,0.00,,---,0.00,VWS V14.01,2013-02-27 05:17:00,
2013-02-27 00:18:00,31.8,31.1,28.58,West,271,9.2,10.5,97,0.00,,---,0.00,VWS V14.01,2013-02-27 05:18:00,
2013-02-27 00:19:00,31.8,31.1,28.59,WSW,254,7.8,9.2,97,0.00,,---,0.00,VWS V14.01,2013-02-27 05:19:00,
2013-02-27 00:20:00,31.8,31.1,28.58,West,271,6.3,7.8,97,0.00,,---,0.00,VWS V14.01,2013-02-27 05:20:00,
2013-02-27 00:21:00,31.8,31.1,28.58,West,273,7.4,11.0,97,0.00,,---,0.00,VWS V14.01,2013-02-27 05:21:00,
2013-02-27 00:22:00,40.5,39.7,28.41,WSW,241,5.8,7.4,97,0.00,,---,0.00,VWS V14.01,2013-02-27 05:22:00,
2013-02-27 00:23:00,31.8,31.1,28.59,SW,236,7.8,7.8,97,0.00,,---,0.00,VWS V14.01,2013-02-27 05:23:00,
2013-02-27 00:24:00,31.8,31.1,28.58,WSW,256,9.6,11.6,97,0.00,,---,0.00,VWS V14.01,2013-02-27 05:24:00,
2013-02-27 00:25:00,31.8,31.1,28.59,SW,229,5.4,9.6,97,0.00,,---,0.00,VWS V14.01,2013-02-27 05:25:00,
2013-02-27 00:26:00,31.8,31.1,28.58,WSW,250,9.2,10.1,97,0.00,,---,0.00,VWS V14.01,2013-02-27 05:26:00,
2013-02-27 00:27:00,40.5,39.7,28.41,WSW,257,4.9,7.4,97,0.00,,---,0.00,VWS V14.01,2013-02-27 05:27:00,
2013-02-27 00:28:00,31.8,31.1,28.59,West,274,8.7,9.6,97,0.00,,---,0.00,VWS V14.01,2013-02-27 05:28:00,
2013-02-27 00:29:00,31.8,31.1,28.59,WSW,248,7.8,8.7,97,0.00,,---,0.00,VWS V14.01,2013-02-27 05:29:00,
2013-02-27 00:30:00,31.8,31.1,28.59,WSW,257,8.3,14.3,97,0.00,,---,0.00,VWS V14.01,2013-02-27 05:30:00,
2013-02-27 00:31:00,31.8,31.1,28.58,West,264,4.9,9.2,97,0.00,,---,0.00,VWS V14.01,2013-02-27 05:31:00,
2013-02-27 00:32:00,31.8,31.1,28.58,SW,230,10.5,11.2,97,0.00,,---,0.00,VWS V14.01,2013-02-27 05:32:00,
2013-02-27 00:33:00,40.5,39.7,28.41,West,269,7.4,8.3,97,0.00,,---,0.00,VWS V14.01,2013-02-27 05:33:00,
2013-02-27 00:34:00,31.8,31.1,28.58,West,268,9.6,14.3,97,0.00,,---,0.00,VWS V14.01,2013-02-27 05:34:00,
2013-02-27 00:35:00,31.8,31.1,28.58,WNW,296,9.6,11.2,97,0.00,,---,0.00,VWS V14.01,2013-02-27 05:35:00,
2013-02-27 00:36:00,31.8,31.1,28.59,WSW,257,5.4,9.6,97,0.00,,---,0.00,VWS V14.01,2013-02-27 05:36:00,
2013-02-27 00:37:00,31.8,31.1,28.58,West,264,12.1,12.1,97,0.00,,---,0.00,VWS V14.01,2013-02-27 05:37:00,
2013-02-27 00:38:00,40.5,39.7,28.41,WSW,249,6.7,7.8,97,0.00,,---,0.00,VWS V14.01,2013-02-27 05:38:00,
2013-02-27 00:39:00,31.8,31.1,28.58,WSW,251,11.0,14.8,97,0.00,,---,0.00,VWS V14.01,2013-02-27 05:39:00,
2013-02-27 00:40:00,31.8,31.1,28.59,West,269,8.7,12.1,97,0.00,,---,0.00,VWS V14.01,2013-02-27 05:40:00,
2013-02-27 00:41:00,31.8,31.1,28.58,West,278,5.8,8.7,97,0.00,,---,0.00,VWS V14.01,2013-02-27 05:41:00,
2013-02-27 00:42:00,32.0,31.2,28.58,SSW,207,7.8,11.0,97,0.00,,---,0.00,VWS V14.01,2013-02-27 05:42:00,
2013-02-27 00:43:00,40.5,39.7,28.41,WSW,255,4.5,5.8,97,0.00,,---,0.00,VWS V14.01,2013-02-27 05:43:00,
2013-02-27 00:44:00,31.8,31.1,28.58,WNW,292,6.7,14.3,97,0.00,,---,0.00,VWS V14.01,2013-02-27 05:44:00,
2013-02-27 00:45:00,31.8,31.1,28.58,WNW,288,7.8,8.3,97,0.00,,---,0.00,VWS V14.01,2013-02-27 05:45:00,
2013-02-27 00:46:00,31.8,31.1,28.58,WSW,253,8.7,11.6,97,0.00,,---,0.00,VWS V14.01,2013-02-27 05:46:00,
2013-02-27 00:47:00,32.0,31.2,28.59,West,266,9.6,11.6,97,0.00,,---,0.00,VWS V14.01,2013-02-27 05:47:00,
2013-02-27 00:48:00,40.5,39.7,28.41,SW,229,5.4,6.7,97,0.00,,---,0.00,VWS V14.01,2013-02-27 05:48:00,
2013-02-27 00:49:00,32.0,31.2,28.58,West,272,6.7,8.7,97,0.00,,---,0.00,VWS V14.01,2013-02-27 05:49:00,
2013-02-27 00:50:00,32.0,31.2,28.58,WSW,253,7.8,8.7,97,0.00,,---,0.00,VWS V14.01,2013-02-27 05:50:00,
2013-02-27 00:51:00,32.0,31.2,28.59,WSW,252,8.3,11.2,97,0.00,,---,0.00,VWS V14.01,2013-02-27 05:51:00,
2013-02-27 00:52:00,32.0,31.2,28.59,WSW,247,4.9,13.9,97,0.00,,---,0.00,VWS V14.01,2013-02-27 05:52:00,
2013-02-27 00:53:00,40.5,39.7,28.41,WSW,249,6.9,7.4,97,0.00,,---,0.00,VWS V14.01,2013-02-27 05:53:00,
2013-02-27 00:54:00,32.0,31.2,28.59,WNW,289,6.3,7.8,97,0.00,,---,0.00,VWS V14.01,2013-02-27 05:54:00,
2013-02-27 00:55:00,32.0,31.2,28.59,WSW,237,7.8,8.7,97,0.00,,---,0.00,VWS V14.01,2013-02-27 05:55:00,
2013-02-27 00:56:00,32.0,31.2,28.59,SW,233,5.4,7.8,97,0.00,,---,0.00,VWS V14.01,2013-02-27 05:56:00,
2013-02-27 00:57:00,32.0,31.2,28.59,WSW,258,10.1,10.5,97,0.00,,---,0.00,VWS V14.01,2013-02-27 05:57:00,
2013-02-27 00:58:00,40.5,39.7,28.41,WSW,244,5.8,7.4,97,0.00,,---,0.00,VWS V14.01,2013-02-27 05:58:00,
2013-02-27 00:59:00,32.0,31.2,28.59,WSW,248,6.3,9.6,97,0.00,,---,0.00,VWS V14.01,2013-02-27 05:59:00,
2013-02-27 01:00:00,32.0,31.2,28.59,West,262,6.3,10.1,97,0.00,,---,0.00,VWS V14.01,2013-02-27 06:00:00,
2013-02-27 01:01:00,32.0,31.2,28.59,West,266,8.3,11.6,97,0.00,,---,0.00,VWS V14.01,2013-02-27 06:01:00,
2013-02-27 01:02:00,32.0,31.2,28.59,WSW,245,10.1,11.0,97,0.00,,---,0.00,VWS V14.01,2013-02-27 06:02:00,
2013-02-27 01:03:00,40.5,39.7,28.41,WSW,254,3.1,6.3,97,0.00,,---,0.00,VWS V14.01,2013-02-27 06:03:00,
2013-02-27 01:04:00,32.0,31.2,28.59,SW,235,5.8,11.6,97,0.00,,---,0.00,VWS V14.01,2013-02-27 06:04:00,
2013-02-27 01:05:00,32.0,31.2,28.59,WSW,255,6.9,11.0,97,0.00,,---,0.00,VWS V14.01,2013-02-27 06:05:00,
2013-02-27 01:06:00,32.0,31.2,28.59,SW,229,6.7,11.2,97,0.00,,---,0.00,VWS V14.01,2013-02-27 06:06:00,
2013-02-27 01:07:00,32.0,31.2,28.59,WSW,252,10.5,10.5,97,0.00,,---,0.00,VWS V14.01,2013-02-27 06:07:00,
2013-02-27 01:08:00,32.0,31.2,28.59,West,268,10.1,15.2,97,0.00,,---,0.00,VWS V14.01,2013-02-27 06:08:00,
2013-02-27 01:09:00,40.3,39.5,28.41,West,270,5.4,5.8,97,0.00,,---,0.00,VWS V14.01,2013-02-27 06:09:00,
2013-02-27 01:10:00,32.0,31.2,28.59,West,262,6.7,11.2,97,0.00,,---,0.00,VWS V14.01,2013-02-27 06:10:00,
2013-02-27 01:11:00,32.0,31.2,28.59,WSW,258,8.7,10.1,97,0.00,,---,0.00,VWS V14.01,2013-02-27 06:11:00,
2013-02-27 01:12:00,32.0,31.0,28.59,West,266,4.9,10.1,96,0.00,,---,0.00,VWS V14.01,2013-02-27 06:12:00,
2013-02-27 01:13:00,32.0,31.0,28.59,WSW,238,5.8,12.1,96,0.00,,---,0.00,VWS V14.01,2013-02-27 06:13:00,
2013-02-27 01:14:00,40.3,39.5,28.41,West,280,6.7,6.9,97,0.00,,---,0.00,VWS V14.01,2013-02-27 06:14:00,
2013-02-27 01:15:00,32.0,31.0,28.59,West,261,13.0,16.8,96,0.00,,---,0.00,VWS V14.01,2013-02-27 06:15:00,
2013-02-27 01:16:00,32.0,31.0,28.59,West,262,6.7,13.9,96,0.00,,---,0.00,VWS V14.01,2013-02-27 06:16:00,
2013-02-27 01:17:00,32.0,31.0,28.59,WSW,237,8.3,12.5,96,0.00,,---,0.00,VWS V14.01,2013-02-27 06:17:00,
2013-02-27 01:18:00,32.0,31.0,28.59,WSW,253,12.5,12.5,96,0.00,,---,0.00,VWS V14.01,2013-02-27 06:18:00,
2013-02-27 01:19:00,40.3,39.5,28.41,West,274,4.9,5.8,97,0.00,,---,0.00,VWS V14.01,2013-02-27 06:19:00,
2013-02-27 01:20:00,32.0,31.0,28.59,WNW,287,6.9,12.5,96,0.00,,---,0.00,VWS V14.01,2013-02-27 06:20:00,
2013-02-27 01:21:00,32.0,31.0,28.56,WSW,250,11.0,13.4,96,0.00,,---,0.00,VWS V14.01,2013-02-27 06:21:00,
2013-02-27 01:22:00,32.0,31.0,28.56,West,274,4.5,13.9,96,0.00,,---,0.00,VWS V14.01,2013-02-27 06:22:00,
2013-02-27 01:23:00,32.0,31.0,28.56,WNW,295,6.7,9.2,96,0.00,,---,0.00,VWS V14.01,2013-02-27 06:23:00,
2013-02-27 01:24:00,40.3,39.5,28.41,West,281,4.5,6.7,97,0.00,,---,0.00,VWS V14.01,2013-02-27 06:24:00,
2013-02-27 01:25:00,32.0,31.0,28.56,WNW,299,8.3,13.0,96,0.00,,---,0.00,VWS V14.01,2013-02-27 06:25:00,
2013-02-27 01:26:00,32.0,31.0,28.56,West,271,13.4,13.4,96,0.00,,---,0.00,VWS V14.01,2013-02-27 06:26:00,
2013-02-27 01:27:00,32.0,31.0,28.56,West,265,8.7,13.4,96,0.00,,---,0.00,VWS V14.01,2013-02-27 06:27:00,
2013-02-27 01:28:00,32.0,31.0,28.56,WNW,285,6.9,9.6,96,0.00,,---,0.00,VWS V14.01,2013-02-27 06:28:00,
2013-02-27 01:29:00,40.3,39.5,28.41,West,260,7.4,7.4,97,0.00,,---,0.00,VWS V14.01,2013-02-27 06:29:00,
2013-02-27 01:30:00,32.0,31.0,28.56,WSW,257,7.8,11.2,96,0.00,,---,0.00,VWS V14.01,2013-02-27 06:30:00,
2013-02-27 01:31:00,32.0,31.0,28.56,West,272,9.2,10.1,96,0.00,,---,0.00,VWS V14.01,2013-02-27 06:31:00,
2013-02-27 01:32:00,32.0,31.0,28.56,West,275,5.4,9.2,96,0.00,,---,0.00,VWS V14.01,2013-02-27 06:32:00,
2013-02-27 01:33:00,32.0,31.0,28.56,WSW,243,9.2,14.8,96,0.00,,---,0.00,VWS V14.01,2013-02-27 06:33:00,
2013-02-27 01:34:00,32.0,31.0,28.56,WSW,253,8.7,11.0,96,0.00,,---,0.00,VWS V14.01,2013-02-27 06:34:00,
2013-02-27 01:35:00,32.2,31.2,28.56,NW,319,5.4,8.7,96,0.00,,---,0.00,VWS V14.01,2013-02-27 06:35:00,
2013-02-27 01:36:00,32.2,31.2,28.59,WSW,238,5.8,7.4,96,0.00,,---,0.00,VWS V14.01,2013-02-27 06:36:00,
2013-02-27 01:37:00,32.2,31.2,28.59,WSW,242,7.4,11.2,96,0.00,,---,0.00,VWS V14.01,2013-02-27 06:37:00,
2013-02-27 01:38:00,32.2,31.2,28.59,SW,236,10.1,13.4,96,0.00,,---,0.00,VWS V14.01,2013-02-27 06:38:00,
2013-02-27 01:39:00,32.2,31.2,28.59,West,275,5.8,12.1,96,0.00,,---,0.00,VWS V14.01,2013-02-27 06:39:00,
2013-02-27 01:40:00,32.2,31.2,28.59,WSW,250,7.4,9.6,96,0.00,,---,0.00,VWS V14.01,2013-02-27 06:40:00,
2013-02-27 01:41:00,40.3,39.5,28.41,WSW,258,5.4,5.8,97,0.00,,---,0.00,VWS V14.01,2013-02-27 06:41:00,
2013-02-27 01:42:00,32.2,30.9,28.59,West,262,10.5,12.5,95,0.00,,---,0.00,VWS V14.01,2013-02-27 06:42:00,
2013-02-27 01:43:00,32.2,30.9,28.59,WNW,283,4.9,13.4,95,0.00,,---,0.00,VWS V14.01,2013-02-27 06:43:00,
2013-02-27 01:44:00,32.2,30.9,28.59,SW,229,6.7,8.7,95,0.00,,---,0.00,VWS V14.01,2013-02-27 06:44:00,
2013-02-27 01:45:00,32.2,30.9,28.59,West,276,9.6,12.5,95,0.00,,---,0.00,VWS V14.01,2013-02-27 06:45:00,
2013-02-27 01:46:00,40.3,39.5,28.41,West,280,5.8,9.2,97,0.00,,---,0.00,VWS V14.01,2013-02-27 06:46:00,
2013-02-27 01:47:00,32.2,30.9,28.59,WNW,290,12.1,12.5,95,0.00,,---,0.00,VWS V14.01,2013-02-27 06:47:00,
2013-02-27 01:48:00,32.2,30.9,28.59,WSW,243,4.0,12.1,95,0.00,,---,0.00,VWS V14.01,2013-02-27 06:48:00,
2013-02-27 01:49:00,32.2,30.9,28.59,WNW,299,5.8,13.4,95,0.00,,---,0.00,VWS V14.01,2013-02-27 06:49:00,
2013-02-27 01:50:00,32.2,30.9,28.59,West,281,6.7,9.2,95,0.00,,---,0.00,VWS V14.01,2013-02-27 06:50:00,
2013-02-27 01:51:00,32.2,30.9,28.59,West,260,6.7,7.4,95,0.00,,---,0.00,VWS V14.01,2013-02-27 06:51:00,
2013-02-27 01:52:00,40.3,39.5,28.41,West,263,3.1,4.5,97,0.00,,---,0.00,VWS V14.01,2013-02-27 06:52:00,
2013-02-27 01:53:00,32.2,30.9,28.59,West,269,7.4,10.5,95,0.00,,---,0.00,VWS V14.01,2013-02-27 06:53:00,
2013-02-27 01:54:00,32.2,30.9,28.59,West,259,8.7,12.1,95,0.00,,---,0.00,VWS V14.01,2013-02-27 06:54:00,
2013-02-27 01:55:00,32.2,30.9,28.59,WSW,249,8.3,8.7,95,0.00,,---,0.00,VWS V14.01,2013-02-27 06:55:00,
2013-02-27 01:56:00,32.2,30.9,28.59,WSW,246,9.6,13.4,95,0.00,,---,0.00,VWS V14.01,2013-02-27 06:56:00,
2013-02-27 01:57:00,40.3,39.5,28.44,West,277,0.0,4.5,97,0.00,,---,0.00,VWS V14.01,2013-02-27 06:57:00,
2013-02-27 01:58:00,32.2,30.9,28.59,West,281,9.6,12.5,95,0.00,,---,0.00,VWS V14.01,2013-02-27 06:58:00,
2013-02-27 01:59:00,32.2,30.9,28.59,WSW,252,9.6,11.0,95,0.00,,---,0.00,VWS V14.01,2013-02-27 06:59:00,
2013-02-27 02:00:00,32.2,30.9,28.59,West,267,6.3,9.6,95,0.00,,---,0.00,VWS V14.01,2013-02-27 07:00:00,
2013-02-27 02:01:00,32.2,30.9,28.59,West,279,4.9,10.1,95,0.00,,---,0.00,VWS V14.01,2013-02-27 07:01:00,
2013-02-27 02:02:00,40.1,39.3,28.44,WNW,295,4.0,6.3,97,0.00,,---,0.00,VWS V14.01,2013-02-27 07:02:00,
2013-02-27 02:03:00,32.2,30.9,28.59,WNW,286,7.4,12.1,95,0.00,,---,0.00,VWS V14.01,2013-02-27 07:03:00,
2013-02-27 02:04:00,32.2,30.9,28.59,WNW,301,5.4,11.0,95,0.00,,---,0.00,VWS V14.01,2013-02-27 07:04:00,
2013-02-27 02:05:00,32.2,30.9,28.59,WSW,253,6.3,8.3,95,0.00,,---,0.00,VWS V14.01,2013-02-27 07:05:00,
2013-02-27 02:06:00,32.2,30.9,28.59,WNW,287,8.3,10.1,95,0.00,,---,0.00,VWS V14.01,2013-02-27 07:06:00,
2013-02-27 02:07:00,40.1,39.3,28.44,West,273,2.7,4.5,97,0.00,,---,0.00,VWS V14.01,2013-02-27 07:07:00,
2013-02-27 02:08:00,32.2,30.9,28.59,WSW,240,11.0,11.0,95,0.00,,---,0.00,VWS V14.01,2013-02-27 07:08:00,
2013-02-27 02:09:00,32.2,30.9,28.58,WSW,256,10.1,12.5,95,0.00,,---,0.00,VWS V14.01,2013-02-27 07:09:00,
2013-02-27 02:10:00,32.2,30.9,28.59,West,260,6.9,13.4,95,0.00,,---,0.00,VWS V14.01,2013-02-27 07:10:00,
2013-02-27 02:11:00,32.2,30.9,28.59,WSW,253,9.6,10.5,95,0.00,,---,0.00,VWS V14.01,2013-02-27 07:11:00,
2013-02-27 02:12:00,40.1,39.3,28.44,West,273,0.0,3.1,97,0.00,,---,0.00,VWS V14.01,2013-02-27 07:12:00,
2013-02-27 02:13:00,32.2,30.9,28.59,West,261,10.1,11.2,95,0.00,,---,0.00,VWS V14.01,2013-02-27 07:13:00,
2013-02-27 02:14:00,32.2,30.9,28.59,WNW,290,11.2,11.6,95,0.00,,---,0.00,VWS V14.01,2013-02-27 07:14:00,
2013-02-27 02:15:00,32.2,30.9,28.59,WNW,282,6.9,11.2,95,0.00,,---,0.00,VWS V14.01,2013-02-27 07:15:00,
2013-02-27 02:16:00,32.2,30.9,28.58,WSW,249,7.4,11.2,95,0.00,,---,0.00,VWS V14.01,2013-02-27 07:16:00,
2013-02-27 02:17:00,40.1,39.3,28.44,WNW,289,0.0,5.8,97,0.00,,---,0.00,VWS V14.01,2013-02-27 07:17:00,
2013-02-27 02:18:00,32.2,30.9,28.59,West,275,10.5,11.6,95,0.00,,---,0.00,VWS V14.01,2013-02-27 07:18:00,
2013-02-27 02:19:00,32.2,30.9,28.58,WNW,288,9.2,11.6,95,0.00,,---,0.00,VWS V14.01,2013-02-27 07:19:00,
2013-02-27 02:20:00,32.2,30.9,28.58,WNW,288,7.4,10.5,95,0.00,,---,0.00,VWS V14.01,2013-02-27 07:20:00,
2013-02-27 02:21:00,32.2,30.9,28.58,West,279,8.3,10.1,95,0.00,,---,0.00,VWS V14.01,2013-02-27 07:21:00,
2013-02-27 02:22:00,32.2,30.9,28.59,West,278,7.4,11.0,95,0.00,,---,0.00,VWS V14.01,2013-02-27 07:22:00,
2013-02-27 02:23:00,40.1,39.3,28.44,West,263,3.1,4.9,97,0.00,,---,0.00,VWS V14.01,2013-02-27 07:23:00,
2013-02-27 02:24:00,32.2,31.2,28.59,WNW,283,6.9,9.6,96,0.00,,---,0.00,VWS V14.01,2013-02-27 07:24:00,
2013-02-27 02:25:00,32.2,31.2,28.58,WSW,245,4.9,11.2,96,0.00,,---,0.00,VWS V14.01,2013-02-27 07:25:00,
2013-02-27 02:26:00,32.2,31.2,28.58,WSW,246,7.8,13.0,96,0.00,,---,0.00,VWS V14.01,2013-02-27 07:26:00,
2013-02-27 02:27:00,32.2,31.2,28.58,WSW,245,7.4,11.6,96,0.00,,---,0.00,VWS V14.01,2013-02-27 07:27:00,
2013-02-27 02:28:00,40.1,39.3,28.44,West,259,6.7,8.7,97,0.00,,---,0.00,VWS V14.01,2013-02-27 07:28:00,
2013-02-27 02:29:00,32.2,31.2,28.58,WSW,257,7.8,10.1,96,0.00,,---,0.00,VWS V14.01,2013-02-27 07:29:00,
2013-02-27 02:30:00,32.2,31.2,28.58,WNW,286,6.7,15.2,96,0.00,,---,0.00,VWS V14.01,2013-02-27 07:30:00,
2013-02-27 02:32:00,32.2,31.2,28.58,WNW,288,5.8,9.6,96,0.00,,---,0.00,VWS V14.01,2013-02-27 07:32:00,
2013-02-27 02:33:00,40.1,39.3,28.44,West,280,5.4,6.7,97,0.00,,---,0.00,VWS V14.01,2013-02-27 07:33:00,
2013-02-27 02:35:00,32.2,31.2,28.58,WNW,284,9.6,10.1,96,0.00,,---,0.00,VWS V14.01,2013-02-27 07:35:00,
2013-02-27 02:36:00,32.2,31.2,28.58,West,262,13.4,13.4,96,0.00,,---,0.00,VWS V14.01,2013-02-27 07:36:00,
2013-02-27 02:37:00,32.2,31.2,28.58,West,281,4.9,14.3,96,0.00,,---,0.00,VWS V14.01,2013-02-27 07:37:00,
2013-02-27 02:38:00,39.9,39.1,28.44,WNW,287,0.0,6.3,97,0.00,,---,0.00,VWS V14.01,2013-02-27 07:38:00,
2013-02-27 02:39:00,32.2,31.2,28.58,WNW,294,13.9,13.9,96,0.00,,---,0.00,VWS V14.01,2013-02-27 07:39:00,
2013-02-27 02:40:00,32.2,31.2,28.58,WSW,247,4.9,13.9,96,0.00,,---,0.00,VWS V14.01,2013-02-27 07:40:00,
2013-02-27 02:41:00,32.2,31.2,28.58,West,265,5.8,10.5,96,0.00,,---,0.00,VWS V14.01,2013-02-27 07:41:00,
2013-02-27 02:42:00,32.2,31.2,28.58,West,270,10.1,11.0,96,0.00,,---,0.00,VWS V14.01,2013-02-27 07:42:00,
2013-02-27 02:43:00,39.9,39.1,28.44,West,260,4.5,6.7,97,0.00,,---,0.00,VWS V14.01,2013-02-27 07:43:00,
2013-02-27 02:44:00,32.2,31.2,28.58,WNW,293,3.6,11.6,96,0.00,,---,0.00,VWS V14.01,2013-02-27 07:44:00,
2013-02-27 02:45:00,32.2,31.2,28.59,West,275,5.4,7.4,96,0.00,,---,0.00,VWS V14.01,2013-02-27 07:45:00,
2013-02-27 02:46:00,32.2,31.2,28.59,WNW,285,6.9,10.1,96,0.00,,---,0.00,VWS V14.01,2013-02-27 07:46:00,
2013-02-27 02:47:00,32.2,31.2,28.58,WNW,295,9.6,9.6,96,0.00,,---,0.00,VWS V14.01,2013-02-27 07:47:00,
2013-02-27 02:48:00,39.9,39.1,28.44,WSW,254,4.0,4.9,97,0.00,,---,0.00,VWS V14.01,2013-02-27 07:48:00,
2013-02-27 02:49:00,32.2,31.2,28.59,SW,236,4.9,8.3,96,0.00,,---,0.00,VWS V14.01,2013-02-27 07:49:00,
2013-02-27 02:50:00,32.4,31.4,28.58,West,260,8.3,10.1,96,0.00,,---,0.00,VWS V14.01,2013-02-27 07:50:00,
2013-02-27 02:51:00,32.4,31.4,28.59,WNW,283,4.9,10.1,96,0.00,,---,0.00,VWS V14.01,2013-02-27 07:51:00,
2013-02-27 02:52:00,32.4,31.4,28.59,West,275,4.9,6.9,96,0.00,,---,0.00,VWS V14.01,2013-02-27 07:52:00,
2013-02-27 02:53:00,39.9,39.1,28.44,WSW,249,5.4,7.4,97,0.00,,---,0.00,VWS V14.01,2013-02-27 07:53:00,
2013-02-27 02:54:00,32.4,31.4,28.58,WSW,250,4.9,8.7,96,0.00,,---,0.00,VWS V14.01,2013-02-27 07:54:00,
2013-02-27 02:55:00,32.4,31.4,28.59,WSW,253,8.3,10.1,96,0.00,,---,0.00,VWS V14.01,2013-02-27 07:55:00,
2013-02-27 02:56:00,32.4,31.4,28.59,West,261,5.4,11.2,96,0.00,,---,0.00,VWS V14.01,2013-02-27 07:56:00,
2013-02-27 02:57:00,32.4,31.6,28.59,WSW,249,6.9,8.7,97,0.00,,---,0.00,VWS V14.01,2013-02-27 07:57:00,
2013-02-27 02:58:00,39.9,39.1,28.44,WSW,253,4.0,5.8,97,0.00,,---,0.00,VWS V14.01,2013-02-27 07:58:00,
2013-02-27 02:59:00,32.4,31.6,28.58,NW,317,9.2,11.0,97,0.00,,---,0.00,VWS V14.01,2013-02-27 07:59:00,
2013-02-27 03:00:00,32.4,31.6,28.58,West,276,10.1,10.1,97,0.00,,---,0.00,VWS V14.01,2013-02-27 08:00:00,
2013-02-27 03:01:00,32.4,31.6,28.59,NW,306,6.3,10.5,97,0.00,,---,0.00,VWS V14.01,2013-02-27 08:01:00,
2013-02-27 03:02:00,32.4,31.6,28.58,West,259,7.8,12.5,97,0.00,,---,0.00,VWS V14.01,2013-02-27 08:02:00,
2013-02-27 03:03:00,32.4,31.6,28.59,WSW,248,9.2,9.2,97,0.00,,---,0.00,VWS V14.01,2013-02-27 08:03:00,
2013-02-27 03:04:00,40.1,39.3,28.44,WNW,282,4.9,6.3,97,0.04,,---,0.04,VWS V14.01,2013-02-27 08:04:00,
2013-02-27 03:05:00,32.4,31.6,28.58,SW,228,8.7,11.0,97,0.00,,---,0.00,VWS V14.01,2013-02-27 08:05:00,
2013-02-27 03:06:00,32.4,31.6,28.58,WNW,289,4.0,10.1,97,0.00,,---,0.00,VWS V14.01,2013-02-27 08:06:00,
2013-02-27 03:07:00,32.4,31.6,28.59,NW,312,5.4,8.3,97,0.00,,---,0.00,VWS V14.01,2013-02-27 08:07:00,
2013-02-27 03:08:00,32.4,31.6,28.59,WSW,248,9.2,10.5,97,0.00,,---,0.00,VWS V14.01,2013-02-27 08:08:00,
2013-02-27 03:09:00,39.9,39.1,28.44,WNW,287,4.9,6.9,97,0.04,,---,0.04,VWS V14.01,2013-02-27 08:09:00,
2013-02-27 03:10:00,32.4,31.6,28.59,SW,235,5.4,9.2,97,0.00,,---,0.00,VWS V14.01,2013-02-27 08:10:00,
2013-02-27 03:11:00,32.4,31.6,28.58,West,277,6.9,9.2,97,0.00,,---,0.00,VWS V14.01,2013-02-27 08:11:00,
2013-02-27 03:12:00,32.4,31.6,28.59,WSW,242,6.3,9.2,97,0.00,,---,0.00,VWS V14.01,2013-02-27 08:12:00,
2013-02-27 03:13:00,32.4,31.6,28.58,West,266,7.4,9.2,97,0.00,,---,0.00,VWS V14.01,2013-02-27 08:13:00,
2013-02-27 03:14:00,32.4,31.6,28.58,West,274,4.9,8.7,97,0.00,,---,0.00,VWS V14.01,2013-02-27 08:14:00,
2013-02-27 03:15:00,40.1,39.3,28.44,West,263,3.6,5.8,97,0.04,,---,0.04,VWS V14.01,2013-02-27 08:15:00,
2013-02-27 03:16:00,32.4,31.6,28.59,WSW,249,7.8,11.0,97,0.00,,---,0.00,VWS V14.01,2013-02-27 08:16:00,
2013-02-27 03:17:00,32.4,31.6,28.58,West,260,6.3,9.6,97,0.00,,---,0.00,VWS V14.01,2013-02-27 08:17:00,
2013-02-27 03:18:00,32.4,31.6,28.58,West,278,6.3,9.2,97,0.00,,---,0.00,VWS V14.01,2013-02-27 08:18:00,
2013-02-27 03:19:00,32.4,31.6,28.59,SSW,212,6.7,9.6,97,0.00,,---,0.00,VWS V14.01,2013-02-27 08:19:00,
2013-02-27 03:20:00,39.9,39.1,28.44,West,259,3.1,4.9,97,0.04,,---,0.04,VWS V14.01,2013-02-27 08:20:00,
2013-02-27 03:21:00,32.5,31.8,28.59,West,269,9.6,9.6,97,0.00,,---,0.00,VWS V14.01,2013-02-27 08:21:00,
2013-02-27 03:22:00,32.5,31.8,28.59,NW,318,9.2,9.6,97,0.00,,---,0.00,VWS V14.01,2013-02-27 08:22:00,
2013-02-27 03:23:00,32.5,31.8,28.58,NW,313,5.8,9.2,97,0.00,,---,0.00,VWS V14.01,2013-02-27 08:23:00,
2013-02-27 03:24:00,32.5,31.8,28.58,West,276,6.7,6.9,97,0.00,,---,0.00,VWS V14.01,2013-02-27 08:24:00,
2013-02-27 03:25:00,39.9,39.1,28.44,West,271,0.0,3.6,97,0.04,,---,0.04,VWS V14.01,2013-02-27 08:25:00,
2013-02-27 03:26:00,32.5,31.8,28.59,West,280,4.5,8.3,97,0.00,,---,0.00,VWS V14.01,2013-02-27 08:26:00,
2013-02-27 03:27:00,32.5,31.8,28.59,West,267,4.9,7.8,97,0.00,,---,0.00,VWS V14.01,2013-02-27 08:27:00,
2013-02-27 03:28:00,32.5,31.8,28.59,WNW,282,8.3,11.6,97,0.00,,---,0.00,VWS V14.01,2013-02-27 08:28:00,
2013-02-27 03:29:00,32.5,31.8,28.58,SW,229,6.9,8.3,97,0.00,,---,0.00,VWS V14.01,2013-02-27 08:29:00,
2013-02-27 03:30:00,39.9,39.1,28.44,WNW,292,4.5,6.7,97,0.04,,---,0.04,VWS V14.01,2013-02-27 08:30:00,
2013-02-27 03:31:00,32.5,31.8,28.59,WNW,283,8.7,11.0,97,0.00,,---,0.00,VWS V14.01,2013-02-27 08:31:00,
2013-02-27 03:32:00,32.5,31.8,28.58,WNW,286,4.9,9.6,97,0.00,,---,0.00,VWS V14.01,2013-02-27 08:32:00,
2013-02-27 03:33:00,32.5,31.8,28.58,West,267,9.2,9.6,97,0.00,,---,0.00,VWS V14.01,2013-02-27 08:33:00,
2013-02-27 03:34:00,32.5,31.8,28.59,WSW,247,7.4,11.2,97,0.00,,---,0.00,VWS V14.01,2013-02-27 08:34:00,
2013-02-27 03:35:00,39.7,39.0,28.44,WNW,288,2.7,5.4,97,0.04,,---,0.04,VWS V14.01,2013-02-27 08:35:00,
2013-02-27 03:36:00,32.5,31.8,28.58,West,261,5.8,9.6,97,0.00,,---,0.00,VWS V14.01,2013-02-27 08:36:00,
2013-02-27 03:37:00,32.5,31.8,28.58,WNW,286,5.8,11.0,97,0.00,,---,0.00,VWS V14.01,2013-02-27 08:37:00,
2013-02-27 03:38:00,32.5,31.8,28.58,West,273,4.9,8.7,97,0.00,,---,0.00,VWS V14.01,2013-02-27 08:38:00,
2013-02-27 03:39:00,32.5,31.8,28.58,WNW,282,5.4,7.4,97,0.00,,---,0.00,VWS V14.01,2013-02-27 08:39:00,
2013-02-27 03:40:00,39.6,38.8,28.44,WNW,283,3.6,4.9,97,0.04,,---,0.04,VWS V14.01,2013-02-27 08:40:00,
2013-02-27 03:41:00,32.5,31.8,28.59,WSW,255,4.9,10.1,97,0.00,,---,0.00,VWS V14.01,2013-02-27 08:41:00,
2013-02-27 03:42:00,32.5,31.8,28.58,West,264,6.3,9.2,97,0.00,,---,0.00,VWS V14.01,2013-02-27 08:42:00,
2013-02-27 03:43:00,32.5,31.8,28.59,WNW,286,7.4,9.2,97,0.00,,---,0.00,VWS V14.01,2013-02-27 08:43:00,
2013-02-27 03:44:00,32.5,31.8,28.58,WNW,302,11.2,11.2,97,0.00,,---,0.00,VWS V14.01,2013-02-27 08:44:00,
2013-02-27 03:45:00,39.4,38.6,28.44,West,274,3.1,7.8,97,0.04,,---,0.04,VWS V14.01,2013-02-27 08:45:00,
2013-02-27 03:46:00,32.5,31.8,28.58,West,270,5.4,8.3,97,0.00,,---,0.00,VWS V14.01,2013-02-27 08:46:00,
2013-02-27 03:47:00,32.5,31.8,28.58,WSW,253,4.9,8.3,97,0.00,,---,0.00,VWS V14.01,2013-02-27 08:47:00,
2013-02-27 03:48:00,32.5,31.8,28.58,West,268,6.9,7.8,97,0.00,,---,0.00,VWS V14.01,2013-02-27 08:48:00,
2013-02-27 03:49:00,32.5,31.8,28.59,West,266,13.0,13.0,97,0.00,,---,0.00,VWS V14.01,2013-02-27 08:49:00,
2013-02-27 03:50:00,39.4,38.6,28.44,WSW,243,5.8,6.3,97,0.04,,---,0.04,VWS V14.01,2013-02-27 08:50:00,
2013-02-27 03:51:00,32.5,31.8,28.58,WSW,258,8.3,9.6,97,0.00,,---,0.00,VWS V14.01,2013-02-27 08:51:00,
2013-02-27 03:52:00,32.5,31.8,28.58,SW,231,6.7,11.2,97,0.00,,---,0.00,VWS V14.01,2013-02-27 08:52:00,
2013-02-27 03:53:00,32.5,31.8,28.58,WNW,285,5.8,8.7,97,0.00,,---,0.00,VWS V14.01,2013-02-27 08:53:00,
2013-02-27 03:54:00,32.5,31.8,28.59,WSW,258,6.7,13.0,97,0.00,,---,0.00,VWS V14.01,2013-02-27 08:54:00,
2013-02-27 03:55:00,39.2,38.4,28.44,WSW,258,4.9,7.8,97,0.04,,---,0.04,VWS V14.01,2013-02-27 08:55:00,
2013-02-27 03:56:00,32.7,32.0,28.58,WSW,257,6.3,13.4,97,0.00,,---,0.00,VWS V14.01,2013-02-27 08:56:00,
2013-02-27 03:57:00,32.7,32.0,28.58,WSW,247,7.4,12.1,97,0.00,,---,0.00,VWS V14.01,2013-02-27 08:57:00,
2013-02-27 03:58:00,32.7,32.0,28.58,WNW,287,10.5,10.5,97,0.00,,---,0.00,VWS V14.01,2013-02-27 08:58:00,
2013-02-27 03:59:00,32.7,32.0,28.58,West,263,6.3,10.5,97,0.00,,---,0.00,VWS V14.01,2013-02-27 08:59:00,
2013-02-27 04:00:00,39.2,38.4,28.44,West,261,7.4,9.2,97,0.04,,---,0.04,VWS V14.01,2013-02-27 09:00:00,
2013-02-27 04:01:00,32.7,32.0,28.58,WNW,303,8.3,10.1,97,0.00,,---,0.00,VWS V14.01,2013-02-27 09:01:00,
2013-02-27 04:02:00,32.7,32.0,28.58,WNW,287,6.3,8.7,97,0.00,,---,0.00,VWS V14.01,2013-02-27 09:02:00,
2013-02-27 04:03:00,32.7,32.0,28.58,West,277,7.8,10.5,97,0.00,,---,0.00,VWS V14.01,2013-02-27 09:03:00,
2013-02-27 04:04:00,32.7,32.0,28.58,WSW,242,9.2,11.6,97,0.00,,---,0.00,VWS V14.01,2013-02-27 09:04:00,
2013-02-27 04:05:00,39.2,38.4,28.44,West,270,8.3,9.2,97,0.00,,---,0.04,VWS V14.01,2013-02-27 09:05:00,
2013-02-27 04:06:00,32.7,32.0,28.58,West,269,8.3,13.0,97,0.00,,---,0.00,VWS V14.01,2013-02-27 09:06:00,
2013-02-27 04:07:00,32.7,32.0,28.58,WSW,246,6.9,8.3,97,0.00,,---,0.00,VWS V14.01,2013-02-27 09:07:00,
2013-02-27 04:08:00,32.7,32.0,28.58,West,263,4.0,11.2,97,0.00,,---,0.00,VWS V14.01,2013-02-27 09:08:00,
2013-02-27 04:09:00,32.7,32.0,28.58,NW,313,7.8,7.8,97,0.00,,---,0.00,VWS V14.01,2013-02-27 09:09:00,
2013-02-27 04:10:00,39.2,38.4,28.44,WSW,258,5.8,6.9,97,0.00,,---,0.04,VWS V14.01,2013-02-27 09:10:00,
2013-02-27 04:11:00,32.7,32.0,28.58,West,270,8.3,9.6,97,0.00,,---,0.00,VWS V14.01,2013-02-27 09:11:00,
2013-02-27 04:12:00,32.7,32.0,28.58,West,266,6.7,10.1,97,0.00,,---,0.00,VWS V14.01,2013-02-27 09:12:00,
2013-02-27 04:13:00,32.7,32.0,28.58,West,276,4.9,9.2,97,0.00,,---,0.00,VWS V14.01,2013-02-27 09:13:00,
2013-02-27 04:14:00,32.7,32.0,28.58,West,265,10.5,10.5,97,0.00,,---,0.00,VWS V14.01,2013-02-27 09:14:00,
2013-02-27 04:15:00,32.7,32.0,28.58,West,273,7.8,10.5,97,0.00,,---,0.00,VWS V14.01,2013-02-27 09:15:00,
2013-02-27 04:16:00,39.0,38.2,28.44,WNW,285,4.5,6.9,97,0.00,,---,0.04,VWS V14.01,2013-02-27 09:16:00,
2013-02-27 04:17:00,32.7,32.0,28.58,West,269,6.9,12.1,97,0.00,,---,0.00,VWS V14.01,2013-02-27 09:17:00,
2013-02-27 04:18:00,32.7,32.0,28.58,WSW,253,6.9,13.0,97,0.00,,---,0.00,VWS V14.01,2013-02-27 09:18:00,
2013-02-27 04:19:00,32.7,32.0,28.58,WNW,300,9.6,10.1,97,0.00,,---,0.00,VWS V14.01,2013-02-27 09:19:00,
2013-02-27 04:20:00,32.7,32.0,28.58,WSW,256,9.2,11.2,97,0.00,,---,0.00,VWS V14.01,2013-02-27 09:20:00,
2013-02-27 04:21:00,32.7,32.0,28.56,NW,308,7.8,9.2,97,0.00,,---,0.00,VWS V14.01,2013-02-27 09:21:00,
2013-02-27 04:22:00,32.7,32.0,28.56,WNW,296,11.2,11.2,97,0.00,,---,0.00,VWS V14.01,2013-02-27 09:22:00,
2013-02-27 04:23:00,38.8,38.1,28.44,WSW,251,5.4,9.2,97,0.00,,---,0.04,VWS V14.01,2013-02-27 09:23:00,
2013-02-27 04:24:00,32.7,32.0,28.56,WSW,257,6.7,7.4,97,0.00,,---,0.00,VWS V14.01,2013-02-27 09:24:00,
2013-02-27 04:25:00,32.7,32.0,28.56,West,270,4.5,7.4,97,0.00,,---,0.00,VWS V14.01,2013-02-27 09:25:00,
2013-02-27 04:26:00,32.7,32.0,28.56,WNW,284,6.3,9.2,97,0.00,,---,0.00,VWS V14.01,2013-02-27 09:26:00,
2013-02-27 04:27:00,32.7,32.0,28.56,WNW,296,5.8,8.7,97,0.00,,---,0.00,VWS V14.01,2013-02-27 09:27:00,
2013-02-27 04:28:00,38.8,38.1,28.44,West,262,5.4,5.4,97,0.00,,---,0.04,VWS V14.01,2013-02-27 09:28:00,
2013-02-27 04:29:00,32.7,32.0,28.56,West,281,5.4,7.4,97,0.00,,---,0.00,VWS V14.01,2013-02-27 09:29:00,
2013-02-27 04:30:00,32.9,32.1,28.56,West,277,7.4,10.1,97,0.00,,---,0.00,VWS V14.01,2013-02-27 09:30:00,
2013-02-27 04:31:00,32.9,32.1,28.56,SSW,212,4.9,11.0,97,0.00,,---,0.00,VWS V14.01,2013-02-27 09:31:00,
2013-02-27 04:32:00,32.9,32.1,28.56,WSW,253,4.0,7.4,97,0.00,,---,0.00,VWS V14.01,2013-02-27 09:32:00,
2013-02-27 04:33:00,32.9,32.1,28.56,WNW,298,6.7,10.5,97,0.00,,---,0.00,VWS V14.01,2013-02-27 09:33:00,
2013-02-27 04:34:00,32.9,32.1,28.56,West,266,6.7,8.7,97,0.00,,---,0.00,VWS V14.01,2013-02-27 09:34:00,
2013-02-27 04:35:00,38.8,38.1,28.44,WSW,252,5.4,5.8,97,0.00,,---,0.04,VWS V14.01,2013-02-27 09:35:00,
2013-02-27 04:36:00,32.9,32.1,28.59,WNW,285,3.1,6.9,97,0.00,,---,0.00,VWS V14.01,2013-02-27 09:36:00,
2013-02-27 04:37:00,32.9,32.1,28.58,WSW,246,9.2,9.2,97,0.00,,---,0.00,VWS V14.01,2013-02-27 09:37:00,
2013-02-27 04:38:00,32.9,32.1,28.58,WNW,300,7.8,9.2,97,0.00,,---,0.00,VWS V14.01,2013-02-27 09:38:00,
2013-02-27 04:39:00,32.9,32.1,28.58,NW,305,4.5,10.1,97,0.00,,---,0.00,VWS V14.01,2013-02-27 09:39:00,
2013-02-27 04:40:00,32.9,32.1,28.58,WSW,239,8.7,12.1,97,0.00,,---,0.00,VWS V14.01,2013-02-27 09:40:00,
2013-02-27 04:41:00,32.9,32.1,28.58,WSW,241,7.4,9.2,97,0.00,,---,0.00,VWS V14.01,2013-02-27 09:41:00,
2013-02-27 04:42:00,32.9,32.1,28.58,WNW,294,2.7,8.3,97,0.00,,---,0.00,VWS V14.01,2013-02-27 09:42:00,
2013-02-27 04:43:00,38.8,38.1,28.44,West,270,4.0,4.5,97,0.00,,---,0.04,VWS V14.01,2013-02-27 09:43:00,
2013-02-27 04:44:00,32.9,32.1,28.58,WNW,290,10.1,10.1,97,0.00,,---,0.00,VWS V14.01,2013-02-27 09:44:00,
2013-02-27 04:45:00,32.9,32.1,28.58,WNW,289,7.8,10.1,97,0.00,,---,0.00,VWS V14.01,2013-02-27 09:45:00,
2013-02-27 04:46:00,32.9,32.1,28.58,NW,323,6.9,9.6,97,0.00,,---,0.00,VWS V14.01,2013-02-27 09:46:00,
2013-02-27 04:47:00,32.9,32.1,28.58,WSW,253,9.2,11.0,97,0.00,,---,0.00,VWS V14.01,2013-02-27 09:47:00,
2013-02-27 04:48:00,38.8,38.1,28.44,West,268,3.1,5.8,97,0.00,,---,0.04,VWS V14.01,2013-02-27 09:48:00,
2013-02-27 04:49:00,33.1,32.3,28.58,NW,315,6.9,8.7,97,0.00,,---,0.00,VWS V14.01,2013-02-27 09:49:00,
2013-02-27 04:50:00,33.1,32.3,28.58,NW,307,6.7,10.5,97,0.00,,---,0.00,VWS V14.01,2013-02-27 09:50:00,
2013-02-27 04:51:00,33.1,32.3,28.58,West,281,6.9,7.8,97,0.00,,---,0.00,VWS V14.01,2013-02-27 09:51:00,
2013-02-27 04:52:00,33.1,32.3,28.58,WNW,297,7.8,10.1,97,0.00,,---,0.00,VWS V14.01,2013-02-27 09:52:00,
2013-02-27 04:53:00,38.8,38.1,28.44,West,268,3.6,4.9,97,0.04,,---,0.08,VWS V14.01,2013-02-27 09:53:00,
2013-02-27 04:54:00,33.1,32.3,28.59,NW,310,5.4,10.1,97,0.00,,---,0.00,VWS V14.01,2013-02-27 09:54:00,
2013-02-27 04:55:00,33.1,32.3,28.58,WNW,283,6.9,7.8,97,0.00,,---,0.00,VWS V14.01,2013-02-27 09:55:00,
2013-02-27 04:56:00,33.1,32.3,28.58,WNW,303,11.2,12.5,97,0.00,,---,0.00,VWS V14.01,2013-02-27 09:56:00,
2013-02-27 04:57:00,33.1,32.3,28.58,WNW,288,9.2,12.1,97,0.00,,---,0.00,VWS V14.01,2013-02-27 09:57:00,
2013-02-27 04:58:00,38.7,37.9,28.44,West,270,0.0,5.4,97,0.04,,---,0.08,VWS V14.01,2013-02-27 09:58:00,
2013-02-27 04:59:00,33.1,32.3,28.58,WNW,294,9.2,10.5,97,0.00,,---,0.00,VWS V14.01,2013-02-27 09:59:00,
2013-02-27 05:00:00,33.1,32.3,28.59,WNW,290,4.9,9.2,97,0.00,,---,0.00,VWS V14.01,2013-02-27 10:00:00,
2013-02-27 05:01:00,33.1,32.3,28.58,WNW,302,11.6,11.6,97,0.00,,---,0.00,VWS V14.01,2013-02-27 10:01:00,
2013-02-27 05:02:00,33.1,32.3,28.58,WSW,250,7.4,11.6,97,0.00,,---,0.00,VWS V14.01,2013-02-27 10:02:00,
2013-02-27 05:03:00,38.7,37.9,28.44,WSW,255,4.5,6.3,97,0.04,,---,0.08,VWS V14.01,2013-02-27 10:03:00,
2013-02-27 05:04:00,33.1,32.3,28.58,WSW,238,4.9,9.6,97,0.00,,---,0.00,VWS V14.01,2013-02-27 10:04:00,
2013-02-27 05:05:00,33.1,32.3,28.58,NW,325,4.5,7.4,97,0.00,,---,0.00,VWS V14.01,2013-02-27 10:05:00,
2013-02-27 05:06:00,33.1,32.3,28.58,West,277,10.1,10.5,97,0.00,,---,0.00,VWS V14.01,2013-02-27 10:06:00,
2013-02-27 05:07:00,33.1,32.3,28.58,NW,308,10.5,10.5,97,0.00,,---,0.00,VWS V14.01,2013-02-27 10:07:00,
2013-02-27 05:08:00,33.1,32.3,28.58,NW,304,6.3,10.5,97,0.00,,---,0.00,VWS V14.01,2013-02-27 10:08:00,
2013-02-27 05:09:00,38.7,37.9,28.44,West,276,3.1,5.4,97,0.04,,---,0.08,VWS V14.01,2013-02-27 10:09:00,
2013-02-27 05:10:00,33.1,32.3,28.58,WNW,286,5.8,9.2,97,0.00,,---,0.00,VWS V14.01,2013-02-27 10:10:00,
2013-02-27 05:11:00,33.1,32.3,28.58,NW,307,9.2,13.0,97,0.00,,---,0.00,VWS V14.01,2013-02-27 10:11:00,
2013-02-27 05:12:00,33.1,32.3,28.58,WNW,293,3.6,9.2,97,0.00,,---,0.00,VWS V14.01,2013-02-27 10:12:00,
2013-02-27 05:13:00,33.1,32.3,28.58,West,279,8.7,9.2,97,0.00,,---,0.00,VWS V14.01,2013-02-27 10:13:00,
2013-02-27 05:14:00,38.7,37.9,28.44,West,264,4.5,6.7,97,0.04,,---,0.08,VWS V14.01,2013-02-27 10:14:00,
2013-02-27 05:15:00,33.1,32.3,28.58,WNW,299,4.9,8.7,97,0.00,,---,0.00,VWS V14.01,2013-02-27 10:15:00,
2013-02-27 05:16:00,33.1,32.3,28.58,NW,315,6.7,10.1,97,0.00,,---,0.00,VWS V14.01,2013-02-27 10:16:00,
2013-02-27 05:17:00,33.1,32.3,28.58,West,267,6.9,10.1,97,0.00,,---,0.00,VWS V14.01,2013-02-27 10:17:00,
2013-02-27 05:18:00,33.1,32.3,28.58,West,278,8.7,8.7,97,0.00,,---,0.00,VWS V14.01,2013-02-27 10:18:00,
2013-02-27 05:19:00,38.7,37.9,28.44,West,275,0.0,4.5,97,0.04,,---,0.08,VWS V14.01,2013-02-27 10:19:00,
2013-02-27 05:20:00,33.1,32.3,28.58,WNW,288,4.5,11.0,97,0.00,,---,0.00,VWS V14.01,2013-02-27 10:20:00,
2013-02-27 05:21:00,33.1,32.3,28.58,WNW,293,6.9,8.3,97,0.00,,---,0.00,VWS V14.01,2013-02-27 10:21:00,
2013-02-27 05:22:00,33.1,32.3,28.58,West,269,8.7,8.7,97,0.00,,---,0.00,VWS V14.01,2013-02-27 10:22:00,
2013-02-27 05:23:00,33.1,32.3,28.58,WNW,295,4.5,8.7,97,0.00,,---,0.00,VWS V14.01,2013-02-27 10:23:00,
2013-02-27 05:24:00,38.7,37.9,28.44,WNW,289,5.8,6.7,97,0.04,,---,0.08,VWS V14.01,2013-02-27 10:24:00,
2013-02-27 05:25:00,33.3,32.5,28.58,WNW,301,6.7,8.3,97,0.00,,---,0.00,VWS V14.01,2013-02-27 10:25:00,
2013-02-27 05:26:00,33.3,32.5,28.58,West,262,5.4,10.5,97,0.00,,---,0.00,VWS V14.01,2013-02-27 10:26:00,
2013-02-27 05:27:00,33.3,32.5,28.58,West,274,7.4,9.2,97,0.00,,---,0.00,VWS V14.01,2013-02-27 10:27:00,
2013-02-27 05:28:00,33.3,32.5,28.58,NNW,330,8.3,8.3,97,0.00,,---,0.00,VWS V14.01,2013-02-27 10:28:00,
2013-02-27 05:29:00,38.7,37.9,28.44,West,267,2.7,4.9,97,0.04,,---,0.08,VWS V14.01,2013-02-27 10:29:00,
2013-02-27 05:30:00,33.3,32.5,28.58,WNW,283,3.1,7.4,97,0.00,,---,0.00,VWS V14.01,2013-02-27 10:30:00,
2013-02-27 05:31:00,33.3,32.5,28.59,WNW,295,4.0,6.3,97,0.00,,---,0.00,VWS V14.01,2013-02-27 10:31:00,
2013-02-27 05:32:00,33.3,32.5,28.58,WNW,293,5.8,6.3,97,0.00,,---,0.00,VWS V14.01,2013-02-27 10:32:00,
2013-02-27 05:33:00,33.3,32.5,28.58,West,273,4.5,7.4,97,0.00,,---,0.00,VWS V14.01,2013-02-27 10:33:00,
2013-02-27 05:34:00,38.7,37.9,28.44,WNW,282,2.7,7.8,97,0.04,,---,0.08,VWS V14.01,2013-02-27 10:34:00,
2013-02-27 05:35:00,33.3,32.5,28.58,WNW,299,6.3,8.7,97,0.00,,---,0.00,VWS V14.01,2013-02-27 10:35:00,
2013-02-27 05:36:00,33.3,32.5,28.58,NNW,335,4.9,6.9,97,0.00,,---,0.00,VWS V14.01,2013-02-27 10:36:00,
2013-02-27 05:37:00,33.3,32.5,28.58,NW,304,7.4,9.2,97,0.00,,---,0.00,VWS V14.01,2013-02-27 10:37:00,
2013-02-27 05:38:00,33.3,32.5,28.59,WNW,303,7.4,8.7,97,0.00,,---,0.00,VWS V14.01,2013-02-27 10:38:00,
2013-02-27 05:39:00,33.3,32.5,28.58,West,268,5.4,11.0,97,0.00,,---,0.00,VWS V14.01,2013-02-27 10:39:00,
2013-02-27 05:40:00,38.5,37.7,28.44,West,264,6.3,7.8,97,0.04,,---,0.08,VWS V14.01,2013-02-27 10:40:00,
2013-02-27 05:41:00,33.3,32.5,28.58,NW,310,4.5,8.3,97,0.00,,---,0.00,VWS V14.01,2013-02-27 10:41:00,
2013-02-27 05:42:00,33.3,32.5,28.58,WNW,299,6.3,7.8,97,0.00,,---,0.00,VWS V14.01,2013-02-27 10:42:00,
2013-02-27 05:43:00,33.3,32.5,28.58,West,281,4.0,6.3,97,0.00,,---,0.00,VWS V14.01,2013-02-27 10:43:00,
2013-02-27 05:44:00,33.4,32.7,28.58,WSW,252,6.3,9.6,97,0.00,,---,0.00,VWS V14.01,2013-02-27 10:44:00,
2013-02-27 05:45:00,38.5,37.7,28.44,West,280,9.2,10.1,97,0.04,,---,0.08,VWS V14.01,2013-02-27 10:45:00,
2013-02-27 05:50:00,38.5,37.7,28.44,West,272,9.2,9.2,97,0.04,,---,0.08,VWS V14.01,2013-02-27 10:50:00,
2013-02-27 05:51:00,33.4,32.7,28.59,NW,322,3.6,5.8,97,0.00,,---,0.00,VWS V14.01,2013-02-27 10:51:00,
2013-02-27 05:52:00,33.4,32.7,28.59,WNW,301,3.1,8.7,97,0.00,,---,0.00,VWS V14.01,2013-02-27 10:52:00,
2013-02-27 05:53:00,33.4,32.7,28.59,NW,311,6.9,6.9,97,0.00,,---,0.00,VWS V14.01,2013-02-27 10:53:00,
2013-02-27 05:54:00,33.4,32.7,28.58,NW,315,6.7,8.7,97,0.00,,---,0.00,VWS V14.01,2013-02-27 10:54:00,
2013-02-27 05:55:00,38.5,37.7,28.44,West,259,8.3,10.5,97,0.00,,---,0.08,VWS V14.01,2013-02-27 10:55:00,
2013-02-27 05:56:00,33.6,32.9,28.59,WNW,297,7.4,8.3,97,0.00,,---,0.00,VWS V14.01,2013-02-27 10:56:00,
2013-02-27 05:57:00,33.6,32.9,28.59,WNW,302,8.7,11.0,97,0.00,,---,0.00,VWS V14.01,2013-02-27 10:57:00,
2013-02-27 05:58:00,33.6,32.9,28.59,NW,316,6.9,11.0,97,0.00,,---,0.00,VWS V14.01,2013-02-27 10:58:00,
2013-02-27 05:59:00,33.6,32.9,28.58,WNW,299,5.8,10.1,97,0.00,,---,0.00,VWS V14.01,2013-02-27 10:59:00,
2013-02-27 06:00:00,38.3,37.5,28.47,WSW,237,9.2,13.9,97,0.00,,---,0.08,VWS V14.01,2013-02-27 11:00:00,
2013-02-27 06:01:00,33.6,32.9,28.59,NW,325,4.9,8.3,97,0.00,,---,0.00,VWS V14.01,2013-02-27 11:01:00,
2013-02-27 06:02:00,33.6,32.9,28.59,WNW,301,6.7,6.7,97,0.00,,---,0.00,VWS V14.01,2013-02-27 11:02:00,
2013-02-27 06:03:00,33.6,32.9,28.59,WNW,287,6.9,9.6,97,0.00,,---,0.00,VWS V14.01,2013-02-27 11:03:00,
2013-02-27 06:04:00,33.6,32.9,28.58,WNW,299,7.4,10.1,97,0.00,,---,0.00,VWS V14.01,2013-02-27 11:04:00,
2013-02-27 06:05:00,37.9,37.2,28.47,WNW,282,12.1,13.4,97,0.00,,---,0.08,VWS V14.01,2013-02-27 11:05:00,
2013-02-27 06:06:00,33.6,32.9,28.59,NW,317,5.4,6.7,97,0.00,,---,0.00,VWS V14.01,2013-02-27 11:06:00,
2013-02-27 06:07:00,33.6,32.9,28.59,NW,322,5.4,7.8,97,0.00,,---,0.00,VWS V14.01,2013-02-27 11:07:00,
2013-02-27 06:08:00,33.6,32.9,28.59,West,270,7.4,9.2,97,0.00,,---,0.00,VWS V14.01,2013-02-27 11:08:00,
2013-02-27 06:09:00,33.6,32.9,28.59,West,275,7.4,7.8,97,0.00,,---,0.00,VWS V14.01,2013-02-27 11:09:00,
2013-02-27 06:10:00,33.6,32.9,28.59,West,279,4.9,11.0,97,0.00,,---,0.00,VWS V14.01,2013-02-27 11:10:00,
2013-02-27 06:11:00,33.6,32.9,28.58,NW,322,4.0,6.9,97,0.00,,---,0.00,VWS V14.01,2013-02-27 11:11:00,
2013-02-27 06:12:00,33.6,32.9,28.59,WNW,290,6.7,6.9,97,0.00,,---,0.00,VWS V14.01,2013-02-27 11:12:00,
2013-02-27 06:13:00,37.6,36.8,28.47,West,260,8.7,12.1,97,0.00,,---,0.08,VWS V14.01,2013-02-27 11:13:00,
2013-02-27 06:14:00,33.6,32.9,28.58,NW,304,5.4,9.2,97,0.00,,---,0.00,VWS V14.01,2013-02-27 11:14:00,
2013-02-27 06:15:00,33.6,32.9,28.58,WNW,294,4.0,8.7,97,0.00,,---,0.00,VWS V14.01,2013-02-27 11:15:00,
2013-02-27 06:16:00,33.6,32.9,28.58,WNW,298,5.4,6.7,97,0.00,,---,0.00,VWS V14.01,2013-02-27 11:16:00,
2013-02-27 06:17:00,33.6,32.9,28.59,WNW,295,8.7,8.7,97,0.00,,---,0.00,VWS V14.01,2013-02-27 11:17:00,
2013-02-27 06:18:00,33.6,32.9,28.59,West,273,6.9,8.7,97,0.00,,---,0.00,VWS V14.01,2013-02-27 11:18:00,
2013-02-27 06:19:00,33.6,32.9,28.59,NNW,333,4.9,6.9,97,0.00,,---,0.00,VWS V14.01,2013-02-27 11:19:00,
2013-02-27 06:20:00,33.6,32.9,28.59,NW,308,8.3,10.1,97,0.00,,---,0.00,VWS V14.01,2013-02-27 11:20:00,
2013-02-27 06:21:00,33.6,32.9,28.61,West,266,3.1,9.2,97,0.00,,---,0.00,VWS V14.01,2013-02-27 11:21:00,
2013-02-27 06:22:00,33.6,32.9,28.61,West,274,5.4,6.3,97,0.00,,---,0.00,VWS V14.01,2013-02-27 11:22:00,
2013-02-27 06:23:00,33.6,32.9,28.61,NW,322,5.8,6.7,97,0.00,,---,0.00,VWS V14.01,2013-02-27 11:23:00,
2013-02-27 06:24:00,33.6,32.9,28.61,West,276,8.3,8.3,97,0.00,,---,0.00,VWS V14.01,2013-02-27 11:24:00,
2013-02-27 06:25:00,33.8,33.0,28.61,NNW,327,4.5,9.6,97,0.00,,---,0.00,VWS V14.01,2013-02-27 11:25:00,
2013-02-27 06:26:00,37.2,36.5,28.47,West,279,6.3,9.2,97,0.00,,---,0.08,VWS V14.01,2013-02-27 11:26:00,
2013-02-27 06:27:00,33.8,33.0,28.61,WNW,282,4.5,6.3,97,0.00,,---,0.00,VWS V14.01,2013-02-27 11:27:00,
2013-02-27 06:28:00,33.8,33.0,28.61,NW,306,5.4,6.7,97,0.00,,---,0.00,VWS V14.01,2013-02-27 11:28:00,
2013-02-27 06:29:00,33.8,33.0,28.61,West,277,4.9,5.4,97,0.00,,---,0.00,VWS V14.01,2013-02-27 11:29:00,
2013-02-27 06:30:00,33.8,33.0,28.61,WNW,302,6.3,6.3,97,0.00,,---,0.00,VWS V14.01,2013-02-27 11:30:00,
2013-02-27 06:31:00,33.8,33.0,28.61,NW,309,3.6,6.3,97,0.00,,---,0.00,VWS V14.01,2013-02-27 11:31:00,
2013-02-27 06:32:00,33.8,33.0,28.61,WNW,286,4.5,6.3,97,0.00,,---,0.00,VWS V14.01,2013-02-27 11:32:00,
2013-02-27 06:33:00,37.0,36.3,28.47,WSW,249,6.9,10.5,97,0.00,,---,0.08,VWS V14.01,2013-02-27 11:33:00,
2013-02-27 06:34:00,33.8,33.0,28.61,WSW,258,5.4,7.8,97,0.00,,---,0.00,VWS V14.01,2013-02-27 11:34:00,
2013-02-27 06:35:00,33.8,33.0,28.61,NW,305,4.9,7.8,97,0.00,,---,0.00,VWS V14.01,2013-02-27 11:35:00,
2013-02-27 06:36:00,33.8,33.0,28.61,WNW,293,5.4,5.4,97,0.00,,---,0.00,VWS V14.01,2013-02-27 11:36:00,
2013-02-27 06:37:00,33.8,33.0,28.61,West,278,6.3,7.8,97,0.00,,---,0.00,VWS V14.01,2013-02-27 11:37:00,
2013-02-27 06:38:00,33.8,33.0,28.61,NW,324,6.9,8.3,97,0.00,,---,0.00,VWS V14.01,2013-02-27 11:38:00,
2013-02-27 06:39:00,36.7,35.9,28.47,West,278,11.0,11.2,97,0.00,,---,0.08,VWS V14.01,2013-02-27 11:39:00,
2013-02-27 06:40:00,33.8,33.0,28.61,WNW,284,4.5,8.7,97,0.00,,---,0.00,VWS V14.01,2013-02-27 11:40:00,
2013-02-27 06:41:00,33.8,33.0,28.61,WNW,299,8.3,8.7,97,0.00,,---,0.00,VWS V14.01,2013-02-27 11:41:00,
2013-02-27 06:43:00,33.8,33.0,28.61,WNW,301,4.5,5.8,97,0.00,,---,0.00,VWS V14.01,2013-02-27 11:43:00,
2013-02-27 06:44:00,33.8,33.0,28.61,NW,322,4.5,6.3,97,0.00,,---,0.00,VWS V14.01,2013-02-27 11:44:00,
2013-02-27 06:45:00,33.8,33.0,28.61,NW,311,4.0,9.2,97,0.00,,---,0.00,VWS V14.01,2013-02-27 11:45:00,
2013-02-27 06:46:00,33.8,33.0,28.61,NW,307,4.5,10.1,97,0.00,,---,0.00,VWS V14.01,2013-02-27 11:46:00,
2013-02-27 06:47:00,36.1,35.4,28.47,West,272,13.9,14.3,97,0.00,,---,0.08,VWS V14.01,2013-02-27 11:47:00,
2013-02-27 06:49:00,33.8,33.0,28.61,NW,316,4.5,5.8,97,0.00,,---,0.00,VWS V14.01,2013-02-27 11:49:00,
2013-02-27 06:50:00,33.8,33.0,28.61,North,351,4.9,8.3,97,0.00,,---,0.00,VWS V14.01,2013-02-27 11:50:00,
2013-02-27 06:51:00,33.8,33.0,28.61,WSW,257,5.4,6.9,97,0.00,,---,0.00,VWS V14.01,2013-02-27 11:51:00,
2013-02-27 06:52:00,33.8,33.0,28.61,NNW,329,6.9,9.6,97,0.00,,---,0.00,VWS V14.01,2013-02-27 11:52:00,
2013-02-27 06:53:00,33.8,33.0,28.61,WNW,295,7.8,8.7,97,0.00,,---,0.00,VWS V14.01,2013-02-27 11:53:00,
2013-02-27 06:54:00,33.8,33.0,28.61,NW,305,4.0,7.8,97,0.00,,---,0.00,VWS V14.01,2013-02-27 11:54:00,
2013-02-27 06:55:00,35.8,35.0,28.47,WNW,292,9.6,14.3,97,0.04,,---,0.12,VWS V14.01,2013-02-27 11:55:00,
2013-02-27 06:56:00,33.8,33.0,28.61,NW,316,4.0,8.3,97,0.00,,---,0.00,VWS V14.01,2013-02-27 11:56:00,
2013-02-27 06:57:00,33.8,33.0,28.61,NW,314,6.7,6.7,97,0.00,,---,0.00,VWS V14.01,2013-02-27 11:57:00,
2013-02-27 06:58:00,33.8,33.0,28.61,North,351,5.4,7.4,97,0.00,,---,0.00,VWS V14.01,2013-02-27 11:58:00,
2013-02-27 06:59:00,33.8,33.0,28.61,NW,310,7.8,7.8,97,0.00,,---,0.00,VWS V14.01,2013-02-27 11:59:00,
2013-02-27 07:00:00,34.0,33.2,28.61,WNW,299,4.0,8.3,97,0.00,,---,0.00,VWS V14.01,2013-02-27 12:00:00,
2013-02-27 07:01:00,34.0,33.2,28.61,NW,323,5.4,8.3,97,0.00,,---,0.00,VWS V14.01,2013-02-27 12:01:00,
2013-02-27 07:02:00,34.0,33.2,28.61,NW,310,4.5,6.7,97,0.00,,---,0.00,VWS V14.01,2013-02-27 12:02:00,
2013-02-27 07:03:00,35.4,34.7,28.50,West,279,4.5,9.6,97,0.04,,---,0.12,VWS V14.01,2013-02-27 12:03:00,
2013-02-27 07:04:00,34.0,33.2,28.61,WNW,302,6.3,10.1,97,0.00,,---,0.00,VWS V14.01,2013-02-27 12:04:00,
2013-02-27 07:05:00,34.0,33.2,28.61,NW,323,5.8,6.7,97,0.00,,---,0.00,VWS V14.01,2013-02-27 12:05:00,
2013-02-27 07:06:00,34.0,33.2,28.61,NW,308,5.8,7.8,97,0.00,,---,0.00,VWS V14.01,2013-02-27 12:06:00,
2013-02-27 07:07:00,34.0,33.2,28.61,NW,310,6.9,6.9,97,0.00,,---,0.00,VWS V14.01,2013-02-27 12:07:00,
2013-02-27 07:08:00,34.0,33.2,28.61,WNW,301,6.7,9.2,97,0.00,,---,0.00,VWS V14.01,2013-02-27 12:08:00,
2013-02-27 07:09:00,35.4,34.7,28.50,WSW,252,8.3,12.5,97,0.04,,---,0.12,VWS V14.01,2013-02-27 12:09:00,
2013-02-27 07:10:00,34.0,33.2,28.61,NW,314,7.8,8.3,97,0.00,,---,0.00,VWS V14.01,2013-02-27 12:10:00,
2013-02-27 07:11:00,34.0,33.2,28.61,NW,315,5.4,8.7,97,0.00,,---,0.00,VWS V14.01,2013-02-27 12:11:00,
2013-02-27 07:12:00,34.0,33.2,28.61,NNW,338,4.0,10.1,97,0.00,,---,0.00,VWS V14.01,2013-02-27 12:12:00,
2013-02-27 07:13:00,34.0,33.2,28.61,WNW,302,6.3,8.3,97,0.00,,---,0.00,VWS V14.01,2013-02-27 12:13:00,
2013-02-27 07:14:00,34.0,33.2,28.61,NW,308,8.7,9.6,97,0.00,,---,0.00,VWS V14.01,2013-02-27 12:14:00,
2013-02-27 07:15:00,34.0,33.2,28.61,NW,324,5.8,9.2,97,0.00,,---,0.00,VWS V14.01,2013-02-27 12:15:00,
2013-02-27 07:16:00,34.0,33.2,28.61,NW,304,6.3,6.9,97,0.00,,---,0.00,VWS V14.01,2013-02-27 12:16:00,
2013-02-27 07:17:00,34.0,33.2,28.61,NW,310,4.0,8.3,97,0.00,,---,0.00,VWS V14.01,2013-02-27 12:17:00,
2013-02-27 07:18:00,34.0,33.2,28.61,West,266,6.9,6.9,97,0.00,,---,0.00,VWS V14.01,2013-02-27 12:18:00,
2013-02-27 07:19:00,34.0,33.2,28.61,NW,311,8.3,11.6,97,0.00,,---,0.00,VWS V14.01,2013-02-27 12:19:00,
2013-02-27 07:20:00,34.0,33.2,28.61,NW,322,4.5,8.3,97,0.00,,---,0.00,VWS V14.01,2013-02-27 12:20:00,
2013-02-27 07:21:00,34.0,33.2,28.61,NW,321,8.7,8.7,97,0.00,,---,0.00,VWS V14.01,2013-02-27 12:21:00,
2013-02-27 07:22:00,35.4,34.7,28.50,WSW,258,10.1,14.8,97,0.04,,---,0.12,VWS V14.01,2013-02-27 12:22:00,
2013-02-27 07:23:00,34.0,33.2,28.61,WNW,298,6.7,7.8,97,0.00,,---,0.00,VWS V14.01,2013-02-27 12:23:00,
2013-02-27 07:24:00,34.0,33.2,28.61,NW,325,6.7,6.9,97,0.00,,---,0.00,VWS V14.01,2013-02-27 12:24:00,
2013-02-27 07:25:00,34.0,33.2,28.61,NNW,343,5.4,9.2,97,0.00,,---,0.00,VWS V14.01,2013-02-27 12:25:00,
2013-02-27 07:26:00,34.0,33.2,28.61,WNW,300,6.7,8.3,97,0.00,,---,0.00,VWS V14.01,2013-02-27 12:26:00,
2013-02-27 07:27:00,35.2,34.5,28.50,WSW,240,9.6,13.4,97,0.04,,---,0.12,VWS V14.01,2013-02-27 12:27:00,
2013-02-27 07:28:00,34.0,33.2,28.61,West,263,6.9,8.7,97,0.00,,---,0.00,VWS V14.01,2013-02-27 12:28:00,
2013-02-27 07:29:00,34.0,33.2,28.61,WNW,284,5.8,9.6,97,0.00,,---,0.00,VWS V14.01,2013-02-27 12:29:00,
2013-02-27 07:30:00,34.0,33.2,28.61,WNW,293,6.3,8.3,97,0.00,,---,0.00,VWS V14.01,2013-02-27 12:30:00,
2013-02-27 07:31:00,34.0,33.2,28.61,West,267,7.4,11.0,97,0.00,,---,0.00,VWS V14.01,2013-02-27 12:31:00,
2013-02-27 07:32:00,34.0,33.2,28.61,WSW,255,6.9,10.1,97,0.00,,---,0.00,VWS V14.01,2013-02-27 12:32:00,
2013-02-27 07:33:00,34.0,33.2,28.61,WNW,301,4.9,6.9,97,0.00,,---,0.00,VWS V14.01,2013-02-27 12:33:00,
2013-02-27 07:34:00,34.0,33.2,28.61,WNW,292,6.9,11.2,97,0.00,,---,0.00,VWS V14.01,2013-02-27 12:34:00,
2013-02-27 07:35:00,34.0,33.2,28.61,WNW,298,6.9,8.7,97,0.00,,---,0.00,VWS V14.01,2013-02-27 12:35:00,
2013-02-27 07:36:00,35.1,34.3,28.50,SW,231,6.9,12.1,97,0.04,,---,0.12,VWS V14.01,2013-02-27 12:36:00,
2013-02-27 07:37:00,34.0,33.2,28.61,NW,310,5.8,7.8,97,0.00,,---,0.00,VWS V14.01,2013-02-27 12:37:00,
2013-02-27 07:38:00,34.0,33.2,28.61,NW,308,5.4,6.3,97,0.00,,---,0.00,VWS V14.01,2013-02-27 12:38:00,
2013-02-27 07:39:00,34.0,33.2,28.61,WNW,283,7.4,7.8,97,0.00,,---,0.00,VWS V14.01,2013-02-27 12:39:00,
2013-02-27 07:40:00,34.0,33.2,28.61,NW,317,4.5,7.4,97,0.00,,---,0.00,VWS V14.01,2013-02-27 12:40:00,
2013-02-27 07:41:00,35.1,34.3,28.50,WSW,256,6.3,7.8,97,0.04,,---,0.12,VWS V14.01,2013-02-27 12:41:00,
2013-02-27 07:42:00,34.0,33.2,28.61,WNW,299,8.3,9.2,97,0.00,,---,0.00,VWS V14.01,2013-02-27 12:42:00,
2013-02-27 07:43:00,34.0,33.2,28.61,WNW,291,9.2,12.1,97,0.00,,---,0.00,VWS V14.01,2013-02-27 12:43:00,
2013-02-27 07:44:00,34.0,33.2,28.61,NNW,334,4.9,10.1,97,0.00,,---,0.00,VWS V14.01,2013-02-27 12:44:00,
2013-02-27 07:45:00,34.0,33.2,28.61,WNW,282,8.7,9.6,97,0.00,,---,0.00,VWS V14.01,2013-02-27 12:45:00,
2013-02-27 07:46:00,35.1,34.3,28.50,SW,233,8.7,9.6,97,0.04,,---,0.12,VWS V14.01,2013-02-27 12:46:00,
2013-02-27 07:47:00,34.0,33.2,28.61,NNW,328,4.0,7.8,97,0.00,,---,0.00,VWS V14.01,2013-02-27 12:47:00,
2013-02-27 07:48:00,34.0,33.2,28.61,WNW,286,6.3,10.1,97,0.00,,---,0.00,VWS V14.01,2013-02-27 12:48:00,
2013-02-27 07:49:00,34.0,33.2,28.61,NW,318,5.4,10.5,97,0.00,,---,0.00,VWS V14.01,2013-02-27 12:49:00,
2013-02-27 07:50:00,34.0,33.2,28.61,NW,314,8.3,9.6,97,0.00,,---,0.00,VWS V14.01,2013-02-27 12:50:00,
2013-02-27 07:51:00,35.1,34.3,28.50,West,273,7.8,9.2,97,0.04,,---,0.12,VWS V14.01,2013-02-27 12:51:00,
2013-02-27 07:52:00,34.2,33.4,28.61,NW,304,8.7,9.2,97,0.00,,---,0.00,VWS V14.01,2013-02-27 12:52:00,
2013-02-27 07:53:00,34.2,33.4,28.61,NW,321,8.3,8.7,97,0.00,,---,0.00,VWS V14.01,2013-02-27 12:53:00,
2013-02-27 07:54:00,34.2,33.4,28.61,NW,304,4.0,8.3,97,0.00,,---,0.00,VWS V14.01,2013-02-27 12:54:00,
2013-02-27 07:55:00,34.2,33.4,28.61,NNW,328,5.4,5.4,97,0.00,,---,0.00,VWS V14.01,2013-02-27 12:55:00,
2013-02-27 07:56:00,35.1,34.3,28.50,West,279,8.3,9.6,97,0.00,,---,0.12,VWS V14.01,2013-02-27 12:56:00,
2013-02-27 07:57:00,34.2,33.4,28.61,NW,311,4.9,10.1,97,0.00,,---,0.00,VWS V14.01,2013-02-27 12:57:00,
2013-02-27 07:58:00,34.2,33.4,28.61,NW,320,4.9,7.8,97,0.00,,---,0.00,VWS V14.01,2013-02-27 12:58:00,
2013-02-27 07:59:00,34.2,33.4,28.61,NW,318,5.4,5.4,97,0.00,,---,0.00,VWS V14.01,2013-02-27 12:59:00,
2013-02-27 08:00:00,34.2,33.4,28.61,North,351,5.4,7.4,97,0.00,,---,0.00,VWS V14.01,2013-02-27 13:00:00,
2013-02-27 08:01:00,35.1,34.3,28.50,West,266,4.9,7.8,97,0.00,,---,0.12,VWS V14.01,2013-02-27 13:01:00,
2013-02-27 08:02:00,34.2,33.4,28.61,NNW,330,6.9,7.4,97,0.00,,---,0.00,VWS V14.01,2013-02-27 13:02:00,
2013-02-27 08:03:00,34.2,33.4,28.61,NW,308,6.7,7.8,97,0.00,,---,0.00,VWS V14.01,2013-02-27 13:03:00,
2013-02-27 08:04:00,34.2,33.4,28.61,WSW,237,6.7,7.8,97,0.00,,---,0.00,VWS V14.01,2013-02-27 13:04:00,
2013-02-27 08:05:00,34.2,33.4,28.61,NW,311,4.5,7.8,97,0.00,,---,0.00,VWS V14.01,2013-02-27 13:05:00,
2013-02-27 08:06:00,34.2,33.4,28.61,WNW,302,6.7,10.1,97,0.00,,---,0.00,VWS V14.01,2013-02-27 13:06:00,
2013-02-27 08:07:00,35.1,34.3,28.50,WSW,247,5.8,6.3,97,0.00,,---,0.12,VWS V14.01,2013-02-27 13:07:00,
2013-02-27 08:08:00,34.2,33.4,28.61,WNW,297,5.4,8.7,97,0.00,,---,0.00,VWS V14.01,2013-02-27 13:08:00,
2013-02-27 08:09:00,34.2,33.4,28.61,WNW,301,6.3,7.4,97,0.00,,---,0.00,VWS V14.01,2013-02-27 13:09:00,
2013-02-27 08:10:00,34.2,33.4,28.61,NW,321,5.8,7.8,97,0.00,,---,0.00,VWS V14.01,2013-02-27 13:10:00,
2013-02-27 08:11:00,34.2,33.4,28.61,WNW,299,5.4,10.1,97,0.00,,---,0.00,VWS V14.01,2013-02-27 13:11:00,
2013-02-27 08:12:00,35.1,34.3,28.53,SW,223,7.4,8.7,97,0.00,,---,0.12,VWS V14.01,2013-02-27 13:12:00,
2013-02-27 08:13:00,34.2,33.4,28.61,NNW,339,5.8,8.3,97,0.00,,---,0.00,VWS V14.01,2013-02-27 13:13:00,
2013-02-27 08:14:00,34.2,33.4,28.61,NW,321,4.9,5.8,97,0.00,,---,0.00,VWS V14.01,2013-02-27 13:14:00,
2013-02-27 08:15:00,34.2,33.4,28.61,NW,324,4.0,7.8,97,0.00,,---,0.00,VWS V14.01,2013-02-27 13:15:00,
2013-02-27 08:16:00,34.2,33.4,28.61,WNW,303,7.4,8.7,97,0.00,,---,0.00,VWS V14.01,2013-02-27 13:16:00,
2013-02-27 08:17:00,35.1,34.3,28.53,WSW,250,7.4,11.2,97,0.00,,---,0.12,VWS V14.01,2013-02-27 13:17:00,
2013-02-27 08:18:00,34.2,33.4,28.61,NNW,338,4.5,6.7,97,0.00,,---,0.00,VWS V14.01,2013-02-27 13:18:00,
2013-02-27 08:19:00,34.2,33.4,28.61,NNW,335,5.4,8.7,97,0.00,,---,0.00,VWS V14.01,2013-02-27 13:19:00,
2013-02-27 08:20:00,34.2,33.4,28.61,NNW,328,4.9,6.9,97,0.00,,---,0.00,VWS V14.01,2013-02-27 13:20:00,
2013-02-27 08:21:00,34.2,33.4,28.64,NW,318,6.9,9.2,97,0.00,,---,0.00,VWS V14.01,2013-02-27 13:21:00,
2013-02-27 08:22:00,35.1,34.3,28.53,West,277,6.7,6.7,97,0.00,,---,0.12,VWS V14.01,2013-02-27 13:22:00,
2013-02-27 08:23:00,34.2,33.4,28.64,NW,320,6.7,7.8,97,0.00,,---,0.00,VWS V14.01,2013-02-27 13:23:00,
2013-02-27 08:24:00,34.2,33.4,28.64,NW,309,6.7,10.1,97,0.00,,---,0.00,VWS V14.01,2013-02-27 13:24:00,
2013-02-27 08:25:00,34.2,33.4,28.64,WNW,303,7.4,9.2,97,0.00,,---,0.00,VWS V14.01,2013-02-27 13:25:00,
2013-02-27 08:26:00,34.2,33.4,28.64,NNW,329,6.3,8.3,97,0.00,,---,0.00,VWS V14.01,2013-02-27 13:26:00,
2013-02-27 08:27:00,35.1,34.3,28.53,WSW,250,4.9,8.3,97,0.00,,---,0.12,VWS V14.01,2013-02-27 13:27:00,
2013-02-27 08:28:00,34.2,33.4,28.64,NNW,341,5.8,7.8,97,0.00,,---,0.00,VWS V14.01,2013-02-27 13:28:00,
2013-02-27 08:29:00,34.2,33.4,28.64,North,351,6.3,7.4,97,0.00,,---,0.00,VWS V14.01,2013-02-27 13:29:00,
2013-02-27 08:30:00,34.2,33.4,28.64,NW,308,7.4,10.5,97,0.00,,---,0.00,VWS V14.01,2013-02-27 13:30:00,
2013-02-27 08:31:00,34.2,33.4,28.64,NW,319,5.8,9.2,97,0.00,,---,0.00,VWS V14.01,2013-02-27 13:31:00,
2013-02-27 08:32:00,35.1,34.3,28.53,WNW,301,6.3,12.1,97,0.00,,---,0.12,VWS V14.01,2013-02-27 13:32:00,
2013-02-27 08:33:00,34.2,33.4,28.64,NNW,333,5.4,6.9,97,0.00,,---,0.00,VWS V14.01,2013-02-27 13:33:00,
2013-02-27 08:34:00,34.2,33.4,28.64,WNW,302,6.9,7.8,97,0.00,,---,0.00,VWS V14.01,2013-02-27 13:34:00,
2013-02-27 08:35:00,34.2,33.4,28.64,NW,310,7.4,7.4,97,0.00,,---,0.00,VWS V14.01,2013-02-27 13:35:00,
2013-02-27 08:37:00,35.1,34.3,28.53,WSW,255,8.7,10.1,97,0.00,,---,0.12,VWS V14.01,2013-02-27 13:37:00,
2013-02-27 08:42:00,35.1,34.3,28.53,WSW,253,7.4,8.7,97,0.00,,---,0.12,VWS V14.01,2013-02-27 13:42:00,
2013-02-27 08:44:00,34.2,33.4,28.64,NW,324,5.4,8.3,97,0.00,,---,0.00,VWS V14.01,2013-02-27 13:44:00,
2013-02-27 08:45:00,34.2,33.4,28.64,NNW,327,6.3,6.7,97,0.00,,---,0.00,VWS V14.01,2013-02-27 13:45:00,
2013-02-27 08:47:00,35.1,34.3,28.53,WSW,237,9.2,12.5,97,0.00,,---,0.12,VWS V14.01,2013-02-27 13:47:00,
2013-02-27 08:48:00,34.2,33.4,28.64,West,280,6.3,6.3,97,0.00,,---,0.00,VWS V14.01,2013-02-27 13:48:00,
2013-02-27 08:49:00,34.2,33.4,28.64,WNW,294,6.3,6.7,97,0.00,,---,0.00,VWS V14.01,2013-02-27 13:49:00,
2013-02-27 08:50:00,34.2,33.4,28.64,WNW,298,6.3,8.7,97,0.00,,---,0.00,VWS V14.01,2013-02-27 13:50:00,
2013-02-27 08:51:00,34.2,33.4,28.64,North,2,4.9,9.2,97,0.00,,---,0.00,VWS V14.01,2013-02-27 13:51:00,
2013-02-27 08:52:00,35.1,34.3,28.53,West,267,10.5,12.1,97,0.00,,---,0.12,VWS V14.01,2013-02-27 13:52:00,
2013-02-27 08:53:00,34.2,33.4,28.64,NW,314,7.4,9.6,97,0.00,,---,0.00,VWS V14.01,2013-02-27 13:53:00,
2013-02-27 08:54:00,34.2,33.4,28.64,NW,311,6.7,7.8,97,0.00,,---,0.00,VWS V14.01,2013-02-27 13:54:00,
2013-02-27 08:55:00,34.2,33.4,28.64,NW,320,6.3,6.7,97,0.00,,---,0.00,VWS V14.01,2013-02-27 13:55:00,
2013-02-27 08:56:00,34.3,33.6,28.64,NNW,327,6.3,6.9,97,0.00,,---,0.00,VWS V14.01,2013-02-27 13:56:00,
2013-02-27 08:57:00,35.1,34.3,28.53,WNW,286,13.9,13.9,97,0.00,,---,0.12,VWS V14.01,2013-02-27 13:57:00,
2013-02-27 08:58:00,34.3,33.6,28.64,NNW,333,4.9,6.9,97,0.00,,---,0.00,VWS V14.01,2013-02-27 13:58:00,
2013-02-27 08:59:00,34.3,33.6,28.64,NNW,343,6.7,7.4,97,0.00,,---,0.00,VWS V14.01,2013-02-27 13:59:00,
2013-02-27 09:00:00,34.3,33.6,28.64,NNW,333,6.7,10.5,97,0.00,,---,0.00,VWS V14.01,2013-02-27 14:00:00,
2013-02-27 09:01:00,34.3,33.6,28.64,WNW,300,7.8,7.8,97,0.00,,---,0.00,VWS V14.01,2013-02-27 14:01:00,
2013-02-27 09:02:00,34.3,33.6,28.64,NW,313,4.9,7.8,97,0.00,,---,0.00,VWS V14.01,2013-02-27 14:02:00,
2013-02-27 09:03:00,34.3,33.6,28.64,NNW,339,6.3,8.7,97,0.00,,---,0.00,VWS V14.01,2013-02-27 14:03:00,
2013-02-27 09:04:00,34.2,33.4,28.64,NW,310,5.4,7.8,97,0.00,,---,0.00,VWS V14.01,2013-02-27 14:04:00,
2013-02-27 09:05:00,34.3,33.6,28.64,NW,315,4.5,8.7,97,0.00,,---,0.00,VWS V14.01,2013-02-27 14:05:00,
2013-02-27 09:06:00,34.3,33.6,28.64,NNW,332,5.4,6.7,97,0.00,,---,0.00,VWS V14.01,2013-02-27 14:06:00,
2013-02-27 09:07:00,34.7,33.9,28.53,WSW,237,7.8,9.2,97,0.00,,---,0.12,VWS V14.01,2013-02-27 14:07:00,
2013-02-27 09:08:00,34.3,33.6,28.64,NW,317,3.6,8.3,97,0.00,,---,0.00,VWS V14.01,2013-02-27 14:08:00,
2013-02-27 09:09:00,34.3,33.6,28.64,NNW,336,7.8,7.8,97,0.00,,---,0.00,VWS V14.01,2013-02-27 14:09:00,
2013-02-27 09:10:00,34.2,33.4,28.64,NNW,332,10.5,10.5,97,0.00,,---,0.00,VWS V14.01,2013-02-27 14:10:00,
2013-02-27 09:11:00,34.2,33.4,28.64,NNW,327,4.0,10.5,97,0.00,,---,0.00,VWS V14.01,2013-02-27 14:11:00,
2013-02-27 09:12:00,34.2,33.4,28.64,SW,228,4.5,6.9,97,0.00,,---,0.00,VWS V14.01,2013-02-27 14:12:00,
2013-02-27 09:13:00,34.9,34.1,28.53,SW,227,8.3,8.3,97,0.00,,---,0.12,VWS V14.01,2013-02-27 14:13:00,
2013-02-27 09:14:00,34.3,33.6,28.64,NNW,327,5.8,6.9,97,0.00,,---,0.00,VWS V14.01,2013-02-27 14:14:00,
2013-02-27 09:15:00,34.3,33.6,28.64,NW,312,6.3,8.7,97,0.00,,---,0.00,VWS V14.01,2013-02-27 14:15:00,
2013-02-27 09:16:00,34.3,33.6,28.64,NW,318,5.4,7.4,97,0.00,,---,0.00,VWS V14.01,2013-02-27 14:16:00,
2013-02-27 09:17:00,34.2,33.4,28.64,WNW,295,6.3,7.4,97,0.00,,---,0.00,VWS V14.01,2013-02-27 14:17:00,
2013-02-27 09:18:00,34.9,34.1,28.53,WSW,246,10.5,10.5,97,0.00,,---,0.12,VWS V14.01,2013-02-27 14:18:00,
2013-02-27 09:19:00,34.2,33.4,28.64,NW,317,4.5,8.3,97,0.00,,---,0.00,VWS V14.01,2013-02-27 14:19:00,
2013-02-27 09:20:00,34.2,33.4,28.64,NW,324,4.9,7.4,97,0.00,,---,0.00,VWS V14.01,2013-02-27 14:20:00,
2013-02-27 09:21:00,34.2,33.4,28.67,NW,321,4.0,6.3,97,0.00,,---,0.00,VWS V14.01,2013-02-27 14:21:00,
2013-02-27 09:22:00,34.2,33.4,28.67,NNW,327,4.5,6.7,97,0.00,,---,0.00,VWS V14.01,2013-02-27 14:22:00,
2013-02-27 09:23:00,34.9,34.1,28.53,West,261,0.0,9.6,97,0.00,,---,0.12,VWS V14.01,2013-02-27 14:23:00,
2013-02-27 09:24:00,34.2,33.4,28.67,NNW,330,5.4,5.4,97,0.00,,---,0.00,VWS V14.01,2013-02-27 14:24:00,
2013-02-27 09:25:00,34.2,33.4,28.67,North,351,6.7,7.4,97,0.00,,---,0.00,VWS V14.01,2013-02-27 14:25:00,
2013-02-27 09:26:00,34.3,33.6,28.67,NW,319,7.4,9.6,97,0.00,,---,0.00,VWS V14.01,2013-02-27 14:26:00,
2013-02-27 09:27:00,34.2,33.4,28.67,WNW,296,5.4,7.4,97,0.00,,---,0.00,VWS V14.01,2013-02-27 14:27:00,
2013-02-27 09:28:00,34.2,33.4,28.67,NNW,337,6.3,7.4,97,0.00,,---,0.00,VWS V14.01,2013-02-27 14:28:00,
2013-02-27 09:29:00,34.2,33.4,28.67,WNW,293,7.8,7.8,97,0.00,,---,0.00,VWS V14.01,2013-02-27 14:29:00,
2013-02-27 09:30:00,34.9,34.1,28.53,SSW,198,8.7,11.2,97,0.00,,---,0.12,VWS V14.01,2013-02-27 14:30:00,
2013-02-27 09:31:00,34.2,33.4,28.67,NNW,337,6.9,6.9,97,0.00,,---,0.00,VWS V14.01,2013-02-27 14:31:00,
2013-02-27 09:32:00,34.2,33.4,28.67,NW,323,4.9,7.4,97,0.00,,---,0.00,VWS V14.01,2013-02-27 14:32:00,
2013-02-27 09:33:00,34.2,33.4,28.67,NNW,331,4.9,7.4,97,0.00,,---,0.00,VWS V14.01,2013-02-27 14:33:00,
2013-02-27 09:34:00,34.2,33.4,28.67,NNW,332,5.8,6.7,97,0.00,,---,0.00,VWS V14.01,2013-02-27 14:34:00,
2013-02-27 09:35:00,34.2,33.4,28.67,NW,322,5.4,7.4,97,0.00,,---,0.00,VWS V14.01,2013-02-27 14:35:00,
2013-02-27 09:36:00,34.3,33.6,28.67,NW,310,5.8,6.9,97,0.00,,---,0.00,VWS V14.01,2013-02-27 14:36:00,
2013-02-27 09:37:00,34.2,33.4,28.67,NW,314,6.9,8.7,97,0.00,,---,0.00,VWS V14.01,2013-02-27 14:37:00,
2013-02-27 09:38:00,34.2,33.4,28.67,NW,305,5.4,6.9,97,0.00,,---,0.00,VWS V14.01,2013-02-27 14:38:00,
2013-02-27 09:39:00,34.2,33.4,28.67,NW,304,6.9,8.7,97,0.00,,---,0.00,VWS V14.01,2013-02-27 14:39:00,
2013-02-27 09:40:00,34.2,33.4,28.67,NNW,329,6.3,8.3,97,0.00,,---,0.00,VWS V14.01,2013-02-27 14:40:00,
2013-02-27 09:41:00,34.2,33.4,28.67,NNW,339,6.7,6.7,97,0.00,,---,0.00,VWS V14.01,2013-02-27 14:41:00,
2013-02-27 09:42:00,34.7,33.9,28.53,West,265,6.9,8.3,97,0.00,,---,0.12,VWS V14.01,2013-02-27 14:42:00,
2013-02-27 09:43:00,34.2,33.4,28.67,NW,319,6.3,6.9,97,0.00,,---,0.00,VWS V14.01,2013-02-27 14:43:00,
2013-02-27 09:44:00,34.2,33.4,28.67,NW,319,5.4,6.7,97,0.00,,---,0.00,VWS V14.01,2013-02-27 14:44:00,
2013-02-27 09:45:00,34.2,33.4,28.67,NW,316,3.6,7.4,97,0.00,,---,0.00,VWS V14.01,2013-02-27 14:45:00,
2013-02-27 09:46:00,34.2,33.4,28.67,NNW,335,6.3,8.3,97,0.00,,---,0.00,VWS V14.01,2013-02-27 14:46:00,
2013-02-27 09:47:00,34.9,34.1,28.53,West,270,8.7,9.6,97,0.00,,---,0.12,VWS V14.01,2013-02-27 14:47:00,
2013-02-27 09:48:00,34.2,33.4,28.67,NNW,332,6.7,9.2,97,0.00,,---,0.00,VWS V14.01,2013-02-27 14:48:00,
2013-02-27 09:49:00,34.2,33.4,28.67,NW,318,5.8,7.4,97,0.00,,---,0.00,VWS V14.01,2013-02-27 14:49:00,
2013-02-27 09:50:00,34.2,33.4,28.67,NW,325,5.4,5.8,97,0.00,,---,0.00,VWS V14.01,2013-02-27 14:50:00,
2013-02-27 09:51:00,34.2,33.4,28.67,NNW,332,4.9,7.4,97,0.00,,---,0.00,VWS V14.01,2013-02-27 14:51:00,
2013-02-27 09:52:00,34.9,34.1,28.53,SW,222,5.8,13.0,97,0.00,,---,0.12,VWS V14.01,2013-02-27 14:52:00,
2013-02-27 09:53:00,34.2,33.4,28.67,NNW,327,10.5,10.5,97,0.00,,---,0.00,VWS V14.01,2013-02-27 14:53:00,
2013-02-27 09:54:00,34.2,33.4,28.67,NW,318,5.8,10.5,97,0.00,,---,0.00,VWS V14.01,2013-02-27 14:54:00,
2013-02-27 09:55:00,34.2,33.4,28.67,NW,326,5.8,7.4,97,0.00,,---,0.00,VWS V14.01,2013-02-27 14:55:00,
2013-02-27 09:56:00,34.2,33.4,28.67,NW,320,3.6,6.7,97,0.00,,---,0.00,VWS V14.01,2013-02-27 14:56:00,
2013-02-27 09:57:00,34.9,34.1,28.53,WSW,245,7.4,11.6,97,0.00,,---,0.12,VWS V14.01,2013-02-27 14:57:00,
2013-02-27 09:58:00,34.2,33.4,28.67,NNW,337,6.9,8.3,97,0.00,,---,0.00,VWS V14.01,2013-02-27 14:58:00,
2013-02-27 09:59:00,34.2,33.4,28.67,NW,308,4.0,7.4,97,0.00,,---,0.00,VWS V14.01,2013-02-27 14:59:00,
2013-02-27 10:00:00,34.2,33.4,28.67,NNW,329,6.3,6.9,97,0.00,,---,0.00,VWS V14.01,2013-02-27 15:00:00,
2013-02-27 10:01:00,34.2,33.4,28.67,NW,317,3.6,6.9,97,0.00,,---,0.00,VWS V14.01,2013-02-27 15:01:00,
2013-02-27 10:02:00,34.2,33.4,28.67,WNW,297,4.5,7.8,97,0.00,,---,0.00,VWS V14.01,2013-02-27 15:02:00,
2013-02-27 10:03:00,34.2,33.4,28.67,NW,323,6.7,8.3,97,0.00,,---,0.00,VWS V14.01,2013-02-27 15:03:00,
2013-02-27 10:04:00,34.7,33.9,28.53,West,259,8.7,13.4,97,0.00,,---,0.12,VWS V14.01,2013-02-27 15:04:00,
2013-02-27 10:05:00,34.2,33.4,28.67,NNW,331,5.4,6.9,97,0.00,,---,0.00,VWS V14.01,2013-02-27 15:05:00,
2013-02-27 10:06:00,34.2,33.4,28.67,NNW,334,5.4,6.3,97,0.00,,---,0.00,VWS V14.01,2013-02-27 15:06:00,
2013-02-27 10:07:00,34.2,33.4,28.67,NW,322,4.0,8.7,97,0.00,,---,0.00,VWS V14.01,2013-02-27 15:07:00,
2013-02-27 10:08:00,34.2,33.4,28.67,NNW,333,6.7,8.3,97,0.00,,---,0.00,VWS V14.01,2013-02-27 15:08:00,
2013-02-27 10:09:00,34.7,33.9,28.53,West,269,5.4,9.6,97,0.00,,---,0.12,VWS V14.01,2013-02-27 15:09:00,
2013-02-27 10:10:00,34.2,33.4,28.67,NW,308,3.1,6.7,97,0.00,,---,0.00,VWS V14.01,2013-02-27 15:10:00,
2013-02-27 10:11:00,34.2,33.4,28.67,NW,320,6.7,7.8,97,0.00,,---,0.00,VWS V14.01,2013-02-27 15:11:00,
2013-02-27 10:12:00,34.2,33.4,28.67,NW,319,7.4,7.8,97,0.00,,---,0.00,VWS V14.01,2013-02-27 15:12:00,
2013-02-27 10:13:00,34.2,33.4,28.67,NNW,342,5.4,8.7,97,0.00,,---,0.00,VWS V14.01,2013-02-27 15:13:00,
2013-02-27 10:14:00,34.9,34.1,28.53,WSW,245,10.1,11.6,97,0.00,,---,0.12,VWS V14.01,2013-02-27 15:14:00,
2013-02-27 10:15:00,34.2,33.4,28.67,NW,321,5.8,6.3,97,0.00,,---,0.00,VWS V14.01,2013-02-27 15:15:00,
2013-02-27 10:16:00,34.2,33.4,28.67,NNW,328,4.9,6.3,97,0.00,,---,0.00,VWS V14.01,2013-02-27 15:16:00,
2013-02-27 10:17:00,34.2,33.4,28.67,NNW,339,5.4,6.3,97,0.00,,---,0.00,VWS V14.01,2013-02-27 15:17:00,
2013-02-27 10:18:00,34.2,33.4,28.67,NW,318,4.5,5.4,97,0.00,,---,0.00,VWS V14.01,2013-02-27 15:18:00,
2013-02-27 10:19:00,34.9,34.1,28.53,SW,219,7.4,13.9,97,0.00,,---,0.12,VWS V14.01,2013-02-27 15:19:00,
2013-02-27 10:20:00,34.2,33.4,28.67,North,11,6.3,6.9,97,0.00,,---,0.00,VWS V14.01,2013-02-27 15:20:00,
2013-02-27 10:21:00,34.2,33.4,28.67,NNW,328,5.8,6.7,97,0.00,,---,0.00,VWS V14.01,2013-02-27 15:21:00,
2013-02-27 10:22:00,34.2,33.4,28.67,NNW,343,7.4,7.4,97,0.00,,---,0.00,VWS V14.01,2013-02-27 15:22:00,
2013-02-27 10:23:00,34.2,33.4,28.67,NW,317,8.7,9.6,97,0.00,,---,0.00,VWS V14.01,2013-02-27 15:23:00,
2013-02-27 10:24:00,34.2,33.4,28.67,NNW,329,5.8,8.7,97,0.00,,---,0.00,VWS V14.01,2013-02-27 15:24:00,
2013-02-27 10:25:00,34.2,33.4,28.67,NNW,334,5.4,6.9,97,0.00,,---,0.00,VWS V14.01,2013-02-27 15:25:00,
2013-02-27 10:26:00,34.2,33.4,28.67,NNW,328,6.3,6.7,97,0.00,,---,0.00,VWS V14.01,2013-02-27 15:26:00,
2013-02-27 10:27:00,34.2,33.4,28.67,NW,311,6.9,7.8,97,0.00,,---,0.00,VWS V14.01,2013-02-27 15:27:00,
2013-02-27 10:28:00,34.2,33.4,28.67,NNW,340,4.9,7.8,97,0.00,,---,0.00,VWS V14.01,2013-02-27 15:28:00,
2013-02-27 10:29:00,34.2,33.4,28.67,NW,325,5.4,6.3,97,0.00,,---,0.00,VWS V14.01,2013-02-27 15:29:00,
2013-02-27 10:30:00,34.2,33.4,28.67,NNW,342,6.9,7.4,97,0.00,,---,0.00,VWS V14.01,2013-02-27 15:30:00,
2013-02-27 10:31:00,34.2,33.4,28.67,North,351,6.3,6.9,97,0.00,,---,0.00,VWS V14.01,2013-02-27 15:31:00,
2013-02-27 10:32:00,34.2,33.4,28.67,NNW,335,7.4,8.7,97,0.00,,---,0.00,VWS V14.01,2013-02-27 15:32:00,
2013-02-27 10:33:00,34.7,33.9,28.56,WSW,246,8.3,15.2,97,0.00,,---,0.12,VWS V14.01,2013-02-27 15:33:00,
2013-02-27 10:34:00,34.2,33.1,28.67,NNW,336,6.7,6.7,96,0.00,,---,0.00,VWS V14.01,2013-02-27 15:34:00,
2013-02-27 10:35:00,34.2,33.1,28.67,NW,318,6.7,10.1,96,0.00,,---,0.00,VWS V14.01,2013-02-27 15:35:00,
2013-02-27 10:36:00,34.2,33.1,28.70,WNW,303,5.4,9.6,96,0.00,,---,0.00,VWS V14.01,2013-02-27 15:36:00,
2013-02-27 10:37:00,34.2,33.1,28.70,NNW,329,5.8,6.9,96,0.00,,---,0.00,VWS V14.01,2013-02-27 15:37:00,
2013-02-27 10:38:00,34.2,33.1,28.70,NW,321,5.8,7.4,96,0.00,,---,0.00,VWS V14.01,2013-02-27 15:38:00,
2013-02-27 10:39:00,34.2,33.1,28.70,North,351,7.8,7.8,96,0.00,,---,0.00,VWS V14.01,2013-02-27 15:39:00,
2013-02-27 10:40:00,34.2,33.1,28.70,NNW,329,6.7,7.8,96,0.00,,---,0.00,VWS V14.01,2013-02-27 15:40:00,
2013-02-27 10:41:00,34.2,33.1,28.70,NW,318,6.7,8.3,96,0.00,,---,0.00,VWS V14.01,2013-02-27 15:41:00,
2013-02-27 10:42:00,34.2,32.9,28.70,NNW,337,6.3,7.4,95,0.00,,---,0.00,VWS V14.01,2013-02-27 15:42:00,
2013-02-27 10:43:00,34.7,33.9,28.53,WSW,244,6.3,8.3,97,0.00,,---,0.12,VWS V14.01,2013-02-27 15:43:00,
2013-02-27 10:44:00,34.2,32.9,28.70,NW,315,3.1,6.9,95,0.00,,---,0.00,VWS V14.01,2013-02-27 15:44:00,
2013-02-27 10:45:00,34.2,32.9,28.70,NW,318,4.9,5.8,95,0.00,,---,0.00,VWS V14.01,2013-02-27 15:45:00,
2013-02-27 10:46:00,34.2,32.9,28.70,NW,322,5.8,5.8,95,0.00,,---,0.00,VWS V14.01,2013-02-27 15:46:00,
2013-02-27 10:47:00,34.2,32.9,28.70,NNW,327,3.6,5.8,95,0.00,,---,0.00,VWS V14.01,2013-02-27 15:47:00,
2013-02-27 10:48:00,34.3,33.1,28.70,North,351,6.7,8.7,95,0.00,,---,0.00,VWS V14.01,2013-02-27 15:48:00,
2013-02-27 10:49:00,34.5,33.8,28.53,SW,229,4.0,10.5,97,0.00,,---,0.12,VWS V14.01,2013-02-27 15:49:00,
2013-02-27 10:50:00,34.2,32.9,28.70,NNW,340,4.5,6.7,95,0.00,,---,0.00,VWS V14.01,2013-02-27 15:50:00,
2013-02-27 10:51:00,34.2,32.9,28.70,NNW,345,6.3,6.7,95,0.00,,---,0.00,VWS V14.01,2013-02-27 15:51:00,
2013-02-27 10:52:00,34.2,32.9,28.70,NNW,336,4.5,6.7,95,0.00,,---,0.00,VWS V14.01,2013-02-27 15:52:00,
2013-02-27 10:53:00,34.2,32.9,28.70,NW,322,4.0,6.3,95,0.00,,---,0.00,VWS V14.01,2013-02-27 15:53:00,
2013-02-27 10:54:00,34.2,32.9,28.70,NW,316,6.3,6.9,95,0.00,,---,0.00,VWS V14.01,2013-02-27 15:54:00,
2013-02-27 10:55:00,34.2,32.9,28.70,NNW,331,4.5,6.3,95,0.00,,---,0.00,VWS V14.01,2013-02-27 15:55:00,
2013-02-27 10:56:00,34.2,32.9,28.70,NNW,337,4.0,5.4,95,0.00,,---,0.00,VWS V14.01,2013-02-27 15:56:00,
2013-02-27 10:57:00,34.2,32.6,28.70,NW,311,4.0,6.3,94,0.00,,---,0.00,VWS V14.01,2013-02-27 15:57:00,
2013-02-27 10:58:00,34.2,32.6,28.70,NW,326,7.8,7.8,94,0.00,,---,0.00,VWS V14.01,2013-02-27 15:58:00,
2013-02-27 10:59:00,34.5,33.8,28.53,West,272,8.3,13.9,97,0.00,,---,0.12,VWS V14.01,2013-02-27 15:59:00,
2013-02-27 11:00:00,34.2,32.6,28.70,NNW,339,5.4,7.8,94,0.00,,---,0.00,VWS V14.01,2013-02-27 16:00:00,
2013-02-27 11:01:00,34.2,32.6,28.70,NNW,341,5.8,6.9,94,0.00,,---,0.00,VWS V14.01,2013-02-27 16:01:00,
2013-02-27 11:02:00,34.2,32.6,28.70,NNW,334,8.7,8.7,94,0.00,,---,0.00,VWS V14.01,2013-02-27 16:02:00,
2013-02-27 11:03:00,34.2,32.6,28.70,NNW,341,6.9,8.7,94,0.00,,---,0.00,VWS V14.01,2013-02-27 16:03:00,
2013-02-27 11:05:00,34.7,33.9,28.53,West,275,6.7,13.4,97,0.00,,---,0.12,VWS V14.01,2013-02-27 16:05:00,
2013-02-27 11:06:00,34.2,32.3,28.70,NNW,330,4.5,6.7,93,0.00,,---,0.00,VWS V14.01,2013-02-27 16:06:00,
2013-02-27 11:07:00,34.2,32.3,28.70,WNW,302,4.9,5.4,93,0.00,,---,0.00,VWS V14.01,2013-02-27 16:07:00,
2013-02-27 11:08:00,34.2,32.3,28.70,WNW,299,4.5,4.9,93,0.00,,---,0.00,VWS V14.01,2013-02-27 16:08:00,
2013-02-27 11:09:00,34.3,32.5,28.70,NNW,342,6.7,6.9,93,0.00,,---,0.00,VWS V14.01,2013-02-27 16:09:00,
2013-02-27 11:10:00,34.2,32.3,28.70,NW,320,5.4,7.4,93,0.00,,---,0.00,VWS V14.01,2013-02-27 16:10:00,
2013-02-27 11:11:00,34.2,32.3,28.70,NNW,342,7.4,9.6,93,0.00,,---,0.00,VWS V14.01,2013-02-27 16:11:00,
2013-02-27 11:12:00,34.2,32.3,28.70,NNW,332,4.9,8.3,93,0.00,,---,0.00,VWS V14.01,2013-02-27 16:12:00,
2013-02-27 11:13:00,34.9,34.1,28.53,WSW,247,5.8,8.3,97,0.00,,---,0.12,VWS V14.01,2013-02-27 16:13:00,
2013-02-27 11:14:00,34.2,32.1,28.70,NNW,330,5.4,7.4,92,0.00,,---,0.00,VWS V14.01,2013-02-27 16:14:00,
2013-02-27 11:16:00,34.3,32.3,28.70,NW,326,6.7,6.7,92,0.00,,---,0.00,VWS V14.01,2013-02-27 16:16:00,
2013-02-27 11:17:00,34.2,32.1,28.70,NW,310,6.9,7.8,92,0.00,,---,0.00,VWS V14.01,2013-02-27 16:17:00,
2013-02-27 11:18:00,34.3,32.3,28.70,NNW,328,6.7,7.4,92,0.00,,---,0.00,VWS V14.01,2013-02-27 16:18:00,
2013-02-27 11:19:00,34.9,34.1,28.53,WSW,249,6.7,9.2,97,0.00,,---,0.12,VWS V14.01,2013-02-27 16:19:00,
2013-02-27 11:20:00,34.2,31.8,28.70,NW,324,5.4,9.2,91,0.00,,---,0.00,VWS V14.01,2013-02-27 16:20:00,
2013-02-27 11:21:00,34.3,32.0,28.70,NW,309,5.8,8.7,91,0.00,,---,0.00,VWS V14.01,2013-02-27 16:21:00,
2013-02-27 11:22:00,34.3,32.0,28.70,NNW,329,2.7,7.8,91,0.00,,---,0.00,VWS V14.01,2013-02-27 16:22:00,
2013-02-27 11:23:00,34.3,32.0,28.70,NNW,333,7.4,7.4,91,0.00,,---,0.00,VWS V14.01,2013-02-27 16:23:00,
2013-02-27 11:24:00,34.3,32.0,28.70,NW,316,5.8,11.2,91,0.00,,---,0.00,VWS V14.01,2013-02-27 16:24:00,
2013-02-27 11:25:00,34.3,31.7,28.70,NNW,327,4.9,6.3,90,0.00,,---,0.00,VWS V14.01,2013-02-27 16:25:00,
2013-02-27 11:26:00,34.3,31.7,28.70,NW,309,6.9,9.2,90,0.00,,---,0.00,VWS V14.01,2013-02-27 16:26:00,
2013-02-27 11:27:00,34.9,34.1,28.53,West,260,4.0,5.8,97,0.00,,---,0.12,VWS V14.01,2013-02-27 16:27:00,
2013-02-27 11:28:00,34.3,31.7,28.70,NW,320,3.6,6.7,90,0.00,,---,0.00,VWS V14.01,2013-02-27 16:28:00,
2013-02-27 11:29:00,34.3,31.7,28.70,NW,305,4.0,7.4,90,0.00,,---,0.00,VWS V14.01,2013-02-27 16:29:00,
2013-02-27 11:30:00,34.3,31.7,28.70,NW,316,6.3,8.7,90,0.00,,---,0.00,VWS V14.01,2013-02-27 16:30:00,
2013-02-27 11:31:00,34.3,31.7,28.70,NW,322,5.8,6.7,90,0.00,,---,0.00,VWS V14.01,2013-02-27 16:31:00,
2013-02-27 11:32:00,34.3,31.4,28.70,NW,323,3.1,5.8,89,0.00,,---,0.00,VWS V14.01,2013-02-27 16:32:00,
2013-02-27 11:33:00,34.3,31.4,28.70,North,351,5.4,6.3,89,0.00,,---,0.00,VWS V14.01,2013-02-27 16:33:00,
2013-02-27 11:34:00,34.3,31.4,28.70,NNW,338,5.4,9.2,89,0.00,,---,0.00,VWS V14.01,2013-02-27 16:34:00,
2013-02-27 11:35:00,34.7,33.9,28.53,West,264,6.3,11.2,97,0.00,,---,0.12,VWS V14.01,2013-02-27 16:35:00,
2013-02-27 11:36:00,34.3,31.4,28.70,NW,325,5.4,6.3,89,0.00,,---,0.00,VWS V14.01,2013-02-27 16:36:00,
2013-02-27 11:37:00,34.3,31.4,28.70,NW,317,4.9,6.7,89,0.00,,---,0.00,VWS V14.01,2013-02-27 16:37:00,
2013-02-27 11:38:00,34.3,31.4,28.70,NNW,343,6.7,8.3,89,0.00,,---,0.00,VWS V14.01,2013-02-27 16:38:00,
2013-02-27 11:39:00,34.3,31.4,28.70,NW,323,4.9,8.3,89,0.00,,---,0.00,VWS V14.01,2013-02-27 16:39:00,
2013-02-27 11:40:00,34.3,31.4,28.70,NNW,331,8.3,9.2,89,0.00,,---,0.00,VWS V14.01,2013-02-27 16:40:00,
2013-02-27 11:41:00,34.7,33.9,28.53,West,274,5.8,13.9,97,0.00,,---,0.12,VWS V14.01,2013-02-27 16:41:00,
2013-02-27 11:42:00,34.3,31.2,28.70,NNW,331,6.9,8.7,88,0.00,,---,0.00,VWS V14.01,2013-02-27 16:42:00,
2013-02-27 11:43:00,34.3,31.2,28.70,NW,324,5.4,11.0,88,0.00,,---,0.00,VWS V14.01,2013-02-27 16:43:00,
2013-02-27 11:44:00,34.3,31.2,28.70,NNW,339,4.5,6.3,88,0.00,,---,0.00,VWS V14.01,2013-02-27 16:44:00,
2013-02-27 11:45:00,34.3,31.2,28.70,NNW,342,6.7,7.4,88,0.00,,---,0.00,VWS V14.01,2013-02-27 16:45:00,
2013-02-27 11:46:00,34.5,31.3,28.70,NNW,338,4.5,6.7,88,0.00,,---,0.00,VWS V14.01,2013-02-27 16:46:00,
2013-02-27 11:47:00,34.5,31.3,28.70,NW,325,7.4,7.4,88,0.00,,---,0.00,VWS V14.01,2013-02-27 16:47:00,
2013-02-27 11:48:00,34.5,31.3,28.70,NW,318,6.7,7.4,88,0.00,,---,0.00,VWS V14.01,2013-02-27 16:48:00,
2013-02-27 11:49:00,34.5,31.3,28.70,NW,321,6.7,7.8,88,0.00,,---,0.00,VWS V14.01,2013-02-27 16:49:00,
2013-02-27 11:50:00,34.3,30.9,28.70,NW,315,6.3,9.2,87,0.00,,---,0.00,VWS V14.01,2013-02-27 16:50:00,
2013-02-27 11:51:00,34.9,34.1,28.53,WSW,250,8.7,13.0,97,0.00,,---,0.12,VWS V14.01,2013-02-27 16:51:00,
2013-02-27 11:52:00,34.3,30.9,28.70,NNW,330,5.4,10.5,87,0.00,,---,0.00,VWS V14.01,2013-02-27 16:52:00,
2013-02-27 11:53:00,34.5,31.1,28.70,NNW,330,4.9,8.7,87,0.00,,---,0.00,VWS V14.01,2013-02-27 16:53:00,
2013-02-27 11:54:00,34.5,31.1,28.70,NNW,327,4.9,9.2,87,0.00,,---,0.00,VWS V14.01,2013-02-27 16:54:00,
2013-02-27 11:55:00,34.5,31.1,28.70,NNW,332,6.3,8.3,87,0.00,,---,0.00,VWS V14.01,2013-02-27 16:55:00,
2013-02-27 11:56:00,34.5,31.1,28.70,North,351,4.5,6.7,87,0.00,,---,0.00,VWS V14.01,2013-02-27 16:56:00,
2013-02-27 11:57:00,34.5,31.1,28.70,North,351,5.8,8.3,87,0.00,,---,0.00,VWS V14.01,2013-02-27 16:57:00,
2013-02-27 11:58:00,34.7,31.2,28.70,NW,325,4.9,5.8,87,0.00,,---,0.00,VWS V14.01,2013-02-27 16:58:00,
2013-02-27 11:59:00,35.1,34.3,28.53,SW,226,2.7,13.9,97,0.00,,---,0.12,VWS V14.01,2013-02-27 16:59:00,
2013-02-27 12:00:00,34.5,31.1,28.70,NW,321,3.1,8.3,87,0.00,,---,0.00,VWS V14.01,2013-02-27 17:00:00,
2013-02-27 12:01:00,34.7,31.2,28.70,NW,309,5.4,6.9,87,0.00,,---,0.00,VWS V14.01,2013-02-27 17:01:00,
2013-02-27 12:02:00,34.7,31.2,28.70,NNW,331,5.8,7.4,87,0.00,,---,0.00,VWS V14.01,2013-02-27 17:02:00,
2013-02-27 12:03:00,34.7,31.0,28.70,North,351,5.8,6.9,86,0.00,,---,0.00,VWS V14.01,2013-02-27 17:03:00,
2013-02-27 12:04:00,35.1,34.3,28.53,WSW,258,11.2,14.8,97,0.00,,---,0.12,VWS V14.01,2013-02-27 17:04:00,
2013-02-27 12:05:00,34.7,31.0,28.70,North,356,8.7,8.7,86,0.00,,---,0.00,VWS V14.01,2013-02-27 17:05:00,
2013-02-27 12:06:00,34.7,31.0,28.73,NNW,337,8.3,8.7,86,0.00,,---,0.00,VWS V14.01,2013-02-27 17:06:00,
2013-02-27 12:07:00,34.7,31.0,28.73,NNW,345,4.5,8.3,86,0.00,,---,0.00,VWS V14.01,2013-02-27 17:07:00,
2013-02-27 12:08:00,34.9,31.1,28.73,NNW,336,4.5,6.7,86,0.00,,---,0.00,VWS V14.01,2013-02-27 17:08:00,
2013-02-27 12:09:00,34.9,31.1,28.73,NW,321,5.4,8.7,86,0.00,,---,0.00,VWS V14.01,2013-02-27 17:09:00,
2013-02-27 12:10:00,34.9,30.8,28.73,North,351,4.9,7.8,85,0.00,,---,0.00,VWS V14.01,2013-02-27 17:10:00,
2013-02-27 12:11:00,34.9,30.8,28.73,NNW,344,3.6,6.7,85,0.00,,---,0.00,VWS V14.01,2013-02-27 17:11:00,
2013-02-27 12:12:00,34.9,30.8,28.73,NNW,344,6.3,7.8,85,0.00,,---,0.00,VWS V14.01,2013-02-27 17:12:00,
2013-02-27 12:13:00,34.9,30.8,28.73,NNW,334,4.0,7.4,85,0.00,,---,0.00,VWS V14.01,2013-02-27 17:13:00,
2013-02-27 12:14:00,34.9,30.8,28.73,NW,323,4.0,5.4,85,0.00,,---,0.00,VWS V14.01,2013-02-27 17:14:00,
2013-02-27 12:15:00,35.1,34.3,28.53,SSW,194,10.1,11.6,97,0.00,,---,0.12,VWS V14.01,2013-02-27 17:15:00,
2013-02-27 12:17:00,34.9,30.8,28.73,NNW,340,5.8,5.8,85,0.00,,---,0.00,VWS V14.01,2013-02-27 17:17:00,
2013-02-27 12:18:00,34.9,30.8,28.73,NNW,335,6.3,7.4,85,0.00,,---,0.00,VWS V14.01,2013-02-27 17:18:00,
2013-02-27 12:19:00,34.9,30.8,28.73,NNW,344,6.3,7.4,85,0.00,,---,0.00,VWS V14.01,2013-02-27 17:19:00,
2013-02-27 12:20:00,35.1,34.3,28.53,West,266,11.0,11.0,97,0.00,,---,0.12,VWS V14.01,2013-02-27 17:20:00,
2013-02-27 12:21:00,34.9,30.8,28.73,NW,321,6.9,8.3,85,0.00,,---,0.00,VWS V14.01,2013-02-27 17:21:00,
2013-02-27 12:22:00,34.7,30.7,28.73,North,351,7.4,11.0,85,0.00,,---,0.00,VWS V14.01,2013-02-27 17:22:00,
2013-02-27 12:23:00,34.7,30.7,28.73,NW,326,10.5,10.5,85,0.00,,---,0.00,VWS V14.01,2013-02-27 17:23:00,
2013-02-27 12:24:00,34.7,30.7,28.73,NNW,328,8.7,11.0,85,0.00,,---,0.00,VWS V14.01,2013-02-27 17:24:00,
2013-02-27 12:25:00,34.7,30.4,28.73,NNW,328,4.9,9.6,84,0.00,,---,0.00,VWS V14.01,2013-02-27 17:25:00,
2013-02-27 12:26:00,35.1,34.3,28.53,West,271,6.3,10.1,97,0.00,,---,0.12,VWS V14.01,2013-02-27 17:26:00,
2013-02-27 12:27:00,34.9,30.8,28.73,NW,319,5.8,6.7,85,0.00,,---,0.00,VWS V14.01,2013-02-27 17:27:00,
2013-02-27 12:28:00,35.1,31.0,28.73,NW,313,4.0,5.8,85,0.00,,---,0.00,VWS V14.01,2013-02-27 17:28:00,
2013-02-27 12:29:00,35.1,31.0,28.73,NNW,331,6.3,6.9,85,0.00,,---,0.00,VWS V14.01,2013-02-27 17:29:00,
2013-02-27 12:30:00,35.1,31.0,28.73,NW,316,5.8,7.4,85,0.00,,---,0.00,VWS V14.01,2013-02-27 17:30:00,
2013-02-27 12:31:00,35.2,31.2,28.73,NW,310,4.5,6.3,85,0.00,,---,0.00,VWS V14.01,2013-02-27 17:31:00,
2013-02-27 12:32:00,34.9,34.1,28.53,West,264,8.3,8.7,97,0.00,,---,0.12,VWS V14.01,2013-02-27 17:32:00,
2013-02-27 12:33:00,35.2,30.9,28.73,NNW,329,3.6,6.9,84,0.00,,---,0.00,VWS V14.01,2013-02-27 17:33:00,
2013-02-27 12:34:00,35.4,31.1,28.73,NW,319,6.9,6.9,84,0.00,,---,0.00,VWS V14.01,2013-02-27 17:34:00,
2013-02-27 12:35:00,35.4,31.1,28.73,WNW,283,5.4,9.6,84,0.00,,---,0.00,VWS V14.01,2013-02-27 17:35:00,
2013-02-27 12:36:00,35.4,31.1,28.73,NW,317,4.5,6.3,84,0.00,,---,0.00,VWS V14.01,2013-02-27 17:36:00,
2013-02-27 12:37:00,34.9,34.1,28.53,WSW,249,5.4,7.4,97,0.00,,---,0.12,VWS V14.01,2013-02-27 17:37:00,
2013-02-27 12:38:00,35.6,31.2,28.73,North,0,4.9,6.9,84,0.00,,---,0.00,VWS V14.01,2013-02-27 17:38:00,
2013-02-27 12:39:00,35.6,31.2,28.73,NW,322,6.7,7.8,84,0.00,,---,0.00,VWS V14.01,2013-02-27 17:39:00,
2013-02-27 12:40:00,35.6,31.0,28.73,NNW,333,6.7,7.4,83,0.00,,---,0.00,VWS V14.01,2013-02-27 17:40:00,
2013-02-27 12:41:00,35.6,31.0,28.73,North,351,6.3,7.8,83,0.00,,---,0.00,VWS V14.01,2013-02-27 17:41:00,
2013-02-27 12:42:00,34.9,34.1,28.53,West,272,10.5,10.5,97,0.00,,---,0.12,VWS V14.01,2013-02-27 17:42:00,
2013-02-27 12:43:00,35.6,30.7,28.73,NNW,328,6.7,7.8,82,0.00,,---,0.00,VWS V14.01,2013-02-27 17:43:00,
2013-02-27 12:44:00,35.6,30.7,28.73,NNW,335,5.8,6.7,82,0.00,,---,0.00,VWS V14.01,2013-02-27 17:44:00,
2013-02-27 12:45:00,35.6,30.4,28.73,North,351,4.5,6.9,81,0.00,,---,0.00,VWS V14.01,2013-02-27 17:45:00,
2013-02-27 12:46:00,35.8,30.5,28.73,WNW,302,3.6,6.3,81,0.00,,---,0.00,VWS V14.01,2013-02-27 17:46:00,
2013-02-27 12:47:00,34.7,33.9,28.53,WSW,252,9.6,9.6,97,0.00,,---,0.12,VWS V14.01,2013-02-27 17:47:00,
2013-02-27 12:48:00,35.6,30.0,28.73,NW,318,5.8,8.7,80,0.00,,---,0.00,VWS V14.01,2013-02-27 17:48:00,
2013-02-27 12:49:00,35.6,30.0,28.73,North,356,7.4,8.3,80,0.00,,---,0.00,VWS V14.01,2013-02-27 17:49:00,
2013-02-27 12:50:00,35.6,29.7,28.73,NW,324,7.4,8.3,79,0.00,,---,0.00,VWS V14.01,2013-02-27 17:50:00,
2013-02-27 12:51:00,35.4,29.6,28.73,NW,322,5.8,9.2,79,0.00,,---,0.00,VWS V14.01,2013-02-27 17:51:00,
2013-02-27 12:52:00,34.7,33.9,28.53,WSW,237,2.7,10.1,97,0.00,,---,0.12,VWS V14.01,2013-02-27 17:52:00,
2013-02-27 12:53:00,35.6,29.7,28.73,NNW,335,6.3,7.8,79,0.00,,---,0.00,VWS V14.01,2013-02-27 17:53:00,
2013-02-27 12:54:00,35.4,29.6,28.73,NW,305,6.9,8.3,79,0.00,,---,0.00,VWS V14.01,2013-02-27 17:54:00,
2013-02-27 12:55:00,35.4,29.2,28.73,NNW,332,6.3,10.1,78,0.00,,---,0.00,VWS V14.01,2013-02-27 17:55:00,
2013-02-27 12:56:00,35.4,29.2,28.73,NNW,338,8.3,10.1,78,0.00,,---,0.00,VWS V14.01,2013-02-27 17:56:00,
2013-02-27 12:57:00,34.7,33.9,28.53,SW,217,8.3,9.6,97,0.00,,---,0.12,VWS V14.01,2013-02-27 17:57:00,
2013-02-27 12:58:00,35.6,29.4,28.73,NNW,328,3.6,5.4,78,0.00,,---,0.00,VWS V14.01,2013-02-27 17:58:00,
2013-02-27 12:59:00,35.4,29.2,28.73,NNW,334,6.9,9.2,78,0.00,,---,0.00,VWS V14.01,2013-02-27 17:59:00,
2013-02-27 13:00:00,35.4,29.2,28.73,NW,309,7.8,8.7,78,0.00,,---,0.00,VWS V14.01,2013-02-27 18:00:00,
2013-02-27 13:01:00,35.4,29.2,28.73,NNW,332,6.3,7.8,78,0.00,,---,0.00,VWS V14.01,2013-02-27 18:01:00,
2013-02-27 13:02:00,34.7,33.9,28.53,WSW,244,11.0,13.0,97,0.00,,---,0.12,VWS V14.01,2013-02-27 18:02:00,
2013-02-27 13:03:00,35.4,29.2,28.73,NNW,330,5.8,5.8,78,0.00,,---,0.00,VWS V14.01,2013-02-27 18:03:00,
2013-02-27 13:04:00,35.6,29.7,28.73,NNW,342,5.8,6.9,79,0.00,,---,0.00,VWS V14.01,2013-02-27 18:04:00,
2013-02-27 13:05:00,35.4,29.6,28.73,NNW,346,6.3,8.7,79,0.00,,---,0.00,VWS V14.01,2013-02-27 18:05:00,
2013-02-27 13:06:00,35.4,29.6,28.73,NNW,337,3.1,6.9,79,0.00,,---,0.00,VWS V14.01,2013-02-27 18:06:00,
2013-02-27 13:07:00,34.5,33.8,28.53,West,278,6.3,8.3,97,0.00,,---,0.12,VWS V14.01,2013-02-27 18:07:00,
2013-02-27 13:08:00,35.4,29.6,28.73,NW,320,6.7,8.3,79,0.00,,---,0.00,VWS V14.01,2013-02-27 18:08:00,
2013-02-27 13:09:00,35.4,29.6,28.73,NW,324,8.3,10.1,79,0.00,,---,0.00,VWS V14.01,2013-02-27 18:09:00,
2013-02-27 13:10:00,35.2,29.1,28.73,NW,325,4.5,8.3,78,0.00,,---,0.00,VWS V14.01,2013-02-27 18:10:00,
2013-02-27 13:11:00,35.2,29.1,28.73,NNW,340,8.7,9.2,78,0.00,,---,0.00,VWS V14.01,2013-02-27 18:11:00,
2013-02-27 13:12:00,34.5,33.8,28.53,West,269,9.2,10.5,97,0.00,,---,0.12,VWS V14.01,2013-02-27 18:12:00,
2013-02-27 13:13:00,35.2,29.1,28.73,NNW,337,4.9,7.4,78,0.00,,---,0.00,VWS V14.01,2013-02-27 18:13:00,
2013-02-27 13:14:00,35.4,29.6,28.73,WNW,295,6.9,6.9,79,0.00,,---,0.00,VWS V14.01,2013-02-27 18:14:00,
2013-02-27 13:15:00,35.4,29.6,28.73,North,351,3.1,6.9,79,0.00,,---,0.00,VWS V14.01,2013-02-27 18:15:00,
2013-02-27 13:16:00,35.4,29.6,28.73,NW,322,6.9,9.2,79,0.00,,---,0.00,VWS V14.01,2013-02-27 18:16:00,
2013-02-27 13:17:00,34.5,33.8,28.53,WSW,245,7.8,8.7,97,0.00,,---,0.12,VWS V14.01,2013-02-27 18:17:00,
2013-02-27 13:18:00,35.6,29.7,28.73,NNW,338,5.8,6.3,79,0.00,,---,0.00,VWS V14.01,2013-02-27 18:18:00,
2013-02-27 13:19:00,35.4,29.6,28.73,North,356,7.8,9.6,79,0.00,,---,0.00,VWS V14.01,2013-02-27 18:19:00,
2013-02-27 13:20:00,35.4,29.6,28.73,NNW,328,5.4,9.6,79,0.00,,---,0.00,VWS V14.01,2013-02-27 18:20:00,
2013-02-27 13:21:00,35.6,29.7,28.73,NNW,342,6.7,6.7,79,0.00,,---,0.00,VWS V14.01,2013-02-27 18:21:00,
2013-02-27 13:22:00,35.4,29.6,28.73,NW,308,5.4,7.8,79,0.00,,---,0.00,VWS V14.01,2013-02-27 18:22:00,
2013-02-27 13:23:00,35.4,29.6,28.73,North,356,7.4,8.7,79,0.00,,---,0.00,VWS V14.01,2013-02-27 18:23:00,
2013-02-27 13:24:00,35.4,29.6,28.73,ESE,122,4.0,7.8,79,0.04,,---,0.04,VWS V14.01,2013-02-27 18:24:00,
2013-02-27 13:25:00,35.6,29.7,28.73,NNW,338,5.4,6.7,79,0.04,,---,0.04,VWS V14.01,2013-02-27 18:25:00,
2013-02-27 13:26:00,35.6,29.7,28.73,NW,312,6.9,8.7,79,0.04,,---,0.04,VWS V14.01,2013-02-27 18:26:00,
2013-02-27 13:27:00,35.6,29.7,28.73,NW,325,7.8,9.2,79,0.04,,---,0.04,VWS V14.01,2013-02-27 18:27:00,
2013-02-27 13:28:00,35.4,29.6,28.73,North,7,7.8,10.1,79,0.04,,---,0.04,VWS V14.01,2013-02-27 18:28:00,
2013-02-27 13:29:00,35.4,29.2,28.73,North,4,8.3,11.0,78,0.04,,---,0.04,VWS V14.01,2013-02-27 18:29:00,
2013-02-27 13:30:00,35.6,29.4,28.73,NNW,342,5.4,8.3,78,0.04,,---,0.04,VWS V14.01,2013-02-27 18:30:00,
2013-02-27 13:31:00,35.6,29.4,28.73,NW,325,6.3,6.7,78,0.04,,---,0.04,VWS V14.01,2013-02-27 18:31:00,
2013-02-27 13:32:00,35.6,29.7,28.73,NW,325,4.5,6.3,79,0.04,,---,0.04,VWS V14.01,2013-02-27 18:32:00,
2013-02-27 13:33:00,35.6,29.7,28.73,NNW,328,5.4,6.9,79,0.04,,---,0.04,VWS V14.01,2013-02-27 18:33:00,
2013-02-27 13:34:00,35.6,29.7,28.73,NW,313,7.4,7.4,79,0.04,,---,0.04,VWS V14.01,2013-02-27 18:34:00,
2013-02-27 13:35:00,35.6,29.7,28.73,NNW,331,5.4,7.8,79,0.04,,---,0.04,VWS V14.01,2013-02-27 18:35:00,
2013-02-27 13:36:00,34.9,33.3,28.53,West,268,6.7,7.4,94,0.00,,---,0.12,VWS V14.01,2013-02-27 18:36:00,
2013-02-27 13:37:00,35.4,29.6,28.73,NNW,330,5.8,8.7,79,0.04,,---,0.04,VWS V14.01,2013-02-27 18:37:00,
2013-02-27 13:38:00,35.4,29.2,28.73,NNW,338,5.8,9.2,78,0.04,,---,0.04,VWS V14.01,2013-02-27 18:38:00,
2013-02-27 13:39:00,35.4,29.2,28.73,NW,323,5.4,8.3,78,0.04,,---,0.04,VWS V14.01,2013-02-27 18:39:00,
2013-02-27 13:40:00,35.4,29.2,28.73,NNW,333,4.9,6.3,78,0.04,,---,0.04,VWS V14.01,2013-02-27 18:40:00,
2013-02-27 13:41:00,34.9,32.5,28.53,West,259,11.0,11.0,91,0.00,,---,0.12,VWS V14.01,2013-02-27 18:41:00,
2013-02-27 13:42:00,35.4,29.6,28.73,NNW,331,6.9,8.7,79,0.04,,---,0.04,VWS V14.01,2013-02-27 18:42:00,
2013-02-27 13:43:00,35.4,29.6,28.73,NNW,338,6.3,7.8,79,0.04,,---,0.04,VWS V14.01,2013-02-27 18:43:00,
2013-02-27 13:44:00,35.4,29.6,28.73,NW,321,5.8,9.2,79,0.04,,---,0.04,VWS V14.01,2013-02-27 18:44:00,
2013-02-27 13:45:00,35.4,29.6,28.73,WNW,288,5.4,11.0,79,0.04,,---,0.04,VWS V14.01,2013-02-27 18:45:00,
2013-02-27 13:46:00,34.9,31.7,28.53,West,266,6.9,10.5,88,0.00,,---,0.12,VWS V14.01,2013-02-27 18:46:00,
2013-02-27 13:47:00,35.4,29.6,28.73,NW,309,8.3,8.3,79,0.04,,---,0.04,VWS V14.01,2013-02-27 18:47:00,
2013-02-27 13:48:00,35.4,29.6,28.73,NNW,330,5.8,8.3,79,0.04,,---,0.04,VWS V14.01,2013-02-27 18:48:00,
2013-02-27 13:49:00,35.4,29.6,28.73,NNW,334,5.8,6.3,79,0.04,,---,0.04,VWS V14.01,2013-02-27 18:49:00,
2013-02-27 13:50:00,35.4,29.6,28.73,NNW,330,4.9,6.7,79,0.04,,---,0.04,VWS V14.01,2013-02-27 18:50:00,
2013-02-27 13:51:00,35.4,29.6,28.76,NNW,341,5.8,8.7,79,0.04,,---,0.04,VWS V14.01,2013-02-27 18:51:00,
2013-02-27 13:52:00,34.9,31.1,28.53,WSW,246,8.7,11.6,86,0.00,,---,0.12,VWS V14.01,2013-02-27 18:52:00,
2013-02-27 13:53:00,35.4,29.6,28.76,NW,321,4.5,6.9,79,0.08,,---,0.08,VWS V14.01,2013-02-27 18:53:00,
2013-02-27 13:54:00,35.4,29.6,28.76,NNW,339,8.7,8.7,79,0.08,,---,0.08,VWS V14.01,2013-02-27 18:54:00,
2013-02-27 13:55:00,35.4,29.6,28.76,NNW,338,6.7,9.6,79,0.08,,---,0.08,VWS V14.01,2013-02-27 18:55:00,
2013-02-27 13:56:00,35.4,29.6,28.76,NNW,335,5.8,8.3,79,0.08,,---,0.08,VWS V14.01,2013-02-27 18:56:00,
2013-02-27 13:57:00,34.9,30.8,28.53,West,270,7.8,11.2,85,0.00,,---,0.12,VWS V14.01,2013-02-27 18:57:00,
2013-02-27 13:58:00,35.2,29.4,28.76,NNW,341,4.5,9.2,79,0.08,,---,0.08,VWS V14.01,2013-02-27 18:58:00,
2013-02-27 13:59:00,35.2,29.4,28.76,North,1,6.9,6.9,79,0.08,,---,0.08,VWS V14.01,2013-02-27 18:59:00,
2013-02-27 14:02:00,34.7,30.4,28.53,WSW,257,5.4,15.9,84,0.00,,---,0.12,VWS V14.01,2013-02-27 19:02:00,
2013-02-27 14:03:00,35.2,29.4,28.76,NNW,338,6.7,8.7,79,0.08,,---,0.08,VWS V14.01,2013-02-27 19:03:00,
2013-02-27 14:04:00,35.2,29.4,28.76,NNW,328,11.0,11.0,79,0.08,,---,0.08,VWS V14.01,2013-02-27 19:04:00,
2013-02-27 14:05:00,35.1,29.2,28.76,NNW,347,8.3,11.0,79,0.08,,---,0.08,VWS V14.01,2013-02-27 19:05:00,
2013-02-27 14:06:00,35.1,29.2,28.76,North,356,8.3,8.3,79,0.08,,---,0.08,VWS V14.01,2013-02-27 19:06:00,
2013-02-27 14:07:00,34.5,29.6,28.53,West,281,6.3,12.1,82,0.00,,---,0.12,VWS V14.01,2013-02-27 19:07:00,
2013-02-27 14:08:00,35.2,29.4,28.76,NW,318,5.4,6.9,79,0.08,,---,0.08,VWS V14.01,2013-02-27 19:08:00,
2013-02-27 14:09:00,35.2,29.4,28.76,NNW,328,6.3,7.4,79,0.08,,---,0.08,VWS V14.01,2013-02-27 19:09:00,
2013-02-27 14:10:00,35.2,29.4,28.76,North,351,5.4,6.3,79,0.08,,---,0.08,VWS V14.01,2013-02-27 19:10:00,
2013-02-27 14:11:00,35.2,29.4,28.76,NNW,338,4.9,6.3,79,0.08,,---,0.08,VWS V14.01,2013-02-27 19:11:00,
2013-02-27 14:12:00,34.5,29.6,28.53,SSW,208,7.4,11.2,82,0.00,,---,0.12,VWS V14.01,2013-02-27 19:12:00,
2013-02-27 14:13:00,35.2,29.7,28.76,North,351,3.6,7.8,80,0.08,,---,0.08,VWS V14.01,2013-02-27 19:13:00,
2013-02-27 14:14:00,35.2,29.4,28.76,NNW,328,9.6,9.6,79,0.08,,---,0.08,VWS V14.01,2013-02-27 19:14:00,
2013-02-27 14:15:00,35.1,29.2,28.76,NNW,329,5.4,9.6,79,0.08,,---,0.08,VWS V14.01,2013-02-27 19:15:00,
2013-02-27 14:16:00,35.1,29.2,28.76,NNW,334,8.3,10.5,79,0.08,,---,0.08,VWS V14.01,2013-02-27 19:16:00,
2013-02-27 14:17:00,35.1,29.2,28.76,NNW,327,6.9,8.3,79,0.08,,---,0.08,VWS V14.01,2013-02-27 19:17:00,
2013-02-27 14:18:00,35.2,29.4,28.76,NNW,332,3.6,6.9,79,0.08,,---,0.08,VWS V14.01,2013-02-27 19:18:00,
2013-02-27 14:19:00,35.4,29.6,28.76,NW,324,5.4,6.3,79,0.08,,---,0.08,VWS V14.01,2013-02-27 19:19:00,
2013-02-27 14:20:00,35.4,29.9,28.76,NNW,329,4.5,5.8,80,0.08,,---,0.08,VWS V14.01,2013-02-27 19:20:00,
2013-02-27 14:21:00,35.6,30.0,28.76,NW,321,5.4,6.9,80,0.08,,---,0.08,VWS V14.01,2013-02-27 19:21:00,
2013-02-27 14:22:00,35.6,30.0,28.76,North,0,4.5,8.3,80,0.08,,---,0.08,VWS V14.01,2013-02-27 19:22:00,
2013-02-27 14:23:00,35.4,29.9,28.76,NNW,327,8.7,10.1,80,0.08,,---,0.08,VWS V14.01,2013-02-27 19:23:00,
2013-02-27 14:24:00,35.6,30.0,28.76,NNW,339,8.3,9.6,80,0.08,,---,0.08,VWS V14.01,2013-02-27 19:24:00,
2013-02-27 14:25:00,35.4,29.6,28.76,NNW,334,4.0,10.1,79,0.04,,---,0.08,VWS V14.01,2013-02-27 19:25:00,
2013-02-27 14:26:00,34.5,29.6,28.53,West,271,6.7,13.9,82,0.00,,---,0.12,VWS V14.01,2013-02-27 19:26:00,
2013-02-27 14:27:00,35.6,30.0,28.76,North,351,4.5,5.8,80,0.04,,---,0.08,VWS V14.01,2013-02-27 19:27:00,
2013-02-27 14:28:00,35.6,30.0,28.76,NW,326,5.8,6.9,80,0.04,,---,0.08,VWS V14.01,2013-02-27 19:28:00,
2013-02-27 14:29:00,35.6,30.0,28.76,NNW,336,4.9,6.9,80,0.04,,---,0.08,VWS V14.01,2013-02-27 19:29:00,
2013-02-27 14:30:00,35.6,30.0,28.76,NNW,336,6.3,6.7,80,0.04,,---,0.08,VWS V14.01,2013-02-27 19:30:00,
2013-02-27 14:31:00,34.5,29.6,28.53,SW,232,6.9,16.3,82,0.00,,---,0.12,VWS V14.01,2013-02-27 19:31:00,
2013-02-27 14:32:00,35.8,30.2,28.76,NW,325,5.8,8.3,80,0.04,,---,0.08,VWS V14.01,2013-02-27 19:32:00,
2013-02-27 14:33:00,35.8,29.9,28.76,NNW,336,5.8,7.8,79,0.04,,---,0.08,VWS V14.01,2013-02-27 19:33:00,
2013-02-27 14:34:00,35.8,29.9,28.76,NNW,342,4.9,8.7,79,0.04,,---,0.08,VWS V14.01,2013-02-27 19:34:00,
2013-02-27 14:35:00,36.0,30.1,28.76,NNW,336,5.4,6.9,79,0.04,,---,0.08,VWS V14.01,2013-02-27 19:35:00,
2013-02-27 14:36:00,34.5,29.6,28.53,WNW,287,10.5,14.3,82,0.00,,---,0.12,VWS V14.01,2013-02-27 19:36:00,
2013-02-27 14:37:00,36.0,30.1,28.76,NW,321,6.7,8.3,79,0.04,,---,0.08,VWS V14.01,2013-02-27 19:37:00,
2013-02-27 14:38:00,36.0,30.1,28.76,NNW,338,0.0,7.8,79,0.04,,---,0.08,VWS V14.01,2013-02-27 19:38:00,
2013-02-27 14:39:00,36.1,30.3,28.76,NNW,327,4.0,6.7,79,0.04,,---,0.08,VWS V14.01,2013-02-27 19:39:00,
2013-02-27 14:40:00,36.1,30.3,28.76,NNW,328,3.6,4.0,79,0.04,,---,0.08,VWS V14.01,2013-02-27 19:40:00,
2013-02-27 14:41:00,34.5,29.6,28.53,WSW,245,7.4,11.6,82,0.00,,---,0.12,VWS V14.01,2013-02-27 19:41:00,
2013-02-27 14:42:00,36.3,30.4,28.76,NNW,340,5.4,6.7,79,0.04,,---,0.08,VWS V14.01,2013-02-27 19:42:00,
2013-02-27 14:43:00,36.3,30.4,28.76,NNW,332,4.9,7.8,79,0.04,,---,0.08,VWS V14.01,2013-02-27 19:43:00,
2013-02-27 14:44:00,36.5,30.3,28.76,NNW,336,5.8,5.8,78,0.04,,---,0.08,VWS V14.01,2013-02-27 19:44:00,
2013-02-27 14:45:00,36.5,30.3,28.76,NNW,334,4.9,7.4,78,0.04,,---,0.08,VWS V14.01,2013-02-27 19:45:00,
2013-02-27 14:46:00,34.5,29.6,28.53,WSW,239,4.5,10.5,82,0.00,,---,0.12,VWS V14.01,2013-02-27 19:46:00,
2013-02-27 14:47:00,36.5,30.3,28.76,NNW,347,5.4,7.8,78,0.04,,---,0.08,VWS V14.01,2013-02-27 19:47:00,
2013-02-27 14:48:00,36.7,30.2,28.76,NNW,339,4.9,5.8,77,0.04,,---,0.08,VWS V14.01,2013-02-27 19:48:00,
2013-02-27 14:49:00,36.7,30.2,28.76,North,0,6.7,6.7,77,0.04,,---,0.08,VWS V14.01,2013-02-27 19:49:00,
2013-02-27 14:50:00,36.7,30.2,28.76,NNW,332,4.9,8.3,77,0.04,,---,0.08,VWS V14.01,2013-02-27 19:50:00,
2013-02-27 14:51:00,34.3,29.1,28.53,SW,217,9.2,13.0,81,0.00,,---,0.12,VWS V14.01,2013-02-27 19:51:00,
2013-02-27 14:52:00,36.7,30.2,28.76,NNW,333,6.9,7.4,77,0.04,,---,0.08,VWS V14.01,2013-02-27 19:52:00,
2013-02-27 14:53:00,36.5,29.7,28.76,NNW,339,7.4,8.3,76,0.04,,---,0.08,VWS V14.01,2013-02-27 19:53:00,
2013-02-27 14:54:00,36.3,29.5,28.76,NNW,346,10.1,10.1,76,0.00,,---,0.08,VWS V14.01,2013-02-27 19:54:00,
2013-02-27 14:55:00,36.3,29.2,28.76,NNW,338,3.6,10.1,75,0.00,,---,0.08,VWS V14.01,2013-02-27 19:55:00,
2013-02-27 14:56:00,34.5,29.6,28.53,West,261,5.8,7.8,82,0.00,,---,0.12,VWS V14.01,2013-02-27 19:56:00,
2013-02-27 14:57:00,36.3,29.5,28.76,NNW,334,5.4,6.3,76,0.00,,---,0.08,VWS V14.01,2013-02-27 19:57:00,
2013-02-27 14:58:00,36.5,29.7,28.76,NNW,346,5.8,5.8,76,0.00,,---,0.08,VWS V14.01,2013-02-27 19:58:00,
2013-02-27 14:59:00,36.5,29.7,28.76,NNW,329,6.3,6.3,76,0.00,,---,0.08,VWS V14.01,2013-02-27 19:59:00,
2013-02-27 15:00:00,36.3,29.5,28.76,NW,309,4.9,8.7,76,0.00,,---,0.08,VWS V14.01,2013-02-27 20:00:00,
2013-02-27 15:01:00,34.5,29.6,28.53,West,274,5.4,7.4,82,0.00,,---,0.12,VWS V14.01,2013-02-27 20:01:00,
2013-02-27 15:02:00,36.3,29.5,28.76,NNW,333,8.7,8.7,76,0.00,,---,0.08,VWS V14.01,2013-02-27 20:02:00,
2013-02-27 15:03:00,36.3,29.5,28.76,NNW,330,4.9,8.7,76,0.00,,---,0.08,VWS V14.01,2013-02-27 20:03:00,
2013-02-27 15:04:00,36.3,29.5,28.76,NNW,330,3.6,5.4,76,0.00,,---,0.08,VWS V14.01,2013-02-27 20:04:00,
2013-02-27 15:05:00,36.3,29.5,28.76,NNW,339,0.0,4.9,76,0.00,,---,0.08,VWS V14.01,2013-02-27 20:05:00,
2013-02-27 15:06:00,34.5,29.9,28.53,WSW,255,11.2,14.3,83,0.00,,---,0.12,VWS V14.01,2013-02-27 20:06:00,
2013-02-27 15:07:00,36.1,29.3,28.76,NNW,328,0.0,6.9,76,0.00,,---,0.08,VWS V14.01,2013-02-27 20:07:00,
2013-02-27 15:08:00,36.3,29.5,28.76,NW,308,0.0,4.9,76,0.00,,---,0.08,VWS V14.01,2013-02-27 20:08:00,
2013-02-27 15:09:00,36.3,29.5,28.76,NW,307,4.5,5.8,76,0.00,,---,0.08,VWS V14.01,2013-02-27 20:09:00,
2013-02-27 15:10:00,36.3,29.5,28.76,NNW,333,5.8,8.3,76,0.00,,---,0.08,VWS V14.01,2013-02-27 20:10:00,
2013-02-27 15:11:00,34.3,29.7,28.53,West,273,4.9,15.2,83,0.00,,---,0.12,VWS V14.01,2013-02-27 20:11:00,
2013-02-27 15:12:00,36.1,29.3,28.76,NNW,332,7.4,7.8,76,0.00,,---,0.08,VWS V14.01,2013-02-27 20:12:00,
2013-02-27 15:13:00,36.1,29.0,28.76,NNW,337,6.3,7.4,75,0.00,,---,0.08,VWS V14.01,2013-02-27 20:13:00,
2013-02-27 15:14:00,36.1,29.0,28.76,NW,319,4.9,6.9,75,0.00,,---,0.08,VWS V14.01,2013-02-27 20:14:00,
2013-02-27 15:15:00,36.1,29.0,28.76,NNW,329,6.9,7.8,75,0.00,,---,0.08,VWS V14.01,2013-02-27 20:15:00,
2013-02-27 15:16:00,34.3,29.4,28.56,WSW,251,10.1,15.2,82,0.00,,---,0.12,VWS V14.01,2013-02-27 20:16:00,
2013-02-27 15:17:00,36.1,29.0,28.76,WNW,297,4.9,5.8,75,0.00,,---,0.08,VWS V14.01,2013-02-27 20:17:00,
2013-02-27 15:18:00,36.1,29.0,28.76,North,351,9.2,9.6,75,0.00,,---,0.08,VWS V14.01,2013-02-27 20:18:00,
2013-02-27 15:19:00,36.0,28.8,28.76,NNW,340,5.4,9.2,75,0.00,,---,0.08,VWS V14.01,2013-02-27 20:19:00,
2013-02-27 15:20:00,36.0,28.8,28.76,NNW,333,8.7,10.1,75,0.00,,---,0.08,VWS V14.01,2013-02-27 20:20:00,
2013-02-27 15:21:00,34.2,29.5,28.56,WSW,252,9.6,12.1,83,0.00,,---,0.12,VWS V14.01,2013-02-27 20:21:00,
2013-02-27 15:22:00,36.0,28.8,28.76,NNW,336,7.4,10.1,75,0.00,,---,0.08,VWS V14.01,2013-02-27 20:22:00,
2013-02-27 15:23:00,36.0,28.8,28.76,NW,326,6.9,8.7,75,0.00,,---,0.08,VWS V14.01,2013-02-27 20:23:00,
2013-02-27 15:24:00,36.0,28.8,28.76,WNW,296,4.9,6.9,75,0.00,,---,0.08,VWS V14.01,2013-02-27 20:24:00,
2013-02-27 15:25:00,36.0,28.8,28.76,NNW,342,6.7,8.7,75,0.00,,---,0.08,VWS V14.01,2013-02-27 20:25:00,
2013-02-27 15:26:00,34.2,29.8,28.56,WSW,248,5.4,10.5,84,0.00,,---,0.12,VWS V14.01,2013-02-27 20:26:00,
2013-02-27 15:27:00,36.0,28.8,28.76,NNW,335,5.4,7.4,75,0.00,,---,0.08,VWS V14.01,2013-02-27 20:27:00,
2013-02-27 15:28:00,36.1,29.0,28.76,North,351,4.5,6.3,75,0.00,,---,0.08,VWS V14.01,2013-02-27 20:28:00,
2013-02-27 15:29:00,36.1,29.0,28.76,NW,304,4.0,7.8,75,0.00,,---,0.08,VWS V14.01,2013-02-27 20:29:00,
2013-02-27 15:30:00,36.3,29.5,28.76,NW,324,6.9,6.9,76,0.00,,---,0.08,VWS V14.01,2013-02-27 20:30:00,
2013-02-27 15:31:00,34.2,29.8,28.56,West,267,11.6,12.5,84,0.00,,---,0.12,VWS V14.01,2013-02-27 20:31:00,
2013-02-27 15:32:00,36.3,29.5,28.76,NW,321,6.9,7.4,76,0.00,,---,0.08,VWS V14.01,2013-02-27 20:32:00,
2013-02-27 15:33:00,36.3,29.5,28.76,NNW,333,7.4,11.0,76,0.00,,---,0.08,VWS V14.01,2013-02-27 20:33:00,
2013-02-27 15:34:00,36.3,29.5,28.76,NW,312,7.4,10.5,76,0.00,,---,0.08,VWS V14.01,2013-02-27 20:34:00,
2013-02-27 15:36:00,34.2,30.1,28.56,WSW,252,5.8,10.1,85,0.00,,---,0.12,VWS V14.01,2013-02-27 20:36:00,
2013-02-27 15:37:00,36.3,29.5,28.76,NNW,335,6.3,9.6,76,0.00,,---,0.08,VWS V14.01,2013-02-27 20:37:00,
2013-02-27 15:38:00,36.5,29.7,28.76,NNW,340,5.4,7.8,76,0.00,,---,0.08,VWS V14.01,2013-02-27 20:38:00,
2013-02-27 15:39:00,36.3,29.5,28.76,NW,325,3.1,9.6,76,0.00,,---,0.08,VWS V14.01,2013-02-27 20:39:00,
2013-02-27 15:40:00,36.5,29.3,28.76,NNW,337,5.4,6.7,75,0.00,,---,0.08,VWS V14.01,2013-02-27 20:40:00,
2013-02-27 15:41:00,36.7,29.8,28.76,NNW,329,5.8,6.7,76,0.00,,---,0.08,VWS V14.01,2013-02-27 20:41:00,
2013-02-27 15:42:00,36.7,29.5,28.76,NW,320,5.8,9.2,75,0.00,,---,0.08,VWS V14.01,2013-02-27 20:42:00,
2013-02-27 15:43:00,36.7,29.5,28.76,WNW,296,6.9,6.9,75,0.00,,---,0.08,VWS V14.01,2013-02-27 20:43:00,
2013-02-27 15:44:00,36.7,29.5,28.76,NNW,338,7.8,9.6,75,0.00,,---,0.08,VWS V14.01,2013-02-27 20:44:00,
2013-02-27 15:45:00,36.7,29.5,28.76,NNW,328,6.3,9.2,75,0.00,,---,0.08,VWS V14.01,2013-02-27 20:45:00,
2013-02-27 15:46:00,36.9,29.7,28.76,NW,324,5.8,6.9,75,0.00,,---,0.08,VWS V14.01,2013-02-27 20:46:00,
2013-02-27 15:47:00,36.7,29.5,28.76,NNW,331,5.4,9.2,75,0.00,,---,0.08,VWS V14.01,2013-02-27 20:47:00,
2013-02-27 15:48:00,36.9,29.4,28.76,NNW,342,6.7,8.3,74,0.00,,---,0.08,VWS V14.01,2013-02-27 20:48:00,
2013-02-27 15:49:00,36.9,29.4,28.76,NNW,341,6.9,10.5,74,0.00,,---,0.08,VWS V14.01,2013-02-27 20:49:00,
2013-02-27 15:50:00,37.0,29.5,28.76,NNW,329,4.9,6.9,74,0.00,,---,0.08,VWS V14.01,2013-02-27 20:50:00,
2013-02-27 15:51:00,37.0,29.5,28.76,NNW,332,6.3,6.9,74,0.00,,---,0.08,VWS V14.01,2013-02-27 20:51:00,
2013-02-27 15:52:00,37.2,29.7,28.76,NW,324,2.7,6.7,74,0.00,,---,0.08,VWS V14.01,2013-02-27 20:52:00,
2013-02-27 15:53:00,37.4,29.9,28.76,NNW,327,5.4,5.4,74,0.00,,---,0.08,VWS V14.01,2013-02-27 20:53:00,
2013-02-27 15:54:00,37.6,30.1,28.76,North,351,6.3,6.3,74,0.00,,---,0.08,VWS V14.01,2013-02-27 20:54:00,
2013-02-27 15:55:00,37.6,30.1,28.76,NW,317,5.8,7.4,74,0.00,,---,0.08,VWS V14.01,2013-02-27 20:55:00,
2013-02-27 15:56:00,37.6,30.1,28.76,NW,319,7.4,8.3,74,0.00,,---,0.08,VWS V14.01,2013-02-27 20:56:00,
2013-02-27 15:57:00,37.6,29.7,28.76,NNW,329,5.4,7.4,73,0.00,,---,0.08,VWS V14.01,2013-02-27 20:57:00,
2013-02-27 15:58:00,37.6,29.7,28.76,NNW,343,0.0,6.7,73,0.00,,---,0.08,VWS V14.01,2013-02-27 20:58:00,
2013-02-27 15:59:00,37.6,29.7,28.76,WNW,298,5.4,6.7,73,0.00,,---,0.08,VWS V14.01,2013-02-27 20:59:00,
2013-02-27 16:00:00,37.6,29.7,28.76,NNW,333,4.0,6.7,73,0.00,,---,0.08,VWS V14.01,2013-02-27 21:00:00,
2013-02-27 16:01:00,37.6,29.7,28.76,WNW,293,4.9,4.9,73,0.00,,---,0.08,VWS V14.01,2013-02-27 21:01:00,
2013-02-27 16:02:00,37.6,29.7,28.76,NNW,332,6.3,6.7,73,0.00,,---,0.08,VWS V14.01,2013-02-27 21:02:00,
2013-02-27 16:03:00,37.6,29.7,28.76,WNW,293,6.7,8.3,73,0.00,,---,0.08,VWS V14.01,2013-02-27 21:03:00,
2013-02-27 16:04:00,37.4,29.2,28.76,NNW,341,6.9,9.2,72,0.00,,---,0.08,VWS V14.01,2013-02-27 21:04:00,
2013-02-27 16:05:00,37.4,29.2,28.76,NNW,331,4.5,6.9,72,0.00,,---,0.08,VWS V14.01,2013-02-27 21:05:00,
2013-02-27 16:06:00,37.4,29.2,28.76,NNW,333,6.7,9.6,72,0.00,,---,0.08,VWS V14.01,2013-02-27 21:06:00,
2013-02-27 16:07:00,33.8,30.6,28.56,WNW,285,14.8,14.8,88,0.00,,---,0.12,VWS V14.01,2013-02-27 21:07:00,
2013-02-27 16:08:00,37.4,29.2,28.76,NNW,329,7.4,9.6,72,0.00,,---,0.08,VWS V14.01,2013-02-27 21:08:00,
2013-02-27 16:09:00,37.4,29.2,28.76,NNW,331,4.5,8.3,72,0.00,,---,0.08,VWS V14.01,2013-02-27 21:09:00,
2013-02-27 16:10:00,37.4,29.2,28.76,NNW,331,0.0,6.9,72,0.00,,---,0.08,VWS V14.01,2013-02-27 21:10:00,
2013-02-27 16:11:00,37.4,29.2,28.76,North,351,4.9,6.9,72,0.00,,---,0.08,VWS V14.01,2013-02-27 21:11:00,
2013-02-27 16:12:00,37.4,29.2,28.76,NW,325,5.8,6.9,72,0.00,,---,0.08,VWS V14.01,2013-02-27 21:12:00,
2013-02-27 16:13:00,37.2,29.0,28.76,NNW,338,6.3,8.3,72,0.00,,---,0.08,VWS V14.01,2013-02-27 21:13:00,
2013-02-27 16:14:00,37.0,28.9,28.76,NNW,337,6.3,9.2,72,0.00,,---,0.08,VWS V14.01,2013-02-27 21:14:00,
2013-02-27 16:15:00,37.0,28.5,28.76,NNW,339,4.0,6.9,71,0.00,,---,0.08,VWS V14.01,2013-02-27 21:15:00,
2013-02-27 16:16:00,37.0,28.5,28.76,North,10,4.0,7.8,71,0.00,,---,0.08,VWS V14.01,2013-02-27 21:16:00,
2013-02-27 16:17:00,37.0,28.5,28.76,North,351,3.6,6.9,71,0.00,,---,0.08,VWS V14.01,2013-02-27 21:17:00,
2013-02-27 16:18:00,36.9,28.4,28.76,NNW,337,4.9,7.8,71,0.00,,---,0.08,VWS V14.01,2013-02-27 21:18:00,
2013-02-27 16:19:00,37.0,28.9,28.76,NW,309,5.8,5.8,72,0.00,,---,0.08,VWS V14.01,2013-02-27 21:19:00,
2013-02-27 16:20:00,37.0,28.9,28.76,NW,321,2.7,7.4,72,0.00,,---,0.08,VWS V14.01,2013-02-27 21:20:00,
2013-02-27 16:21:00,33.8,30.9,28.56,West,261,4.9,10.1,89,0.00,,---,0.12,VWS V14.01,2013-02-27 21:21:00,
2013-02-27 16:22:00,37.0,28.9,28.76,NW,322,2.7,6.7,72,0.00,,---,0.08,VWS V14.01,2013-02-27 21:22:00,
2013-02-27 16:23:00,37.0,28.9,28.76,NNW,339,5.4,5.4,72,0.00,,---,0.08,VWS V14.01,2013-02-27 21:23:00,
2013-02-27 16:24:00,37.0,29.2,28.76,NNW,336,5.8,7.4,73,0.00,,---,0.08,VWS V14.01,2013-02-27 21:24:00,
2013-02-27 16:25:00,37.0,29.2,28.76,North,5,4.9,6.9,73,0.00,,---,0.08,VWS V14.01,2013-02-27 21:25:00,
2013-02-27 16:26:00,33.8,30.9,28.56,West,281,7.4,9.2,89,0.00,,---,0.12,VWS V14.01,2013-02-27 21:26:00,
2013-02-27 16:27:00,36.9,28.7,28.76,NNW,343,5.4,7.4,72,0.00,,---,0.08,VWS V14.01,2013-02-27 21:27:00,
2013-02-27 16:28:00,36.9,29.0,28.76,NNW,347,2.7,5.4,73,0.00,,---,0.08,VWS V14.01,2013-02-27 21:28:00,
2013-02-27 16:29:00,36.9,29.0,28.76,NNW,343,4.5,6.7,73,0.00,,---,0.08,VWS V14.01,2013-02-27 21:29:00,
2013-02-27 16:30:00,36.9,29.0,28.76,North,351,6.9,7.4,73,0.00,,---,0.08,VWS V14.01,2013-02-27 21:30:00,
2013-02-27 16:31:00,36.9,29.0,28.76,NNW,338,4.0,6.9,73,0.00,,---,0.08,VWS V14.01,2013-02-27 21:31:00,
2013-02-27 16:32:00,36.9,29.4,28.76,North,351,4.0,5.8,74,0.00,,---,0.08,VWS V14.01,2013-02-27 21:32:00,
2013-02-27 16:33:00,36.9,29.4,28.76,North,351,4.0,6.7,74,0.00,,---,0.08,VWS V14.01,2013-02-27 21:33:00,
2013-02-27 16:34:00,33.8,30.9,28.56,West,269,9.2,12.1,89,0.00,,---,0.12,VWS V14.01,2013-02-27 21:34:00,
2013-02-27 16:35:00,36.9,29.7,28.76,NNW,342,5.4,6.9,75,0.00,,---,0.08,VWS V14.01,2013-02-27 21:35:00,
2013-02-27 16:36:00,36.9,29.7,28.76,NW,325,4.9,6.7,75,0.00,,---,0.08,VWS V14.01,2013-02-27 21:36:00,
2013-02-27 16:37:00,36.9,29.7,28.76,NNW,341,2.7,5.8,75,0.00,,---,0.08,VWS V14.01,2013-02-27 21:37:00,
2013-02-27 16:38:00,36.9,30.0,28.76,NNW,341,4.5,6.3,76,0.00,,---,0.08,VWS V14.01,2013-02-27 21:38:00,
2013-02-27 16:39:00,33.8,30.9,28.56,SW,230,6.7,8.7,89,0.00,,---,0.12,VWS V14.01,2013-02-27 21:39:00,
2013-02-27 16:40:00,36.9,30.0,28.76,NNW,338,4.9,4.9,76,0.00,,---,0.08,VWS V14.01,2013-02-27 21:40:00,
2013-02-27 16:41:00,37.0,30.2,28.76,NNW,347,6.3,6.3,76,0.00,,---,0.08,VWS V14.01,2013-02-27 21:41:00,
2013-02-27 16:42:00,37.0,30.2,28.76,North,6,5.8,9.2,76,0.00,,---,0.08,VWS V14.01,2013-02-27 21:42:00,
2013-02-27 16:43:00,37.0,30.2,28.76,NNW,336,9.6,9.6,76,0.00,,---,0.08,VWS V14.01,2013-02-27 21:43:00,
2013-02-27 16:44:00,33.8,31.2,28.56,WNW,282,9.6,12.5,90,0.00,,---,0.12,VWS V14.01,2013-02-27 21:44:00,
2013-02-27 16:45:00,37.0,30.2,28.76,NNW,343,4.5,6.3,76,0.00,,---,0.08,VWS V14.01,2013-02-27 21:45:00,
2013-02-27 16:46:00,37.0,30.2,28.76,NNW,335,3.6,7.8,76,0.00,,---,0.08,VWS V14.01,2013-02-27 21:46:00,
2013-02-27 16:47:00,37.0,30.2,28.76,NNW,343,5.8,7.8,76,0.00,,---,0.08,VWS V14.01,2013-02-27 21:47:00,
2013-02-27 16:50:00,36.9,30.3,28.76,NW,308,7.8,7.8,77,0.00,,---,0.08,VWS V14.01,2013-02-27 21:50:00,
2013-02-27 16:51:00,36.7,30.2,28.79,NNW,331,7.8,7.8,77,0.00,,---,0.08,VWS V14.01,2013-02-27 21:51:00,
2013-02-27 16:52:00,36.7,30.5,28.79,NW,313,6.7,8.7,78,0.00,,---,0.08,VWS V14.01,2013-02-27 21:52:00,
2013-02-27 16:53:00,33.6,31.0,28.56,West,272,6.3,11.6,90,0.00,,---,0.12,VWS V14.01,2013-02-27 21:53:00,
2013-02-27 16:54:00,36.7,30.8,28.79,NNW,331,4.0,7.4,79,0.00,,---,0.08,VWS V14.01,2013-02-27 21:54:00,
2013-02-27 16:55:00,36.9,31.0,28.79,NNW,332,4.9,5.8,79,0.00,,---,0.08,VWS V14.01,2013-02-27 21:55:00,
2013-02-27 16:56:00,36.9,31.3,28.79,NW,325,5.4,6.7,80,0.00,,---,0.08,VWS V14.01,2013-02-27 21:56:00,
2013-02-27 16:57:00,36.9,31.3,28.79,NW,324,2.7,6.7,80,0.00,,---,0.08,VWS V14.01,2013-02-27 21:57:00,
2013-02-27 16:58:00,36.9,31.3,28.79,NNW,340,6.9,6.9,80,0.00,,---,0.08,VWS V14.01,2013-02-27 21:58:00,
2013-02-27 16:59:00,36.9,31.3,28.79,NNW,339,5.4,8.3,80,0.00,,---,0.08,VWS V14.01,2013-02-27 21:59:00,
2013-02-27 17:00:00,36.9,31.3,28.79,NNW,342,6.3,9.6,80,0.00,,---,0.08,VWS V14.01,2013-02-27 22:00:00,
2013-02-27 17:01:00,36.9,31.0,28.79,NNW,336,5.8,7.8,79,0.00,,---,0.08,VWS V14.01,2013-02-27 22:01:00,
2013-02-27 17:02:00,36.9,31.0,28.79,NNW,340,4.5,5.8,79,0.00,,---,0.08,VWS V14.01,2013-02-27 22:02:00,
2013-02-27 17:03:00,36.9,31.0,28.79,NNW,336,9.6,10.1,79,0.00,,---,0.08,VWS V14.01,2013-02-27 22:03:00,
2013-02-27 17:04:00,36.9,30.6,28.79,NW,324,5.4,9.6,78,0.00,,---,0.08,VWS V14.01,2013-02-27 22:04:00,
2013-02-27 17:05:00,37.0,30.8,28.79,NNW,331,4.9,5.8,78,0.00,,---,0.08,VWS V14.01,2013-02-27 22:05:00,
2013-02-27 17:06:00,36.9,30.6,28.79,NW,317,5.8,7.4,78,0.00,,---,0.08,VWS V14.01,2013-02-27 22:06:00,
2013-02-27 17:07:00,33.4,31.1,28.56,WSW,243,6.3,15.2,91,0.00,,---,0.12,VWS V14.01,2013-02-27 22:07:00,
2013-02-27 17:08:00,36.9,30.0,28.79,NNW,339,7.4,8.7,76,0.00,,---,0.08,VWS V14.01,2013-02-27 22:08:00,
2013-02-27 17:09:00,36.9,30.0,28.79,NNW,339,9.2,9.6,76,0.00,,---,0.08,VWS V14.01,2013-02-27 22:09:00,
2013-02-27 17:10:00,36.9,29.7,28.79,SW,214,5.4,12.5,75,0.00,,---,0.08,VWS V14.01,2013-02-27 22:10:00,
2013-02-27 17:11:00,36.9,29.7,28.79,NNW,335,4.9,5.8,75,0.00,,---,0.08,VWS V14.01,2013-02-27 22:11:00,
2013-02-27 17:12:00,36.9,29.7,28.79,NW,317,4.9,6.3,75,0.00,,---,0.08,VWS V14.01,2013-02-27 22:12:00,
2013-02-27 17:13:00,36.9,29.7,28.79,NNW,344,4.5,6.9,75,0.00,,---,0.08,VWS V14.01,2013-02-27 22:13:00,
2013-02-27 17:14:00,36.9,29.7,28.79,North,351,4.5,5.8,75,0.00,,---,0.08,VWS V14.01,2013-02-27 22:14:00,
2013-02-27 17:15:00,36.9,29.7,28.79,NW,322,6.9,8.7,75,0.00,,---,0.08,VWS V14.01,2013-02-27 22:15:00,
2013-02-27 17:16:00,36.7,29.2,28.79,NNW,334,6.3,8.3,74,0.00,,---,0.08,VWS V14.01,2013-02-27 22:16:00,
2013-02-27 17:17:00,36.7,29.2,28.79,NNW,347,3.1,7.8,74,0.00,,---,0.08,VWS V14.01,2013-02-27 22:17:00,
2013-02-27 17:18:00,36.7,29.2,28.79,NNW,340,6.7,11.2,74,0.00,,---,0.08,VWS V14.01,2013-02-27 22:18:00,
2013-02-27 17:19:00,36.7,29.2,28.79,NNW,334,6.3,9.2,74,0.00,,---,0.08,VWS V14.01,2013-02-27 22:19:00,
2013-02-27 17:20:00,36.7,29.2,28.79,NNW,338,4.5,7.4,74,0.00,,---,0.08,VWS V14.01,2013-02-27 22:20:00,
2013-02-27 17:21:00,36.7,29.2,28.79,North,351,4.9,6.7,74,0.00,,---,0.08,VWS V14.01,2013-02-27 22:21:00,
2013-02-27 17:22:00,36.7,29.2,28.79,NNW,336,4.0,7.8,74,0.00,,---,0.08,VWS V14.01,2013-02-27 22:22:00,
2013-02-27 17:23:00,36.7,29.5,28.79,NNW,334,6.7,6.7,75,0.00,,---,0.08,VWS V14.01,2013-02-27 22:23:00,
2013-02-27 17:24:00,36.5,29.3,28.79,NNW,333,5.8,10.1,75,0.00,,---,0.08,VWS V14.01,2013-02-27 22:24:00,
2013-02-27 17:25:00,36.5,29.3,28.79,NNW,333,4.0,5.8,75,0.00,,---,0.08,VWS V14.01,2013-02-27 22:25:00,
2013-02-27 17:26:00,36.5,29.3,28.79,NNW,334,3.6,6.7,75,0.00,,---,0.08,VWS V14.01,2013-02-27 22:26:00,
2013-02-27 17:27:00,36.5,29.3,28.79,NNW,339,4.0,5.8,75,0.00,,---,0.08,VWS V14.01,2013-02-27 22:27:00,
2013-02-27 17:28:00,33.3,31.7,28.56,WSW,244,9.6,14.3,94,0.00,,---,0.12,VWS V14.01,2013-02-27 22:28:00,
2013-02-27 17:29:00,36.3,29.5,28.79,NW,315,7.4,7.8,76,0.00,,---,0.08,VWS V14.01,2013-02-27 22:29:00,
2013-02-27 17:30:00,36.3,29.8,28.79,NNW,330,5.4,10.5,77,0.00,,---,0.08,VWS V14.01,2013-02-27 22:30:00,
2013-02-27 17:31:00,36.3,29.8,28.79,North,351,5.8,6.9,77,0.00,,---,0.08,VWS V14.01,2013-02-27 22:31:00,
2013-02-27 17:32:00,36.3,29.8,28.79,NNW,335,5.4,6.3,77,0.00,,---,0.08,VWS V14.01,2013-02-27 22:32:00,
2013-02-27 17:33:00,33.3,32.0,28.56,NW,305,7.4,7.4,95,0.00,,---,0.12,VWS V14.01,2013-02-27 22:33:00,
2013-02-27 17:34:00,36.3,30.1,28.79,NW,316,6.3,6.3,78,0.00,,---,0.08,VWS V14.01,2013-02-27 22:34:00,
2013-02-27 17:35:00,36.1,30.3,28.79,NNW,343,3.1,9.2,79,0.00,,---,0.08,VWS V14.01,2013-02-27 22:35:00,
2013-02-27 17:36:00,36.1,30.3,28.79,NNW,335,4.9,6.9,79,0.00,,---,0.08,VWS V14.01,2013-02-27 22:36:00,
2013-02-27 17:37:00,36.1,30.6,28.79,NW,315,7.8,7.8,80,0.00,,---,0.08,VWS V14.01,2013-02-27 22:37:00,
2013-02-27 17:38:00,33.3,32.0,28.56,WSW,247,6.9,10.5,95,0.00,,---,0.12,VWS V14.01,2013-02-27 22:38:00,
2013-02-27 17:39:00,36.1,30.6,28.79,NW,313,6.9,8.3,80,0.00,,---,0.08,VWS V14.01,2013-02-27 22:39:00,
2013-02-27 17:40:00,36.1,30.6,28.79,NNW,331,5.8,6.9,80,0.00,,---,0.08,VWS V14.01,2013-02-27 22:40:00,
2013-02-27 17:41:00,36.1,30.6,28.79,NNW,340,6.9,6.9,80,0.00,,---,0.08,VWS V14.01,2013-02-27 22:41:00,
2013-02-27 17:42:00,36.1,30.6,28.79,NW,312,5.4,8.3,80,0.00,,---,0.08,VWS V14.01,2013-02-27 22:42:00,
2013-02-27 17:43:00,33.3,32.0,28.56,WNW,282,6.7,8.3,95,0.00,,---,0.12,VWS V14.01,2013-02-27 22:43:00,
2013-02-27 17:44:00,36.1,30.6,28.79,North,351,3.1,7.8,80,0.00,,---,0.08,VWS V14.01,2013-02-27 22:44:00,
2013-02-27 17:45:00,36.1,30.6,28.79,NNW,347,4.5,6.3,80,0.00,,---,0.08,VWS V14.01,2013-02-27 22:45:00,
2013-02-27 17:46:00,36.1,30.6,28.79,North,6,3.6,8.7,80,0.00,,---,0.08,VWS V14.01,2013-02-27 22:46:00,
2013-02-27 17:47:00,36.1,30.6,28.79,NW,324,4.5,5.4,80,0.00,,---,0.08,VWS V14.01,2013-02-27 22:47:00,
2013-02-27 17:48:00,33.3,32.0,28.56,WSW,246,6.9,11.2,95,0.00,,---,0.12,VWS V14.01,2013-02-27 22:48:00,
2013-02-27 17:49:00,36.1,30.6,28.79,NNW,327,4.0,6.9,80,0.00,,---,0.08,VWS V14.01,2013-02-27 22:49:00,
2013-02-27 17:50:00,36.1,30.6,28.79,NNW,339,4.5,5.8,80,0.00,,---,0.08,VWS V14.01,2013-02-27 22:50:00,
2013-02-27 17:51:00,36.1,30.6,28.79,NNW,329,3.6,6.7,80,0.00,,---,0.08,VWS V14.01,2013-02-27 22:51:00,
2013-02-27 17:52:00,36.1,30.9,28.79,NNW,327,4.9,5.8,81,0.00,,---,0.08,VWS V14.01,2013-02-27 22:52:00,
2013-02-27 17:53:00,33.3,32.2,28.56,WNW,286,4.9,9.6,96,0.00,,---,0.12,VWS V14.01,2013-02-27 22:53:00,
2013-02-27 17:54:00,36.1,30.9,28.79,NNW,337,2.7,6.3,81,0.00,,---,0.08,VWS V14.01,2013-02-27 22:54:00,
2013-02-27 17:55:00,36.1,30.9,28.79,NNW,336,4.9,5.4,81,0.00,,---,0.08,VWS V14.01,2013-02-27 22:55:00,
2013-02-27 17:56:00,36.1,30.9,28.79,NW,326,4.9,7.4,81,0.00,,---,0.08,VWS V14.01,2013-02-27 22:56:00,
2013-02-27 17:57:00,36.1,30.6,28.79,NW,318,6.3,7.4,80,0.00,,---,0.08,VWS V14.01,2013-02-27 22:57:00,
2013-02-27 17:58:00,33.3,32.2,28.59,WNW,285,7.4,7.4,96,0.00,,---,0.12,VWS V14.01,2013-02-27 22:58:00,
2013-02-27 17:59:00,36.1,30.6,28.79,NNW,329,4.0,6.3,80,0.00,,---,0.08,VWS V14.01,2013-02-27 22:59:00,
2013-02-27 18:00:00,36.1,30.6,28.79,North,351,6.7,6.7,80,0.00,,---,0.08,VWS V14.01,2013-02-27 23:00:00,
2013-02-27 18:01:00,36.1,30.6,28.79,North,356,4.5,6.9,80,0.00,,---,0.08,VWS V14.01,2013-02-27 23:01:00,
2013-02-27 18:02:00,36.1,30.6,28.79,NNW,343,5.8,6.9,80,0.00,,---,0.08,VWS V14.01,2013-02-27 23:02:00,
2013-02-27 18:03:00,33.3,32.2,28.59,WSW,240,6.9,8.7,96,0.00,,---,0.12,VWS V14.01,2013-02-27 23:03:00,
2013-02-27 18:04:00,36.1,30.6,28.79,NNW,327,5.8,6.3,80,0.00,,---,0.08,VWS V14.01,2013-02-27 23:04:00,
2013-02-27 18:05:00,36.1,30.6,28.79,NW,322,4.0,6.9,80,0.00,,---,0.08,VWS V14.01,2013-02-27 23:05:00,
2013-02-27 18:06:00,36.1,30.6,28.82,NNW,329,2.7,5.4,80,0.00,,---,0.08,VWS V14.01,2013-02-27 23:06:00,
2013-02-27 18:07:00,36.1,30.6,28.82,NNW,343,3.1,8.3,80,0.00,,---,0.08,VWS V14.01,2013-02-27 23:07:00,
2013-02-27 18:08:00,33.3,32.2,28.59,West,276,5.8,7.4,96,0.00,,---,0.12,VWS V14.01,2013-02-27 23:08:00,
2013-02-27 18:09:00,36.1,30.9,28.82,NNW,332,4.0,5.4,81,0.00,,---,0.08,VWS V14.01,2013-02-27 23:09:00,
2013-02-27 18:10:00,36.0,30.7,28.82,NNW,332,5.8,6.7,81,0.00,,---,0.08,VWS V14.01,2013-02-27 23:10:00,
2013-02-27 18:11:00,36.0,30.7,28.82,NNW,347,4.9,6.7,81,0.00,,---,0.08,VWS V14.01,2013-02-27 23:11:00,
2013-02-27 18:12:00,36.0,30.7,28.82,NNW,329,6.7,6.7,81,0.00,,---,0.08,VWS V14.01,2013-02-27 23:12:00,
2013-02-27 18:13:00,33.1,32.1,28.59,West,271,10.5,10.5,96,0.00,,---,0.12,VWS V14.01,2013-02-27 23:13:00,
2013-02-27 18:14:00,36.0,30.7,28.82,NNW,335,5.4,5.8,81,0.00,,---,0.08,VWS V14.01,2013-02-27 23:14:00,
2013-02-27 18:15:00,35.8,30.5,28.82,NNW,336,6.9,7.4,81,0.00,,---,0.08,VWS V14.01,2013-02-27 23:15:00,
2013-02-27 18:16:00,35.8,30.8,28.82,NNW,336,5.8,6.9,82,0.00,,---,0.08,VWS V14.01,2013-02-27 23:16:00,
2013-02-27 18:17:00,35.8,30.8,28.82,NNW,343,3.1,6.3,82,0.00,,---,0.08,VWS V14.01,2013-02-27 23:17:00,
2013-02-27 18:18:00,33.1,32.3,28.59,West,259,3.1,6.9,97,0.00,,---,0.12,VWS V14.01,2013-02-27 23:18:00,
2013-02-27 18:19:00,35.8,30.8,28.82,North,351,6.9,6.9,82,0.00,,---,0.08,VWS V14.01,2013-02-27 23:19:00,
2013-02-27 18:20:00,35.8,31.1,28.82,NNW,341,4.0,6.9,83,0.00,,---,0.08,VWS V14.01,2013-02-27 23:20:00,
2013-02-27 18:21:00,35.8,31.1,28.82,NNW,335,0.0,6.7,83,0.00,,---,0.08,VWS V14.01,2013-02-27 23:21:00,
2013-02-27 18:22:00,35.8,31.1,28.82,NNW,337,4.5,6.3,83,0.00,,---,0.08,VWS V14.01,2013-02-27 23:22:00,
2013-02-27 18:23:00,33.1,32.3,28.59,West,269,6.9,10.1,97,0.00,,---,0.12,VWS V14.01,2013-02-27 23:23:00,
2013-02-27 18:24:00,35.8,31.4,28.82,NNW,337,3.1,4.5,84,0.00,,---,0.08,VWS V14.01,2013-02-27 23:24:00,
2013-02-27 18:25:00,35.8,31.4,28.82,NNW,338,4.5,5.8,84,0.00,,---,0.08,VWS V14.01,2013-02-27 23:25:00,
2013-02-27 18:26:00,35.8,31.4,28.82,NNW,332,4.5,7.4,84,0.00,,---,0.08,VWS V14.01,2013-02-27 23:26:00,
2013-02-27 18:27:00,35.8,31.4,28.82,NNW,340,3.6,5.4,84,0.00,,---,0.08,VWS V14.01,2013-02-27 23:27:00,
2013-02-27 18:28:00,33.1,32.3,28.59,WSW,246,6.9,11.2,97,0.00,,---,0.12,VWS V14.01,2013-02-27 23:28:00,
2013-02-27 18:29:00,35.8,31.7,28.82,NNW,347,4.5,6.7,85,0.00,,---,0.08,VWS V14.01,2013-02-27 23:29:00,
2013-02-27 18:30:00,35.8,31.7,28.82,NNW,336,6.7,6.9,85,0.00,,---,0.08,VWS V14.01,2013-02-27 23:30:00,
2013-02-27 18:31:00,35.6,31.5,28.82,NW,313,5.4,6.7,85,0.00,,---,0.08,VWS V14.01,2013-02-27 23:31:00,
2013-02-27 18:32:00,35.6,31.5,28.82,NNW,343,5.8,6.9,85,0.00,,---,0.08,VWS V14.01,2013-02-27 23:32:00,
2013-02-27 18:33:00,33.1,32.3,28.59,West,262,6.7,8.7,97,0.00,,---,0.12,VWS V14.01,2013-02-27 23:33:00,
2013-02-27 18:34:00,35.8,31.7,28.82,NNW,328,3.1,4.9,85,0.00,,---,0.08,VWS V14.01,2013-02-27 23:34:00,
2013-02-27 18:35:00,35.8,31.7,28.82,NNW,341,5.4,6.3,85,0.00,,---,0.08,VWS V14.01,2013-02-27 23:35:00,
2013-02-27 18:36:00,35.6,31.5,28.82,North,351,4.9,6.3,85,0.00,,---,0.08,VWS V14.01,2013-02-27 23:36:00,
2013-02-27 18:37:00,35.6,31.5,28.82,NNW,343,3.6,4.9,85,0.00,,---,0.08,VWS V14.01,2013-02-27 23:37:00,
2013-02-27 18:38:00,33.1,32.3,28.59,WNW,295,4.9,6.7,97,0.00,,---,0.12,VWS V14.01,2013-02-27 23:38:00,
2013-02-27 18:39:00,35.6,31.5,28.82,NNW,330,3.1,5.8,85,0.00,,---,0.08,VWS V14.01,2013-02-27 23:39:00,
2013-02-27 18:40:00,35.6,31.5,28.82,NNW,334,6.3,6.3,85,0.00,,---,0.08,VWS V14.01,2013-02-27 23:40:00,
2013-02-27 18:41:00,35.6,31.5,28.82,North,351,4.5,6.3,85,0.00,,---,0.08,VWS V14.01,2013-02-27 23:41:00,
2013-02-27 18:42:00,35.8,31.7,28.82,NW,321,4.5,4.9,85,0.00,,---,0.08,VWS V14.01,2013-02-27 23:42:00,
2013-02-27 18:43:00,32.9,32.1,28.59,WSW,258,11.6,13.0,97,0.00,,---,0.12,VWS V14.01,2013-02-27 23:43:00,
2013-02-27 18:44:00,35.8,31.7,28.82,NNW,338,4.9,5.8,85,0.00,,---,0.08,VWS V14.01,2013-02-27 23:44:00,
2013-02-27 18:45:00,35.8,31.7,28.82,NNW,341,4.9,6.3,85,0.00,,---,0.08,VWS V14.01,2013-02-27 23:45:00,
2013-02-27 18:46:00,35.8,31.7,28.82,NNW,330,6.3,6.3,85,0.00,,---,0.08,VWS V14.01,2013-02-27 23:46:00,
2013-02-27 18:47:00,35.8,31.7,28.82,NNW,332,4.5,6.3,85,0.00,,---,0.08,VWS V14.01,2013-02-27 23:47:00,
2013-02-27 18:48:00,32.7,32.0,28.59,West,261,4.5,9.6,97,0.00,,---,0.12,VWS V14.01,2013-02-27 23:48:00,
2013-02-27 18:49:00,35.8,31.7,28.82,NNW,329,4.9,4.9,85,0.00,,---,0.08,VWS V14.01,2013-02-27 23:49:00,
2013-02-27 18:50:00,35.8,31.7,28.82,NNW,329,0.0,4.9,85,0.00,,---,0.08,VWS V14.01,2013-02-27 23:50:00,
2013-02-27 18:51:00,35.8,31.4,28.82,NNW,331,4.0,4.5,84,0.00,,---,0.08,VWS V14.01,2013-02-27 23:51:00,
2013-02-27 18:52:00,35.8,31.4,28.82,NNW,331,3.1,4.5,84,0.00,,---,0.08,VWS V14.01,2013-02-27 23:52:00,
2013-02-27 18:53:00,32.7,31.7,28.59,SW,233,6.9,10.1,96,0.00,,---,0.12,VWS V14.01,2013-02-27 23:53:00,
2013-02-27 18:54:00,35.8,31.4,28.82,NNW,332,3.1,4.5,84,0.00,,---,0.08,VWS V14.01,2013-02-27 23:54:00,
2013-02-27 18:55:00,35.8,31.4,28.82,NNW,333,4.5,5.4,84,0.00,,---,0.08,VWS V14.01,2013-02-27 23:55:00,
2013-02-27 18:56:00,35.8,31.4,28.82,NNW,339,4.0,5.8,84,0.00,,---,0.08,VWS V14.01,2013-02-27 23:56:00,
2013-02-27 18:57:00,35.8,31.4,28.82,NNW,338,4.0,4.9,84,0.00,,---,0.08,VWS V14.01,2013-02-27 23:57:00,
2013-02-27 18:58:00,32.9,31.9,28.59,West,273,5.8,13.4,96,0.00,,---,0.12,VWS V14.01,2013-02-27 23:58:00,
2013-02-27 18:59:00,35.8,31.4,28.82,NNW,337,5.4,5.4,84,0.00,,---,0.08,VWS V14.01,2013-02-27 23:59:00,
2013-02-27 19:00:00,35.8,31.4,28.82,NNW,342,5.8,5.8,84,0.00,,---,0.08,VWS V14.01,2013-02-28 00:00:00,
2013-02-27 19:01:00,35.6,31.2,28.82,NNW,338,3.1,5.8,84,0.00,,---,0.08,VWS V14.01,2013-02-28 00:01:00,
2013-02-27 19:02:00,35.6,31.2,28.82,NNW,338,3.1,4.0,84,0.00,,---,0.08,VWS V14.01,2013-02-28 00:02:00,
2013-02-27 19:03:00,32.9,31.9,28.59,WSW,252,6.3,7.4,96,0.00,,---,0.12,VWS V14.01,2013-02-28 00:03:00,
2013-02-27 19:04:00,35.6,31.2,28.82,NNW,337,5.4,5.4,84,0.00,,---,0.08,VWS V14.01,2013-02-28 00:04:00,
2013-02-27 19:05:00,35.6,31.2,28.82,NNW,333,4.5,6.3,84,0.00,,---,0.08,VWS V14.01,2013-02-28 00:05:00,
2013-02-27 19:06:00,35.6,31.2,28.82,NNW,341,4.5,4.9,84,0.00,,---,0.08,VWS V14.01,2013-02-28 00:06:00,
2013-02-27 19:07:00,35.6,31.2,28.82,NNW,335,3.6,5.4,84,0.00,,---,0.08,VWS V14.01,2013-02-28 00:07:00,
2013-02-27 19:08:00,32.9,31.9,28.59,West,268,7.4,13.0,96,0.00,,---,0.12,VWS V14.01,2013-02-28 00:08:00,
2013-02-27 19:09:00,35.6,31.2,28.82,NNW,335,3.6,4.5,84,0.00,,---,0.08,VWS V14.01,2013-02-28 00:09:00,
2013-02-27 19:10:00,35.6,31.2,28.82,NNW,335,4.5,4.9,84,0.00,,---,0.08,VWS V14.01,2013-02-28 00:10:00,
2013-02-27 19:11:00,35.6,31.0,28.82,NNW,335,0.0,4.5,83,0.00,,---,0.08,VWS V14.01,2013-02-28 00:11:00,
2013-02-27 19:12:00,35.6,31.0,28.82,NNW,335,3.6,4.0,83,0.00,,---,0.08,VWS V14.01,2013-02-28 00:12:00,
2013-02-27 19:13:00,35.6,31.0,28.82,NNW,335,5.4,5.4,83,0.00,,---,0.08,VWS V14.01,2013-02-28 00:13:00,
2013-02-27 19:14:00,32.9,31.9,28.59,West,259,12.1,13.9,96,0.00,,---,0.12,VWS V14.01,2013-02-28 00:14:00,
2013-02-27 19:15:00,35.6,31.0,28.82,NNW,335,4.0,5.8,83,0.00,,---,0.08,VWS V14.01,2013-02-28 00:15:00,
2013-02-27 19:16:00,35.6,31.0,28.82,NNW,334,4.5,6.3,83,0.00,,---,0.08,VWS V14.01,2013-02-28 00:16:00,
2013-02-27 19:17:00,35.6,31.0,28.82,NNW,327,6.3,6.3,83,0.00,,---,0.08,VWS V14.01,2013-02-28 00:17:00,
2013-02-27 19:18:00,35.6,31.0,28.82,NNW,332,5.4,6.7,83,0.00,,---,0.08,VWS V14.01,2013-02-28 00:18:00,
2013-02-27 19:19:00,32.7,31.7,28.59,WSW,247,11.6,11.6,96,0.00,,---,0.12,VWS V14.01,2013-02-28 00:19:00,
2013-02-27 19:20:00,35.6,31.0,28.82,NNW,328,4.5,5.4,83,0.00,,---,0.08,VWS V14.01,2013-02-28 00:20:00,
2013-02-27 19:21:00,35.6,31.0,28.85,NW,324,4.0,4.5,83,0.00,,---,0.08,VWS V14.01,2013-02-28 00:21:00,
2013-02-27 19:22:00,35.6,31.0,28.85,NW,325,0.0,5.4,83,0.00,,---,0.08,VWS V14.01,2013-02-28 00:22:00,
2013-02-27 19:23:00,35.6,31.0,28.85,NW,325,4.5,5.4,83,0.00,,---,0.08,VWS V14.01,2013-02-28 00:23:00,
2013-02-27 19:24:00,32.7,31.5,28.59,WNW,296,8.7,13.0,95,0.00,,---,0.12,VWS V14.01,2013-02-28 00:24:00,
2013-02-27 19:25:00,35.6,31.0,28.85,NNW,340,6.7,6.7,83,0.00,,---,0.08,VWS V14.01,2013-02-28 00:25:00,
2013-02-27 19:26:00,35.6,31.0,28.85,NW,325,4.0,6.7,83,0.00,,---,0.08,VWS V14.01,2013-02-28 00:26:00,
2013-02-27 19:27:00,35.6,30.7,28.85,NW,318,4.9,6.3,82,0.00,,---,0.08,VWS V14.01,2013-02-28 00:27:00,
2013-02-27 19:28:00,35.6,30.7,28.85,NNW,347,4.5,5.8,82,0.00,,---,0.08,VWS V14.01,2013-02-28 00:28:00,
2013-02-27 19:29:00,35.6,30.7,28.85,NNW,341,5.4,5.4,82,0.00,,---,0.08,VWS V14.01,2013-02-28 00:29:00,
2013-02-27 19:30:00,32.7,31.5,28.59,West,260,15.4,15.4,95,0.00,,---,0.12,VWS V14.01,2013-02-28 00:30:00,
2013-02-27 19:31:00,35.6,30.7,28.85,NNW,333,6.7,7.4,82,0.00,,---,0.08,VWS V14.01,2013-02-28 00:31:00,
2013-02-27 19:32:00,35.6,30.7,28.85,NNW,328,4.5,6.7,82,0.00,,---,0.08,VWS V14.01,2013-02-28 00:32:00,
2013-02-27 19:33:00,35.6,30.7,28.85,NNW,341,4.9,6.3,82,0.00,,---,0.08,VWS V14.01,2013-02-28 00:33:00,
2013-02-27 19:34:00,35.6,30.7,28.85,NNW,327,4.5,4.9,82,0.00,,---,0.08,VWS V14.01,2013-02-28 00:34:00,
2013-02-27 19:35:00,32.7,31.5,28.59,SW,220,7.8,8.3,95,0.00,,---,0.12,VWS V14.01,2013-02-28 00:35:00,
2013-02-27 19:36:00,35.6,30.4,28.85,NNW,344,6.3,8.3,81,0.00,,---,0.08,VWS V14.01,2013-02-28 00:36:00,
2013-02-27 19:37:00,35.4,30.2,28.85,NNW,332,6.3,10.1,81,0.00,,---,0.08,VWS V14.01,2013-02-28 00:37:00,
2013-02-27 19:38:00,35.6,30.4,28.85,NNW,333,4.0,6.7,81,0.00,,---,0.08,VWS V14.01,2013-02-28 00:38:00,
2013-02-27 19:39:00,35.6,30.4,28.85,NW,317,8.3,8.3,81,0.00,,---,0.08,VWS V14.01,2013-02-28 00:39:00,
2013-02-27 19:40:00,32.5,31.0,28.59,WSW,245,12.1,12.1,94,0.00,,---,0.12,VWS V14.01,2013-02-28 00:40:00,
2013-02-27 19:41:00,35.4,30.2,28.85,NNE,16,3.1,5.8,81,0.00,,---,0.08,VWS V14.01,2013-02-28 00:41:00,
2013-02-27 19:42:00,35.4,30.2,28.85,NW,324,5.8,9.6,81,0.00,,---,0.08,VWS V14.01,2013-02-28 00:42:00,
2013-02-27 19:43:00,35.4,29.9,28.85,NW,324,5.8,7.8,80,0.00,,---,0.08,VWS V14.01,2013-02-28 00:43:00,
2013-02-27 19:44:00,35.4,29.9,28.85,NNW,339,7.4,8.3,80,0.00,,---,0.08,VWS V14.01,2013-02-28 00:44:00,
2013-02-27 19:45:00,32.5,31.0,28.59,WSW,258,5.8,11.0,94,0.00,,---,0.12,VWS V14.01,2013-02-28 00:45:00,
2013-02-27 19:46:00,35.4,29.9,28.85,NNW,339,6.3,6.9,80,0.00,,---,0.08,VWS V14.01,2013-02-28 00:46:00,
2013-02-27 19:47:00,35.4,29.9,28.85,NW,325,4.9,8.3,80,0.00,,---,0.08,VWS V14.01,2013-02-28 00:47:00,
2013-02-27 19:48:00,35.4,29.9,28.85,NW,324,4.9,5.8,80,0.00,,---,0.08,VWS V14.01,2013-02-28 00:48:00,
2013-02-27 19:49:00,35.4,29.9,28.85,NNW,342,4.0,5.4,80,0.00,,---,0.08,VWS V14.01,2013-02-28 00:49:00,
2013-02-27 19:50:00,32.7,31.2,28.59,WSW,255,10.5,13.0,94,0.00,,---,0.12,VWS V14.01,2013-02-28 00:50:00,
2013-02-27 19:51:00,35.4,29.9,28.85,North,356,3.6,7.4,80,0.00,,---,0.08,VWS V14.01,2013-02-28 00:51:00,
2013-02-27 19:52:00,35.4,29.9,28.85,NNW,341,4.5,5.8,80,0.00,,---,0.08,VWS V14.01,2013-02-28 00:52:00,
2013-02-27 19:53:00,35.4,29.9,28.85,NNW,330,5.4,5.8,80,0.00,,---,0.08,VWS V14.01,2013-02-28 00:53:00,
2013-02-27 19:54:00,35.4,29.9,28.85,NNW,341,4.5,6.9,80,0.00,,---,0.08,VWS V14.01,2013-02-28 00:54:00,
2013-02-27 19:55:00,35.4,29.9,28.85,NW,320,4.0,5.4,80,0.00,,---,0.08,VWS V14.01,2013-02-28 00:55:00,
2013-02-27 19:56:00,32.7,31.2,28.59,WSW,253,6.3,10.5,94,0.00,,---,0.12,VWS V14.01,2013-02-28 00:56:00,
2013-02-27 19:57:00,35.2,30.0,28.85,NNW,340,6.3,6.9,81,0.00,,---,0.08,VWS V14.01,2013-02-28 00:57:00,
2013-02-27 19:58:00,35.2,30.0,28.85,NNW,327,3.6,6.3,81,0.00,,---,0.08,VWS V14.01,2013-02-28 00:58:00,
2013-02-27 19:59:00,35.2,30.0,28.85,NNW,338,5.4,7.4,81,0.00,,---,0.08,VWS V14.01,2013-02-28 00:59:00,
2013-02-27 20:00:00,32.7,31.2,28.59,WSW,258,5.8,9.2,94,0.00,,---,0.12,VWS V14.01,2013-02-28 01:00:00,
2013-02-27 20:01:00,35.2,30.0,28.85,NNW,332,3.6,5.8,81,0.00,,---,0.08,VWS V14.01,2013-02-28 01:01:00,
2013-02-27 20:02:00,35.2,30.0,28.85,NW,308,3.6,4.5,81,0.00,,---,0.08,VWS V14.01,2013-02-28 01:02:00,
2013-02-27 20:03:00,35.2,30.0,28.85,NNW,340,4.9,5.4,81,0.00,,---,0.08,VWS V14.01,2013-02-28 01:03:00,
2013-02-27 20:04:00,35.2,30.0,28.85,NW,310,4.9,6.3,81,0.00,,---,0.08,VWS V14.01,2013-02-28 01:04:00,
2013-02-27 20:05:00,32.5,31.0,28.59,WSW,244,6.9,6.9,94,0.00,,---,0.12,VWS V14.01,2013-02-28 01:05:00,
2013-02-27 20:06:00,35.1,30.1,28.85,NW,318,4.9,6.3,82,0.00,,---,0.08,VWS V14.01,2013-02-28 01:06:00,
2013-02-27 20:07:00,35.1,30.1,28.85,NNW,339,6.3,7.4,82,0.00,,---,0.08,VWS V14.01,2013-02-28 01:07:00,
2013-02-27 20:08:00,35.1,30.1,28.85,NNW,328,6.7,10.5,82,0.00,,---,0.08,VWS V14.01,2013-02-28 01:08:00,
2013-02-27 20:09:00,35.1,30.1,28.85,NW,305,4.0,6.7,82,0.00,,---,0.08,VWS V14.01,2013-02-28 01:09:00,
2013-02-27 20:10:00,32.5,31.0,28.59,WSW,252,6.7,10.5,94,0.00,,---,0.12,VWS V14.01,2013-02-28 01:10:00,
2013-02-27 20:11:00,35.1,30.1,28.85,NNW,343,7.4,7.4,82,0.00,,---,0.08,VWS V14.01,2013-02-28 01:11:00,
2013-02-27 20:12:00,35.1,30.1,28.85,NW,324,4.5,7.4,82,0.00,,---,0.08,VWS V14.01,2013-02-28 01:12:00,
2013-02-27 20:13:00,35.1,30.1,28.85,NNW,329,4.9,6.9,82,0.00,,---,0.08,VWS V14.01,2013-02-28 01:13:00,
2013-02-27 20:14:00,35.1,30.4,28.85,North,351,6.3,6.3,83,0.00,,---,0.08,VWS V14.01,2013-02-28 01:14:00,
2013-02-27 20:15:00,32.5,31.0,28.59,West,264,13.0,13.0,94,0.00,,---,0.12,VWS V14.01,2013-02-28 01:15:00,
2013-02-27 20:20:00,32.5,31.0,28.59,WSW,253,7.4,12.5,94,0.00,,---,0.12,VWS V14.01,2013-02-28 01:20:00,
2013-02-27 20:21:00,35.1,30.4,28.85,NNW,344,6.7,6.7,83,0.00,,---,0.08,VWS V14.01,2013-02-28 01:21:00,
2013-02-27 20:22:00,35.1,30.7,28.85,NNW,338,7.4,7.4,84,0.00,,---,0.08,VWS V14.01,2013-02-28 01:22:00,
2013-02-27 20:23:00,35.1,30.7,28.85,NNW,339,3.6,7.4,84,0.00,,---,0.08,VWS V14.01,2013-02-28 01:23:00,
2013-02-27 20:24:00,35.1,30.7,28.85,NNW,333,4.0,5.8,84,0.00,,---,0.08,VWS V14.01,2013-02-28 01:24:00,
2013-02-27 20:25:00,32.4,30.8,28.59,West,274,9.2,12.1,94,0.00,,---,0.12,VWS V14.01,2013-02-28 01:25:00,
2013-02-27 20:26:00,35.1,30.7,28.85,NNW,327,5.4,5.4,84,0.00,,---,0.08,VWS V14.01,2013-02-28 01:26:00,
2013-02-27 20:27:00,34.9,30.5,28.85,NNW,329,4.9,6.9,84,0.00,,---,0.08,VWS V14.01,2013-02-28 01:27:00,
2013-02-27 20:28:00,34.9,30.5,28.85,NW,324,4.0,5.4,84,0.00,,---,0.08,VWS V14.01,2013-02-28 01:28:00,
2013-02-27 20:29:00,34.9,30.5,28.85,North,351,6.3,6.3,84,0.00,,---,0.08,VWS V14.01,2013-02-28 01:29:00,
2013-02-27 20:30:00,34.9,30.5,28.85,NNW,329,4.5,6.7,84,0.00,,---,0.08,VWS V14.01,2013-02-28 01:30:00,
2013-02-27 20:31:00,34.9,30.5,28.85,NNW,337,5.4,5.8,84,0.00,,---,0.08,VWS V14.01,2013-02-28 01:31:00,
2013-02-27 20:32:00,34.9,30.8,28.85,NNW,336,4.0,5.4,85,0.00,,---,0.08,VWS V14.01,2013-02-28 01:32:00,
2013-02-27 20:33:00,34.9,30.8,28.85,NNW,338,4.5,5.8,85,0.00,,---,0.08,VWS V14.01,2013-02-28 01:33:00,
2013-02-27 20:34:00,34.9,30.8,28.85,NNW,330,4.0,5.8,85,0.00,,---,0.08,VWS V14.01,2013-02-28 01:34:00,
2013-02-27 20:35:00,34.9,30.8,28.85,NW,311,6.7,7.4,85,0.00,,---,0.08,VWS V14.01,2013-02-28 01:35:00,
2013-02-27 20:36:00,34.9,30.8,28.88,NNW,333,4.9,6.7,85,0.00,,---,0.08,VWS V14.01,2013-02-28 01:36:00,
2013-02-27 20:37:00,32.4,30.8,28.59,West,273,11.2,12.1,94,0.00,,---,0.12,VWS V14.01,2013-02-28 01:37:00,
2013-02-27 20:38:00,34.9,30.8,28.88,NNW,334,4.5,4.9,85,0.00,,---,0.08,VWS V14.01,2013-02-28 01:38:00,
2013-02-27 20:39:00,34.9,30.8,28.88,NNW,340,6.7,6.7,85,0.00,,---,0.08,VWS V14.01,2013-02-28 01:39:00,
2013-02-27 20:40:00,34.9,30.8,28.88,NNW,343,6.9,6.9,85,0.00,,---,0.08,VWS V14.01,2013-02-28 01:40:00,
2013-02-27 20:41:00,34.9,30.8,28.88,NW,312,4.9,6.9,85,0.00,,---,0.08,VWS V14.01,2013-02-28 01:41:00,
2013-02-27 20:42:00,32.2,30.9,28.59,West,279,11.2,11.2,95,0.00,,---,0.12,VWS V14.01,2013-02-28 01:42:00,
2013-02-27 20:43:00,34.9,30.8,28.88,NNW,336,4.5,5.4,85,0.00,,---,0.08,VWS V14.01,2013-02-28 01:43:00,
2013-02-27 20:44:00,34.9,30.8,28.88,NNW,342,4.5,5.4,85,0.00,,---,0.08,VWS V14.01,2013-02-28 01:44:00,
2013-02-27 20:45:00,34.9,30.8,28.88,NNW,330,5.4,7.4,85,0.00,,---,0.08,VWS V14.01,2013-02-28 01:45:00,
2013-02-27 20:46:00,34.9,30.8,28.88,NNW,338,3.6,6.7,85,0.00,,---,0.08,VWS V14.01,2013-02-28 01:46:00,
2013-02-27 20:47:00,34.9,30.8,28.88,NNW,332,4.0,4.5,85,0.00,,---,0.08,VWS V14.01,2013-02-28 01:47:00,
2013-02-27 20:48:00,34.9,30.8,28.88,NNW,345,5.8,5.8,85,0.00,,---,0.08,VWS V14.01,2013-02-28 01:48:00,
2013-02-27 20:49:00,32.2,30.9,28.59,WNW,282,5.8,11.6,95,0.00,,---,0.12,VWS V14.01,2013-02-28 01:49:00,
2013-02-27 20:50:00,34.9,30.8,28.88,NNW,335,4.9,6.9,85,0.00,,---,0.08,VWS V14.01,2013-02-28 01:50:00,
2013-02-27 20:51:00,34.7,30.7,28.88,NNW,333,4.5,6.3,85,0.00,,---,0.08,VWS V14.01,2013-02-28 01:51:00,
2013-02-27 20:52:00,34.7,30.7,28.88,North,351,4.0,5.4,85,0.00,,---,0.08,VWS V14.01,2013-02-28 01:52:00,
2013-02-27 20:53:00,34.7,30.7,28.88,NW,321,3.6,4.9,85,0.00,,---,0.08,VWS V14.01,2013-02-28 01:53:00,
2013-02-27 20:54:00,34.7,30.7,28.88,NNW,344,6.3,6.3,85,0.00,,---,0.08,VWS V14.01,2013-02-28 01:54:00,
2013-02-27 20:55:00,34.7,30.7,28.88,NNW,332,4.9,8.3,85,0.00,,---,0.08,VWS V14.01,2013-02-28 01:55:00,
2013-02-27 20:56:00,34.7,30.7,28.88,North,351,4.9,7.8,85,0.00,,---,0.08,VWS V14.01,2013-02-28 01:56:00,
2013-02-27 20:57:00,32.4,31.1,28.59,West,280,8.7,12.5,95,0.00,,---,0.12,VWS V14.01,2013-02-28 01:57:00,
2013-02-27 20:58:00,34.7,30.7,28.88,NNW,339,4.9,6.9,85,0.00,,---,0.08,VWS V14.01,2013-02-28 01:58:00,
2013-02-27 20:59:00,34.7,30.7,28.88,NNW,327,6.3,6.3,85,0.00,,---,0.08,VWS V14.01,2013-02-28 01:59:00,
2013-02-27 21:00:00,34.7,30.7,28.88,NW,308,3.6,9.2,85,0.00,,---,0.08,VWS V14.01,2013-02-28 02:00:00,
2013-02-27 21:02:00,34.5,30.5,28.88,NNW,328,5.4,9.2,85,0.00,,---,0.08,VWS V14.01,2013-02-28 02:02:00,
2013-02-27 21:03:00,32.2,31.2,28.59,West,274,10.5,13.0,96,0.00,,---,0.12,VWS V14.01,2013-02-28 02:03:00,
2013-02-27 21:04:00,34.5,30.2,28.88,NNW,344,4.5,6.7,84,0.00,,---,0.08,VWS V14.01,2013-02-28 02:04:00,
2013-02-27 21:05:00,34.5,30.2,28.88,NNW,338,4.9,8.3,84,0.00,,---,0.08,VWS V14.01,2013-02-28 02:05:00,
2013-02-27 21:06:00,34.5,30.2,28.88,ENE,72,8.3,8.7,84,0.00,,---,0.08,VWS V14.01,2013-02-28 02:06:00,
2013-02-27 21:07:00,34.5,30.2,28.88,NNW,344,5.8,8.3,84,0.00,,---,0.08,VWS V14.01,2013-02-28 02:07:00,
2013-02-27 21:08:00,34.5,29.9,28.88,NNW,333,5.4,5.8,83,0.00,,---,0.08,VWS V14.01,2013-02-28 02:08:00,
2013-02-27 21:09:00,34.5,29.9,28.88,NW,318,5.4,6.9,83,0.00,,---,0.08,VWS V14.01,2013-02-28 02:09:00,
2013-02-27 21:10:00,34.5,29.9,28.88,NW,318,7.8,7.8,83,0.00,,---,0.08,VWS V14.01,2013-02-28 02:10:00,
2013-02-27 21:11:00,34.5,29.9,28.88,NNW,337,5.4,7.8,83,0.00,,---,0.08,VWS V14.01,2013-02-28 02:11:00,
2013-02-27 21:12:00,32.2,31.2,28.59,SW,229,5.4,14.3,96,0.00,,---,0.12,VWS V14.01,2013-02-28 02:12:00,
2013-02-27 21:13:00,34.5,29.6,28.88,NNW,328,6.3,9.2,82,0.00,,---,0.08,VWS V14.01,2013-02-28 02:13:00,
2013-02-27 21:14:00,34.5,29.6,28.88,NNW,340,4.9,7.8,82,0.00,,---,0.08,VWS V14.01,2013-02-28 02:14:00,
2013-02-27 21:15:00,34.5,29.6,28.88,NW,320,4.0,7.8,82,0.00,,---,0.08,VWS V14.01,2013-02-28 02:15:00,
2013-02-27 21:16:00,34.5,29.3,28.88,NNW,338,4.5,5.8,81,0.00,,---,0.08,VWS V14.01,2013-02-28 02:16:00,
2013-02-27 21:17:00,34.5,29.3,28.88,North,351,4.9,6.3,81,0.00,,---,0.08,VWS V14.01,2013-02-28 02:17:00,
2013-02-27 21:18:00,32.0,31.0,28.59,West,267,9.2,10.5,96,0.00,,---,0.12,VWS V14.01,2013-02-28 02:18:00,
2013-02-27 21:19:00,34.3,29.1,28.88,NNW,336,6.9,8.3,81,0.00,,---,0.08,VWS V14.01,2013-02-28 02:19:00,
2013-02-27 21:20:00,34.3,29.1,28.88,NNW,334,8.3,8.3,81,0.00,,---,0.08,VWS V14.01,2013-02-28 02:20:00,
2013-02-27 21:21:00,34.3,29.1,28.88,North,356,5.8,9.2,81,0.00,,---,0.08,VWS V14.01,2013-02-28 02:21:00,
2013-02-27 21:22:00,34.3,29.1,28.88,NNW,328,4.5,6.7,81,0.00,,---,0.08,VWS V14.01,2013-02-28 02:22:00,
2013-02-27 21:23:00,34.3,29.1,28.88,NNW,341,6.7,8.3,81,0.00,,---,0.08,VWS V14.01,2013-02-28 02:23:00,
2013-02-27 21:24:00,34.3,28.8,28.88,NNW,340,4.9,10.1,80,0.00,,---,0.08,VWS V14.01,2013-02-28 02:24:00,
2013-02-27 21:25:00,32.0,31.0,28.59,SW,221,8.3,12.1,96,0.00,,---,0.12,VWS V14.01,2013-02-28 02:25:00,
2013-02-27 21:26:00,34.2,28.6,28.88,NW,307,6.3,9.2,80,0.00,,---,0.08,VWS V14.01,2013-02-28 02:26:00,
2013-02-27 21:27:00,34.2,28.6,28.88,NW,319,7.8,10.1,80,0.00,,---,0.08,VWS V14.01,2013-02-28 02:27:00,
2013-02-27 21:28:00,34.2,28.3,28.88,North,351,5.8,8.3,79,0.00,,---,0.08,VWS V14.01,2013-02-28 02:28:00,
2013-02-27 21:29:00,34.2,28.3,28.88,NNW,333,4.5,6.7,79,0.00,,---,0.08,VWS V14.01,2013-02-28 02:29:00,
2013-02-27 21:30:00,34.2,28.3,28.88,NNW,329,7.4,7.4,79,0.00,,---,0.08,VWS V14.01,2013-02-28 02:30:00,
2013-02-27 21:31:00,32.0,31.0,28.59,WSW,254,11.6,12.5,96,0.00,,---,0.12,VWS V14.01,2013-02-28 02:31:00,
2013-02-27 21:32:00,34.2,28.3,28.88,NNW,339,5.4,7.4,79,0.00,,---,0.08,VWS V14.01,2013-02-28 02:32:00,
2013-02-27 21:33:00,34.2,28.3,28.88,NW,323,4.0,8.3,79,0.00,,---,0.08,VWS V14.01,2013-02-28 02:33:00,
2013-02-27 21:34:00,34.2,28.3,28.88,NNW,335,6.3,6.3,79,0.00,,---,0.08,VWS V14.01,2013-02-28 02:34:00,
2013-02-27 21:35:00,34.2,28.3,28.88,North,351,7.8,7.8,79,0.00,,---,0.08,VWS V14.01,2013-02-28 02:35:00,
2013-02-27 21:36:00,34.0,28.2,28.88,North,356,5.8,7.8,79,0.00,,---,0.08,VWS V14.01,2013-02-28 02:36:00,
2013-02-27 21:37:00,34.0,28.2,28.88,WNW,303,5.8,6.9,79,0.00,,---,0.08,VWS V14.01,2013-02-28 02:37:00,
2013-02-27 21:38:00,34.0,28.2,28.88,NNW,337,7.8,9.2,79,0.00,,---,0.08,VWS V14.01,2013-02-28 02:38:00,
2013-02-27 21:39:00,34.0,28.2,28.88,North,351,5.8,7.8,79,0.00,,---,0.08,VWS V14.01,2013-02-28 02:39:00,
2013-02-27 21:40:00,34.0,28.2,28.88,NNW,330,4.9,8.7,79,0.00,,---,0.08,VWS V14.01,2013-02-28 02:40:00,
2013-02-27 21:41:00,34.0,28.2,28.88,NNW,330,6.7,7.4,79,0.00,,---,0.08,VWS V14.01,2013-02-28 02:41:00,
2013-02-27 21:42:00,34.0,28.2,28.88,North,351,3.6,6.7,79,0.00,,---,0.08,VWS V14.01,2013-02-28 02:42:00,
2013-02-27 21:43:00,34.0,28.2,28.88,NW,308,4.9,6.9,79,0.00,,---,0.08,VWS V14.01,2013-02-28 02:43:00,
2013-02-27 21:44:00,34.0,28.2,28.88,North,351,6.3,7.8,79,0.00,,---,0.08,VWS V14.01,2013-02-28 02:44:00,
2013-02-27 21:45:00,32.0,31.2,28.59,SW,233,6.9,11.6,97,0.00,,---,0.12,VWS V14.01,2013-02-28 02:45:00,
2013-02-27 21:46:00,34.0,28.2,28.88,NW,311,6.9,6.9,79,0.00,,---,0.08,VWS V14.01,2013-02-28 02:46:00,
2013-02-27 21:47:00,34.0,28.2,28.88,NNW,336,6.9,7.8,79,0.00,,---,0.08,VWS V14.01,2013-02-28 02:47:00,
2013-02-27 21:48:00,34.0,28.2,28.88,NNW,340,8.3,8.3,79,0.00,,---,0.08,VWS V14.01,2013-02-28 02:48:00,
2013-02-27 21:49:00,34.0,28.2,28.88,NNW,334,6.3,8.3,79,0.00,,---,0.08,VWS V14.01,2013-02-28 02:49:00,
2013-02-27 21:50:00,32.0,31.2,28.59,West,264,6.9,11.2,97,0.00,,---,0.12,VWS V14.01,2013-02-28 02:50:00,
2013-02-27 21:51:00,34.0,28.2,28.88,NW,318,6.3,7.8,79,0.00,,---,0.08,VWS V14.01,2013-02-28 02:51:00,
2013-02-27 21:52:00,34.0,28.2,28.88,North,351,3.1,6.7,79,0.00,,---,0.08,VWS V14.01,2013-02-28 02:52:00,
2013-02-27 21:53:00,34.0,28.2,28.88,NNW,337,6.3,6.9,79,0.00,,---,0.08,VWS V14.01,2013-02-28 02:53:00,
2013-02-27 21:55:00,32.0,31.2,28.59,WSW,237,4.0,8.3,97,0.00,,---,0.12,VWS V14.01,2013-02-28 02:55:00,
2013-02-27 21:56:00,33.8,28.0,28.88,NW,320,5.4,6.3,79,0.00,,---,0.08,VWS V14.01,2013-02-28 02:56:00,
2013-02-27 21:57:00,33.8,28.0,28.88,NNW,343,6.7,8.7,79,0.00,,---,0.08,VWS V14.01,2013-02-28 02:57:00,
2013-02-27 21:58:00,33.8,28.0,28.88,NNW,340,5.4,7.4,79,0.00,,---,0.08,VWS V14.01,2013-02-28 02:58:00,
2013-02-27 21:59:00,33.8,28.0,28.88,NNW,331,5.8,5.8,79,0.00,,---,0.08,VWS V14.01,2013-02-28 02:59:00,
2013-02-27 22:00:00,32.0,31.2,28.59,NW,317,4.0,8.7,97,0.00,,---,0.12,VWS V14.01,2013-02-28 03:00:00,
2013-02-27 22:01:00,33.8,28.0,28.88,North,351,8.7,8.7,79,0.00,,---,0.08,VWS V14.01,2013-02-28 03:01:00,
2013-02-27 22:02:00,33.8,28.0,28.88,NNW,338,5.8,8.7,79,0.00,,---,0.08,VWS V14.01,2013-02-28 03:02:00,
2013-02-27 22:03:00,33.8,28.0,28.88,NNW,346,4.5,6.9,79,0.00,,---,0.08,VWS V14.01,2013-02-28 03:03:00,
2013-02-27 22:04:00,33.8,28.0,28.88,NNW,332,7.8,7.8,79,0.00,,---,0.08,VWS V14.01,2013-02-28 03:04:00,
2013-02-27 22:05:00,32.0,31.2,28.59,WNW,287,13.0,14.3,97,0.00,,---,0.12,VWS V14.01,2013-02-28 03:05:00,
2013-02-27 22:06:00,33.8,28.0,28.88,North,351,4.0,6.7,79,0.00,,---,0.08,VWS V14.01,2013-02-28 03:06:00,
2013-02-27 22:07:00,33.8,28.0,28.88,NNW,346,4.9,7.4,79,0.00,,---,0.08,VWS V14.01,2013-02-28 03:07:00,
2013-02-27 22:08:00,33.8,28.0,28.88,NNW,340,4.9,6.9,79,0.00,,---,0.08,VWS V14.01,2013-02-28 03:08:00,
2013-02-27 22:09:00,33.8,28.0,28.88,NNW,345,6.3,7.4,79,0.00,,---,0.08,VWS V14.01,2013-02-28 03:09:00,
2013-02-27 22:10:00,33.8,28.0,28.88,North,351,5.4,6.7,79,0.00,,---,0.08,VWS V14.01,2013-02-28 03:10:00,
2013-02-27 22:11:00,33.8,28.0,28.88,NW,322,5.4,7.4,79,0.00,,---,0.08,VWS V14.01,2013-02-28 03:11:00,
2013-02-27 22:12:00,33.8,28.0,28.88,NNW,334,5.4,6.7,79,0.00,,---,0.08,VWS V14.01,2013-02-28 03:12:00,
2013-02-27 22:13:00,33.8,28.0,28.88,North,351,4.9,7.4,79,0.00,,---,0.08,VWS V14.01,2013-02-28 03:13:00,
2013-02-27 22:14:00,33.8,28.0,28.88,NW,316,5.8,6.3,79,0.00,,---,0.08,VWS V14.01,2013-02-28 03:14:00,
2013-02-27 22:15:00,32.0,31.2,28.59,WNW,292,5.8,9.2,97,0.00,,---,0.12,VWS V14.01,2013-02-28 03:15:00,
2013-02-27 22:16:00,33.8,28.0,28.88,NNW,342,5.4,8.7,79,0.00,,---,0.08,VWS V14.01,2013-02-28 03:16:00,
2013-02-27 22:17:00,33.8,28.0,28.88,NW,304,3.6,9.6,79,0.00,,---,0.08,VWS V14.01,2013-02-28 03:17:00,
2013-02-27 22:18:00,33.8,28.0,28.88,NW,311,5.8,8.3,79,0.00,,---,0.08,VWS V14.01,2013-02-28 03:18:00,
2013-02-27 22:19:00,33.8,28.0,28.88,NNW,335,8.3,8.3,79,0.00,,---,0.08,VWS V14.01,2013-02-28 03:19:00,
2013-02-27 22:20:00,32.0,31.2,28.59,WNW,287,6.9,12.1,97,0.00,,---,0.12,VWS V14.01,2013-02-28 03:20:00,
2013-02-27 22:21:00,33.6,27.5,28.88,North,1,6.9,11.6,78,0.00,,---,0.08,VWS V14.01,2013-02-28 03:21:00,
2013-02-27 22:22:00,33.6,27.5,28.88,NNW,338,6.9,7.8,78,0.00,,---,0.08,VWS V14.01,2013-02-28 03:22:00,
2013-02-27 22:23:00,33.6,27.5,28.88,NNW,340,6.7,7.8,78,0.00,,---,0.08,VWS V14.01,2013-02-28 03:23:00,
2013-02-27 22:24:00,33.6,27.5,28.88,North,351,8.3,10.5,78,0.00,,---,0.08,VWS V14.01,2013-02-28 03:24:00,
2013-02-27 22:25:00,31.8,31.1,28.59,West,279,11.0,11.6,97,0.00,,---,0.12,VWS V14.01,2013-02-28 03:25:00,
2013-02-27 22:26:00,33.6,27.5,28.88,NW,322,6.7,12.5,78,0.00,,---,0.08,VWS V14.01,2013-02-28 03:26:00,
2013-02-27 22:27:00,33.6,27.5,28.88,NW,319,5.4,9.2,78,0.00,,---,0.08,VWS V14.01,2013-02-28 03:27:00,
2013-02-27 22:28:00,33.6,27.5,28.88,NNW,328,8.3,8.3,78,0.00,,---,0.08,VWS V14.01,2013-02-28 03:28:00,
2013-02-27 22:29:00,33.6,27.5,28.88,NW,322,4.5,9.6,78,0.00,,---,0.08,VWS V14.01,2013-02-28 03:29:00,
2013-02-27 22:30:00,31.8,31.1,28.59,West,262,6.9,7.4,97,0.00,,---,0.12,VWS V14.01,2013-02-28 03:30:00,
2013-02-27 22:31:00,33.6,27.5,28.88,NNW,335,6.7,6.9,78,0.00,,---,0.08,VWS V14.01,2013-02-28 03:31:00,
2013-02-27 22:32:00,33.6,27.5,28.88,NNW,343,6.9,7.4,78,0.00,,---,0.08,VWS V14.01,2013-02-28 03:32:00,
2013-02-27 22:33:00,33.6,27.5,28.88,WNW,298,9.6,11.0,78,0.00,,---,0.08,VWS V14.01,2013-02-28 03:33:00,
2013-02-27 22:34:00,33.6,27.5,28.88,North,351,5.4,9.6,78,0.00,,---,0.08,VWS V14.01,2013-02-28 03:34:00,
2013-02-27 22:35:00,31.8,31.1,28.59,West,274,10.1,10.5,97,0.00,,---,0.12,VWS V14.01,2013-02-28 03:35:00,
2013-02-27 22:36:00,33.6,27.5,28.88,WNW,298,6.3,6.9,78,0.00,,---,0.08,VWS V14.01,2013-02-28 03:36:00,
2013-02-27 22:37:00,33.6,27.5,28.88,NNW,328,5.8,7.8,78,0.00,,---,0.08,VWS V14.01,2013-02-28 03:37:00,
2013-02-27 22:38:00,33.6,27.5,28.88,NW,312,6.7,6.9,78,0.00,,---,0.08,VWS V14.01,2013-02-28 03:38:00,
2013-02-27 22:39:00,33.6,27.5,28.88,NW,324,5.4,8.3,78,0.00,,---,0.08,VWS V14.01,2013-02-28 03:39:00,
2013-02-27 22:40:00,33.6,27.5,28.88,NNW,347,5.4,6.7,78,0.00,,---,0.08,VWS V14.01,2013-02-28 03:40:00,
2013-02-27 22:41:00,31.8,31.1,28.59,WSW,246,3.1,7.8,97,0.00,,---,0.12,VWS V14.01,2013-02-28 03:41:00,
2013-02-27 22:42:00,33.6,27.5,28.88,NNW,346,4.5,7.4,78,0.00,,---,0.08,VWS V14.01,2013-02-28 03:42:00,
2013-02-27 22:43:00,33.6,27.5,28.88,NNW,328,4.0,5.8,78,0.00,,---,0.08,VWS V14.01,2013-02-28 03:43:00,
2013-02-27 22:44:00,33.6,27.5,28.88,NNW,332,4.0,7.4,78,0.00,,---,0.08,VWS V14.01,2013-02-28 03:44:00,
2013-02-27 22:45:00,33.6,27.8,28.88,NNW,331,6.7,6.7,79,0.00,,---,0.08,VWS V14.01,2013-02-28 03:45:00,
2013-02-27 22:46:00,31.8,31.1,28.59,WSW,252,6.7,10.1,97,0.00,,---,0.12,VWS V14.01,2013-02-28 03:46:00,
2013-02-27 22:47:00,33.6,27.8,28.88,WNW,295,6.7,9.2,79,0.00,,---,0.08,VWS V14.01,2013-02-28 03:47:00,
2013-02-27 22:48:00,33.6,27.8,28.88,North,351,7.4,8.7,79,0.00,,---,0.08,VWS V14.01,2013-02-28 03:48:00,
2013-02-27 22:49:00,33.6,27.8,28.88,NNW,337,6.7,7.8,79,0.00,,---,0.08,VWS V14.01,2013-02-28 03:49:00,
2013-02-27 22:50:00,33.6,27.8,28.88,North,351,3.6,6.7,79,0.00,,---,0.08,VWS V14.01,2013-02-28 03:50:00,
2013-02-27 22:51:00,31.8,31.1,28.59,West,269,7.4,11.6,97,0.00,,---,0.12,VWS V14.01,2013-02-28 03:51:00,
2013-02-27 22:52:00,33.6,27.8,28.88,North,356,3.1,6.7,79,0.00,,---,0.08,VWS V14.01,2013-02-28 03:52:00,
2013-02-27 22:53:00,33.6,27.8,28.88,NW,325,5.8,5.8,79,0.00,,---,0.08,VWS V14.01,2013-02-28 03:53:00,
2013-02-27 22:54:00,33.6,27.8,28.88,North,2,7.8,9.6,79,0.00,,---,0.08,VWS V14.01,2013-02-28 03:54:00,
2013-02-27 22:55:00,33.4,27.6,28.88,NNW,335,6.7,7.8,79,0.00,,---,0.08,VWS V14.01,2013-02-28 03:55:00,
2013-02-27 22:56:00,31.8,31.1,28.59,West,272,11.2,11.2,97,0.00,,---,0.12,VWS V14.01,2013-02-28 03:56:00,
2013-02-27 22:57:00,33.4,27.6,28.88,NW,312,5.4,6.3,79,0.00,,---,0.08,VWS V14.01,2013-02-28 03:57:00,
2013-02-27 22:58:00,33.6,27.8,28.88,NNE,22,4.0,5.4,79,0.00,,---,0.08,VWS V14.01,2013-02-28 03:58:00,
2013-02-27 22:59:00,33.6,27.8,28.88,NNW,336,4.9,6.9,79,0.00,,---,0.08,VWS V14.01,2013-02-28 03:59:00,
2013-02-27 23:00:00,33.4,27.6,28.88,NNW,338,5.8,6.3,79,0.00,,---,0.08,VWS V14.01,2013-02-28 04:00:00,
2013-02-27 23:01:00,31.8,31.1,28.59,West,272,10.5,12.1,97,0.00,,---,0.12,VWS V14.01,2013-02-28 04:01:00,
2013-02-27 23:02:00,33.4,27.9,28.88,NW,322,5.4,6.9,80,0.00,,---,0.08,VWS V14.01,2013-02-28 04:02:00,
2013-02-27 23:03:00,33.4,27.9,28.88,NNW,344,5.4,6.7,80,0.00,,---,0.08,VWS V14.01,2013-02-28 04:03:00,
2013-02-27 23:04:00,33.4,27.9,28.88,NNW,332,5.8,6.3,80,0.00,,---,0.08,VWS V14.01,2013-02-28 04:04:00,
2013-02-27 23:05:00,33.4,27.9,28.88,NNW,332,5.8,9.2,80,0.00,,---,0.08,VWS V14.01,2013-02-28 04:05:00,
2013-02-27 23:06:00,33.4,27.9,28.88,NNW,332,4.9,7.4,80,0.00,,---,0.08,VWS V14.01,2013-02-28 04:06:00,
2013-02-27 23:07:00,33.4,27.9,28.88,NNW,339,4.5,9.2,80,0.00,,---,0.08,VWS V14.01,2013-02-28 04:07:00,
2013-02-27 23:08:00,33.4,27.9,28.88,NW,320,6.3,8.3,80,0.00,,---,0.08,VWS V14.01,2013-02-28 04:08:00,
2013-02-27 23:09:00,33.4,27.9,28.88,NNW,329,6.7,6.7,80,0.00,,---,0.08,VWS V14.01,2013-02-28 04:09:00,
2013-02-27 23:10:00,33.3,27.8,28.88,North,0,4.9,10.1,80,0.00,,---,0.08,VWS V14.01,2013-02-28 04:10:00,
2013-02-27 23:11:00,31.8,31.1,28.59,SW,228,9.2,13.4,97,0.00,,---,0.00,VWS V14.01,2013-02-28 04:11:00,
2013-02-27 23:12:00,33.4,27.6,28.88,NNW,330,5.4,7.4,79,0.00,,---,0.08,VWS V14.01,2013-02-28 04:12:00,
2013-02-27 23:13:00,33.4,27.6,28.88,NNW,329,4.0,5.8,79,0.00,,---,0.08,VWS V14.01,2013-02-28 04:13:00,
2013-02-27 23:14:00,33.4,27.6,28.88,NNW,327,2.7,4.5,79,0.00,,---,0.08,VWS V14.01,2013-02-28 04:14:00,
2013-02-27 23:15:00,33.4,27.6,28.88,NNW,330,0.0,6.3,79,0.00,,---,0.08,VWS V14.01,2013-02-28 04:15:00,
2013-02-27 23:16:00,33.4,27.9,28.88,NNW,336,4.0,6.3,80,0.00,,---,0.08,VWS V14.01,2013-02-28 04:16:00,
2013-02-27 23:17:00,31.8,31.1,28.59,West,274,5.8,11.0,97,0.00,,---,0.00,VWS V14.01,2013-02-28 04:17:00,
2013-02-27 23:18:00,33.3,27.5,28.88,NNW,332,4.5,8.3,79,0.00,,---,0.08,VWS V14.01,2013-02-28 04:18:00,
2013-02-27 23:19:00,33.3,27.8,28.88,North,356,5.4,6.3,80,0.00,,---,0.08,VWS V14.01,2013-02-28 04:19:00,
2013-02-27 23:20:00,33.3,27.8,28.88,NNW,337,6.9,6.9,80,0.00,,---,0.08,VWS V14.01,2013-02-28 04:20:00,
2013-02-27 23:21:00,33.3,27.8,28.88,NNE,13,3.1,7.4,80,0.00,,---,0.08,VWS V14.01,2013-02-28 04:21:00,
2013-02-27 23:22:00,31.8,31.1,28.59,SW,234,6.3,6.7,97,0.00,,---,0.00,VWS V14.01,2013-02-28 04:22:00,
2013-02-27 23:23:00,33.3,27.8,28.88,North,7,4.0,9.6,80,0.00,,---,0.08,VWS V14.01,2013-02-28 04:23:00,
2013-02-27 23:24:00,33.3,27.8,28.88,WNW,297,6.7,6.7,80,0.00,,---,0.08,VWS V14.01,2013-02-28 04:24:00,
2013-02-27 23:25:00,33.3,27.8,28.88,NNW,330,6.9,10.5,80,0.00,,---,0.08,VWS V14.01,2013-02-28 04:25:00,
2013-02-27 23:26:00,33.3,27.5,28.88,NW,304,8.3,8.7,79,0.00,,---,0.08,VWS V14.01,2013-02-28 04:26:00,
2013-02-27 23:27:00,31.8,31.1,28.59,West,273,7.4,11.0,97,0.00,,---,0.00,VWS V14.01,2013-02-28 04:27:00,
2013-02-27 23:28:00,33.1,27.3,28.88,NNW,340,5.8,10.5,79,0.00,,---,0.08,VWS V14.01,2013-02-28 04:28:00,
2013-02-27 23:29:00,33.3,27.5,28.88,NNW,328,4.5,7.8,79,0.00,,---,0.08,VWS V14.01,2013-02-28 04:29:00,
2013-02-27 23:30:00,33.1,27.3,28.88,NNW,334,6.9,8.3,79,0.00,,---,0.08,VWS V14.01,2013-02-28 04:30:00,
2013-02-27 23:31:00,33.1,27.3,28.88,NW,316,9.6,9.6,79,0.00,,---,0.08,VWS V14.01,2013-02-28 04:31:00,
2013-02-27 23:32:00,31.8,31.1,28.59,WSW,250,9.2,10.1,97,0.00,,---,0.00,VWS V14.01,2013-02-28 04:32:00,
2013-02-27 23:33:00,33.1,27.3,28.88,NNW,334,6.3,11.0,79,0.00,,---,0.08,VWS V14.01,2013-02-28 04:33:00,
2013-02-27 23:34:00,33.1,27.3,28.88,NW,322,4.0,9.2,79,0.00,,---,0.08,VWS V14.01,2013-02-28 04:34:00,
2013-02-27 23:35:00,33.1,27.3,28.88,NNW,343,6.3,6.7,79,0.00,,---,0.08,VWS V14.01,2013-02-28 04:35:00,
2013-02-27 23:36:00,33.1,27.3,28.88,NW,325,5.4,7.8,79,0.00,,---,0.08,VWS V14.01,2013-02-28 04:36:00,
2013-02-27 23:37:00,31.8,31.1,28.59,West,264,4.9,9.2,97,0.00,,---,0.00,VWS V14.01,2013-02-28 04:37:00,
2013-02-27 23:38:00,33.1,27.3,28.88,NNW,331,5.4,6.7,79,0.00,,---,0.08,VWS V14.01,2013-02-28 04:38:00,
2013-02-27 23:39:00,33.1,27.3,28.88,NNW,340,3.6,5.4,79,0.00,,---,0.08,VWS V14.01,2013-02-28 04:39:00,
2013-02-27 23:40:00,33.1,27.3,28.88,NNW,345,6.7,6.7,79,0.00,,---,0.08,VWS V14.01,2013-02-28 04:40:00,
2013-02-27 23:41:00,33.1,27.3,28.88,NNW,334,4.9,6.9,79,0.00,,---,0.08,VWS V14.01,2013-02-28 04:41:00,
2013-02-27 23:42:00,33.1,27.3,28.88,NNW,327,6.3,6.9,79,0.00,,---,0.08,VWS V14.01,2013-02-28 04:42:00,
2013-02-27 23:43:00,31.8,31.1,28.59,West,264,12.1,12.1,97,0.00,,---,0.00,VWS V14.01,2013-02-28 04:43:00,
2013-02-27 23:44:00,33.1,27.3,28.88,NNW,342,5.4,6.9,79,0.00,,---,0.08,VWS V14.01,2013-02-28 04:44:00,
2013-02-27 23:45:00,33.1,27.3,28.88,NW,322,4.5,6.7,79,0.00,,---,0.08,VWS V14.01,2013-02-28 04:45:00,
2013-02-27 23:46:00,33.1,27.3,28.88,NNW,331,6.9,6.9,79,0.00,,---,0.08,VWS V14.01,2013-02-28 04:46:00,
2013-02-27 23:47:00,33.1,27.3,28.88,NNE,17,4.9,7.8,79,0.00,,---,0.08,VWS V14.01,2013-02-28 04:47:00,
2013-02-27 23:48:00,32.0,31.2,28.59,SSW,207,7.8,11.0,97,0.00,,---,0.00,VWS V14.01,2013-02-28 04:48:00,
2013-02-27 23:49:00,33.1,27.6,28.88,NW,321,4.9,7.4,80,0.00,,---,0.08,VWS V14.01,2013-02-28 04:49:00,
2013-02-27 23:50:00,33.1,27.6,28.88,NNW,329,9.2,9.6,80,0.00,,---,0.08,VWS V14.01,2013-02-28 04:50:00,
2013-02-27 23:51:00,33.1,27.6,28.88,NNE,17,4.9,9.6,80,0.00,,---,0.08,VWS V14.01,2013-02-28 04:51:00,
2013-02-27 23:52:00,33.1,27.6,28.88,NNW,328,6.7,6.7,80,0.00,,---,0.08,VWS V14.01,2013-02-28 04:52:00,
2013-02-27 23:53:00,33.1,27.6,28.88,NNW,335,5.8,6.7,80,0.00,,---,0.08,VWS V14.01,2013-02-28 04:53:00,
2013-02-27 23:54:00,32.9,27.7,28.88,NW,318,5.4,6.7,81,0.00,,---,0.08,VWS V14.01,2013-02-28 04:54:00,
2013-02-27 23:55:00,32.0,31.2,28.59,West,272,6.7,8.7,97,0.00,,---,0.00,VWS V14.01,2013-02-28 04:55:00,
2013-02-27 23:56:00,32.9,27.7,28.88,NNW,338,4.9,8.3,81,0.00,,---,0.08,VWS V14.01,2013-02-28 04:56:00,
2013-02-27 23:57:00,32.9,28.0,28.88,NNW,334,4.9,6.9,82,0.00,,---,0.08,VWS V14.01,2013-02-28 04:57:00,
2013-02-27 23:58:00,32.9,28.0,28.88,NW,325,4.9,5.8,82,0.00,,---,0.08,VWS V14.01,2013-02-28 04:58:00,
2013-02-27 23:59:00,32.9,28.0,28.88,NW,319,6.7,6.7,82,0.00,,---,0.08,VWS V14.01,2013-02-28 04:59:00,